[[{"header":{"parameterUnit":"m.s-1","parameterCategory":1,"la1":31.0,"la2":29.5877,"lo1":-88.7671,"lo2":-86.6584,"dy":0.0162,"dx":0.0185,"nx":115,"ny":88,"refTime":"2023-08-18T06:00:00:Z","depth":0,"parameterNumber":2,"parameterNumberName":"U-component_of_WINDS"},"data":[0.0,0.0,0.0,0.0,0.0,0.0,0.0,0.0,0.0,0.0,0.0,0.0,0.0,0.0,0.0,0.0,0.0,0.0,0.0,0.0,0.0,0.0,0.0,0.0,0.0,0.0,0.0,0.0,0.0,0.0,0.0,0.0,0.0,0.0,0.0,0.0,0.0,0.0,0.0,0.0,0.0,0.0,0.0,0.0,0.0,0.0,0.0,0.0,0.0,0.0,0.0,0.0,0.0,0.0,0.0,0.0,0.0,0.0,0.0,0.0,0.0,0.0,0.0,0.0,0.0,0.0,0.0,0.0,0.0,0.0,0.0,0.0,0.0,0.0,0.0,0.0,0.0,0.0,0.0,0.0,0.0,0.0,0.0,0.0,0.0,0.0,0.0,0.0,0.0,0.0,0.0,0.0,0.0,0.0,0.0,0.0,0.0,0.0,0.0,0.0,0.0,0.0,0.0,0.0,0.0,0.0,0.0,0.0,0.0,0.0,0.0,0.0,0.0,0.0,0.0,0.0,0.0,0.0,0.0,0.0,0.0,0.0,0.0,0.0,0.0,0.0,0.0,0.0,0.0,0.0,0.0,0.0,0.0,0.0,0.0,0.0,0.0,0.0,0.0,0.0,0.0,0.0,0.0,0.0,0.0,0.0,0.0,0.0,0.0,0.0,0.0,0.0,0.0,0.0,0.0,0.0,0.0,0.0,0.0,0.0,0.0,0.0,0.0,0.0,0.0,0.0,0.0,0.0,0.0,0.0,0.0,0.0,0.0,0.0,0.0,0.0,0.0,0.0,0.0,0.0,0.0,0.0,0.0,0.0,0.0,0.0,0.0,0.0,0.0,0.0,0.0,0.0,0.0,0.0,0.0,0.0,0.0,0.0,0.0,0.0,0.0,0.0,0.0,0.0,0.0,0.0,0.0,0.0,0.0,0.0,0.0,0.0,0.0,0.0,0.0,0.0,0.0,0.0,0.0,0.0,0.0,0.0,0.0,0.0,0.0,0.0,0.0,0.0,0.0,0.0,0.0,0.0,0.0,0.0,0.0,0.0,0.0,0.0,0.0,0.0,0.0,0.0,0.0,0.0,0.0,0.0,0.0,0.0,0.0,0.0,0.0,0.0,0.0,0.0,0.0,0.0,0.0,0.0,0.0,0.0,0.0,0.0,0.0,0.0,0.0,0.0,0.0,0.0,0.0,0.0,0.0,0.0,0.0,0.0,0.0,0.0,0.0,0.0,0.0,0.0,0.0,0.0,0.0,0.0,0.0,0.0,0.0,0.0,0.0,0.0,0.0,0.0,0.0,0.0,0.0,0.0,0.0,0.0,0.0,0.0,0.0,0.0,0.0,0.0,0.0,0.0,0.0,0.0,0.0,0.0,0.0,0.0,0.0,0.0,0.0,0.0,0.0,0.0,0.0,0.0,0.0,0.0,0.0,0.0,0.0,0.0,0.0,0.0,0.0,0.0,0.0,0.0,0.0,0.0,0.0,0.0,0.0,0.0,0.0,0.0,0.0,0.0,0.0,0.0,0.0,0.0,0.0,0.0,0.0,0.0,0.0,0.0,0.0,0.0,0.0,0.0,0.0,0.0,0.0,0.0,0.0,0.0,0.0,0.0,0.0,0.0,0.0,0.0,0.0,0.0,0.0,0.0,0.0,0.0,0.0,0.0,0.0,0.0,0.0,0.0,0.0,0.0,0.0,0.0,0.0,0.0,0.0,0.0,0.0,0.0,0.0,0.0,0.0,0.0,0.0,0.0,0.0,0.0,0.0,0.0,0.0,0.0,0.0,0.0,0.0,0.0,0.0,0.0,0.0,0.0,0.0,0.0,0.0,0.0,0.0,0.0,0.0,0.0,0.0,0.0,0.0,0.0,0.0,0.0,0.0,0.0,0.0,0.0,0.0,0.0,0.0,0.0,0.0,0.0,0.0,0.0,0.0,0.0,0.0,0.0,0.0,0.0,0.0,0.0,0.0,0.0,0.0,0.0,0.0,0.0,0.0,0.0,0.0,0.0,0.0,0.0,0.0,0.0,0.0,0.0,0.0,0.0,0.0,0.0,0.0,0.0,0.0,0.0,0.0,0.0,0.0,0.0,0.0,0.0,0.0,0.0,0.0,0.0,0.0,0.0,0.0,0.0,0.0,0.0,0.0,0.0,0.0,0.0,0.0,0.0,0.0,0.0,0.0,0.0,0.0,0.0,0.0,0.0,0.0,0.0,0.0,0.0,0.0,0.0,0.0,0.0,0.0,0.0,0.0,0.0,0.0,0.0,0.0,0.0,0.0,0.0,0.0,0.0,0.0,0.0,0.0,0.0,0.0,0.0,0.0,0.0,0.0,0.0,0.0,0.0,0.0,0.0,0.0,0.0,0.0,0.0,0.0,0.0,0.0,0.0,0.0,0.0,0.0,0.0,0.0,0.0,0.0,0.0,0.0,0.0,0.0,0.0,0.0,0.0,0.0,0.0,0.0,0.0,0.0,0.0,0.0,0.0,0.0,0.0,0.0,0.0,0.0,0.0,0.0,0.0,0.0,0.0,0.0,0.0,0.0,0.0,0.0,0.0,0.0,0.0,0.0,0.0,0.0,0.0,0.0,0.0,0.0,0.0,0.0,0.0,0.0,0.0,0.0,0.0,0.0,0.0,0.0,0.0,0.0,0.0,0.0,0.0,0.0,0.0,0.0,0.0,0.0,0.0,0.0,0.0,0.0,0.0,0.0,0.0,0.0,0.0,0.0,0.0,0.0,0.0,0.0,0.0,0.0,0.0,0.0,0.0,0.0,0.0,0.0,0.0,0.0,0.0,0.0,0.0,0.0,0.0,0.0,0.0,0.0,0.0,0.0,0.0,0.0,0.0,0.0,0.0,0.0,0.0,0.0,0.0,0.0,0.0,0.0,0.0,0.0,0.0,0.0,0.0,0.0,0.0,0.0,0.0,0.0,0.0,0.0,0.0,0.0,0.0,0.0,0.0,0.0,0.0,0.0,0.0,0.0,0.0,0.0,0.0,0.0,0.0,0.0,0.0,0.0,0.0,0.0,0.0,0.0,0.0,0.0,0.0,0.0,0.0,0.0,0.0,0.0,0.0,0.0,0.0,0.0,0.0,0.0,0.0,0.0,0.0,0.0,0.0,0.0,0.0,0.0,0.0,0.0,0.0,0.0,0.0,0.0,0.0,0.0,0.0,0.0,0.0,0.0,0.0,0.0,0.0,0.0,0.0,0.0,0.0,0.0,0.0,0.0,0.0,0.0,0.0,0.0,0.0,0.0,0.0,0.0,0.0,0.0,0.0,0.0,0.0,0.0,0.0,0.0,0.0,0.0,0.0,0.0,0.0,0.0,0.0,0.0,0.0,0.0,0.0,0.0,0.0,0.0,0.0,0.0,0.0,0.0,0.0,0.0,0.0,0.0,0.0,0.0,0.0,0.0,0.0,0.0,0.0,0.0,0.0,0.0,0.0,0.0,0.0,0.0,0.0,0.0,0.0,0.0,0.0,0.0,0.0,0.0,0.0,0.0,0.0,0.0,0.0,0.0,0.0,0.0,0.0,0.0,0.0,0.0,0.0,0.0,0.0,0.0,0.0,0.0,0.0,0.0,0.0,0.0,0.0,0.0,0.0,0.0,0.0,0.0,0.0,0.0,0.0,0.0,0.0,0.0,0.0,0.0,0.0,0.0,0.0,0.0,0.0,0.0,0.0,0.0,0.0,0.0,0.0,0.0,0.0,0.0,0.0,0.0,0.0,0.0,0.0,0.0,0.0,0.0,0.0,0.0,0.0,0.0,0.0,0.0,0.0,0.0,0.0,0.0,0.0,0.0,0.0,0.0,0.0,0.0,0.0,0.0,0.0,0.0,0.0,0.0,0.0,0.0,0.0,0.0,0.0,0.0,0.0,0.0,0.0,0.0,0.0,0.0,0.0,0.0,0.0,0.0,0.0,0.0,0.0,0.0,0.0,0.0,0.0,0.0,0.0,0.0,0.0,0.0,0.0,0.0,0.0,0.0,0.0,0.0,0.0,0.0,0.0,0.0,0.0,0.0,0.0,0.0,0.0,0.0,0.0,0.0,0.0,0.0,0.0,0.0,0.0,0.0,0.0,0.0,0.0,0.0,0.0,0.0,0.0,0.0,0.0,0.0,0.0,0.0,0.0,0.0,0.0,0.0,0.0,0.0,0.0,0.0,0.0,0.0,0.0,0.0,0.0,0.0,0.0,0.0,0.0,0.0,0.0,0.0,0.0,0.0,0.0,0.0,0.0,0.0,0.0,0.0,0.0,0.0,0.0,-4.6453,0.0,0.0,0.0,0.0,0.0,0.0,0.0,0.0,0.0,0.0,0.0,0.0,0.0,0.0,0.0,0.0,0.0,0.0,0.0,0.0,0.0,0.0,0.0,0.0,0.0,0.0,0.0,0.0,0.0,0.0,0.0,0.0,0.0,0.0,0.0,0.0,0.0,0.0,0.0,0.0,0.0,0.0,0.0,0.0,0.0,0.0,0.0,0.0,0.0,0.0,0.0,0.0,0.0,0.0,0.0,0.0,0.0,0.0,0.0,0.0,0.0,0.0,0.0,0.0,0.0,0.0,0.0,0.0,0.0,0.0,0.0,0.0,0.0,0.0,0.0,0.0,0.0,0.0,0.0,0.0,0.0,0.0,0.0,0.0,0.0,0.0,0.0,0.0,0.0,0.0,0.0,0.0,0.0,0.0,0.0,0.0,0.0,0.0,0.0,0.0,0.0,0.0,0.0,0.0,0.0,0.0,0.0,0.0,0.0,0.0,-4.5486,-4.5458,-4.5955,-4.6411,-4.6844,0.0,0.0,0.0,0.0,0.0,0.0,0.0,0.0,0.0,0.0,0.0,0.0,0.0,0.0,0.0,0.0,0.0,0.0,0.0,0.0,0.0,0.0,0.0,0.0,0.0,0.0,0.0,0.0,0.0,0.0,0.0,0.0,0.0,0.0,0.0,0.0,0.0,0.0,0.0,0.0,0.0,0.0,0.0,0.0,0.0,0.0,0.0,0.0,0.0,0.0,0.0,0.0,0.0,0.0,0.0,0.0,0.0,0.0,0.0,0.0,0.0,0.0,0.0,0.0,0.0,0.0,0.0,0.0,0.0,0.0,0.0,0.0,0.0,0.0,0.0,0.0,0.0,0.0,0.0,0.0,0.0,0.0,0.0,0.0,0.0,0.0,0.0,0.0,0.0,0.0,0.0,0.0,0.0,0.0,0.0,0.0,0.0,0.0,0.0,0.0,0.0,0.0,0.0,0.0,0.0,0.0,0.0,0.0,0.0,0.0,0.0,0.0,-4.67,-4.7201,-4.7648,0.0,0.0,0.0,0.0,0.0,0.0,0.0,0.0,0.0,0.0,0.0,0.0,0.0,0.0,0.0,0.0,0.0,0.0,0.0,0.0,0.0,0.0,0.0,0.0,0.0,0.0,0.0,0.0,0.0,0.0,0.0,0.0,0.0,0.0,0.0,0.0,0.0,0.0,0.0,0.0,0.0,0.0,0.0,0.0,0.0,0.0,0.0,0.0,0.0,0.0,0.0,0.0,0.0,0.0,0.0,0.0,0.0,0.0,0.0,0.0,0.0,0.0,0.0,0.0,0.0,0.0,0.0,0.0,0.0,0.0,0.0,0.0,0.0,0.0,0.0,0.0,0.0,0.0,0.0,0.0,0.0,0.0,0.0,0.0,0.0,0.0,0.0,0.0,0.0,0.0,0.0,0.0,0.0,0.0,0.0,0.0,0.0,0.0,0.0,0.0,0.0,0.0,0.0,0.0,0.0,0.0,0.0,0.0,0.0,0.0,-4.661,-4.8161,-4.7553,0.0,-4.9445,0.0,0.0,0.0,0.0,0.0,0.0,0.0,0.0,0.0,0.0,0.0,0.0,0.0,0.0,0.0,0.0,0.0,0.0,0.0,0.0,0.0,0.0,0.0,0.0,0.0,0.0,0.0,0.0,0.0,0.0,0.0,0.0,0.0,0.0,0.0,0.0,0.0,0.0,0.0,0.0,0.0,0.0,0.0,0.0,0.0,0.0,0.0,0.0,0.0,0.0,0.0,0.0,0.0,0.0,0.0,0.0,0.0,0.0,0.0,0.0,0.0,0.0,0.0,0.0,0.0,0.0,0.0,0.0,0.0,0.0,0.0,0.0,0.0,0.0,0.0,0.0,0.0,0.0,0.0,0.0,0.0,0.0,0.0,0.0,0.0,0.0,0.0,0.0,0.0,0.0,0.0,0.0,0.0,0.0,0.0,0.0,0.0,0.0,0.0,0.0,0.0,0.0,0.0,0.0,0.0,0.0,0.0,0.0,0.0,0.0,-4.7844,-4.8545,-4.8752,-4.9458,0.0,0.0,0.0,0.0,0.0,0.0,0.0,0.0,0.0,0.0,0.0,0.0,0.0,0.0,0.0,0.0,0.0,0.0,0.0,0.0,0.0,0.0,0.0,0.0,0.0,0.0,0.0,0.0,0.0,0.0,0.0,0.0,0.0,0.0,0.0,0.0,0.0,0.0,0.0,0.0,0.0,0.0,0.0,0.0,0.0,0.0,0.0,0.0,0.0,0.0,0.0,0.0,0.0,0.0,0.0,0.0,0.0,0.0,0.0,0.0,0.0,0.0,0.0,0.0,0.0,0.0,0.0,0.0,0.0,0.0,0.0,0.0,0.0,0.0,0.0,0.0,0.0,0.0,0.0,0.0,0.0,0.0,0.0,0.0,0.0,0.0,0.0,0.0,0.0,0.0,0.0,0.0,0.0,0.0,0.0,0.0,0.0,0.0,0.0,0.0,0.0,0.0,0.0,0.0,0.0,0.0,0.0,0.0,0.0,0.0,-4.8831,-4.8792,-4.9025,-4.99,-5.0683,-5.1307,0.0,0.0,0.0,0.0,0.0,0.0,0.0,0.0,0.0,0.0,0.0,0.0,0.0,0.0,0.0,0.0,0.0,0.0,0.0,0.0,0.0,0.0,0.0,0.0,0.0,0.0,0.0,0.0,0.0,0.0,0.0,0.0,0.0,0.0,0.0,0.0,0.0,0.0,0.0,0.0,0.0,0.0,0.0,0.0,0.0,0.0,0.0,0.0,0.0,0.0,0.0,0.0,0.0,0.0,0.0,0.0,0.0,0.0,0.0,0.0,0.0,0.0,0.0,0.0,0.0,0.0,0.0,0.0,0.0,0.0,0.0,0.0,0.0,0.0,0.0,0.0,0.0,0.0,0.0,0.0,0.0,0.0,0.0,0.0,0.0,0.0,0.0,0.0,0.0,0.0,0.0,0.0,0.0,0.0,0.0,0.0,0.0,0.0,0.0,0.0,0.0,0.0,0.0,0.0,0.0,0.0,0.0,0.0,-4.998,-4.9295,-4.9264,-5.0002,-5.0867,-5.1355,0.0,0.0,0.0,0.0,0.0,0.0,0.0,0.0,0.0,0.0,0.0,0.0,0.0,0.0,0.0,0.0,0.0,0.0,0.0,0.0,0.0,0.0,0.0,0.0,0.0,0.0,0.0,0.0,0.0,0.0,0.0,0.0,0.0,0.0,0.0,0.0,0.0,0.0,0.0,0.0,0.0,0.0,0.0,0.0,0.0,0.0,0.0,0.0,0.0,0.0,0.0,0.0,0.0,0.0,0.0,0.0,0.0,0.0,0.0,0.0,0.0,0.0,0.0,0.0,0.0,0.0,0.0,0.0,0.0,0.0,0.0,0.0,0.0,0.0,0.0,0.0,0.0,0.0,0.0,0.0,0.0,0.0,0.0,0.0,0.0,0.0,0.0,0.0,0.0,0.0,0.0,0.0,0.0,0.0,0.0,0.0,0.0,0.0,0.0,0.0,0.0,0.0,0.0,0.0,0.0,0.0,0.0,0.0,0.0,-5.0911,-5.0658,-5.0608,-5.0885,-5.109,-5.1206,0.0,0.0,0.0,0.0,0.0,0.0,0.0,0.0,0.0,0.0,0.0,0.0,0.0,0.0,0.0,0.0,0.0,0.0,0.0,0.0,0.0,0.0,0.0,0.0,0.0,0.0,0.0,0.0,0.0,0.0,0.0,0.0,0.0,0.0,0.0,0.0,0.0,0.0,0.0,0.0,0.0,0.0,0.0,0.0,0.0,0.0,0.0,0.0,0.0,0.0,0.0,0.0,0.0,0.0,0.0,0.0,0.0,0.0,0.0,0.0,0.0,0.0,0.0,0.0,0.0,0.0,0.0,0.0,0.0,0.0,0.0,0.0,0.0,0.0,0.0,0.0,0.0,0.0,0.0,0.0,0.0,0.0,0.0,0.0,0.0,0.0,0.0,0.0,0.0,0.0,0.0,0.0,0.0,0.0,0.0,0.0,0.0,0.0,0.0,0.0,0.0,0.0,0.0,0.0,0.0,0.0,0.0,0.0,0.0,-5.1396,0.0,-5.13,-5.1205,-5.1116,-5.1053,0.0,0.0,0.0,0.0,0.0,0.0,0.0,0.0,0.0,0.0,0.0,0.0,0.0,0.0,0.0,0.0,0.0,0.0,0.0,0.0,0.0,0.0,0.0,0.0,0.0,0.0,0.0,0.0,0.0,0.0,0.0,0.0,0.0,0.0,0.0,0.0,0.0,0.0,0.0,0.0,0.0,0.0,0.0,0.0,0.0,0.0,0.0,0.0,0.0,0.0,0.0,0.0,0.0,0.0,0.0,0.0,0.0,0.0,0.0,0.0,0.0,0.0,0.0,0.0,0.0,0.0,0.0,0.0,0.0,0.0,0.0,0.0,0.0,0.0,0.0,0.0,0.0,0.0,0.0,0.0,0.0,0.0,0.0,0.0,0.0,0.0,0.0,0.0,0.0,0.0,0.0,0.0,0.0,0.0,0.0,0.0,0.0,0.0,0.0,0.0,0.0,0.0,0.0,0.0,0.0,0.0,0.0,0.0,-5.1392,-5.1394,-5.128,-5.1136,-5.1004,-5.0992,-5.0919,0.0,0.0,0.0,0.0,0.0,0.0,0.0,0.0,0.0,0.0,0.0,0.0,0.0,0.0,0.0,0.0,0.0,0.0,0.0,0.0,0.0,0.0,0.0,0.0,0.0,0.0,0.0,0.0,0.0,0.0,0.0,0.0,0.0,0.0,0.0,0.0,0.0,0.0,0.0,0.0,0.0,0.0,0.0,0.0,0.0,0.0,0.0,0.0,0.0,0.0,0.0,0.0,0.0,0.0,0.0,0.0,0.0,0.0,0.0,0.0,0.0,0.0,0.0,0.0,0.0,0.0,0.0,0.0,0.0,0.0,0.0,0.0,0.0,0.0,0.0,0.0,0.0,0.0,0.0,0.0,0.0,0.0,0.0,0.0,0.0,0.0,0.0,0.0,0.0,0.0,0.0,0.0,0.0,0.0,0.0,0.0,0.0,0.0,0.0,0.0,0.0,0.0,0.0,0.0,0.0,0.0,0.0,0.0,0.0,-5.1252,-5.123,-5.1074,-5.0794,-5.0703,-5.0548,0.0,0.0,0.0,0.0,0.0,0.0,0.0,0.0,0.0,0.0,0.0,0.0,0.0,0.0,0.0,0.0,0.0,0.0,0.0,0.0,0.0,0.0,0.0,0.0,0.0,0.0,0.0,0.0,0.0,0.0,0.0,0.0,0.0,0.0,0.0,0.0,0.0,0.0,0.0,0.0,0.0,0.0,0.0,0.0,0.0,0.0,0.0,0.0,0.0,0.0,0.0,0.0,0.0,0.0,0.0,0.0,0.0,0.0,0.0,0.0,0.0,0.0,0.0,0.0,0.0,0.0,0.0,0.0,0.0,0.0,0.0,0.0,0.0,0.0,0.0,0.0,0.0,0.0,0.0,0.0,0.0,0.0,0.0,0.0,0.0,0.0,0.0,0.0,0.0,0.0,0.0,0.0,0.0,0.0,0.0,0.0,0.0,0.0,0.0,0.0,0.0,0.0,0.0,0.0,0.0,0.0,0.0,0.0,0.0,-5.0933,-5.0939,-5.0782,-5.0481,-5.0398,-5.026,-5.0012,0.0,0.0,0.0,0.0,0.0,0.0,0.0,0.0,0.0,0.0,0.0,0.0,0.0,0.0,0.0,0.0,0.0,0.0,0.0,0.0,0.0,0.0,0.0,0.0,0.0,0.0,0.0,0.0,0.0,0.0,0.0,0.0,0.0,0.0,0.0,0.0,0.0,0.0,0.0,0.0,0.0,0.0,0.0,0.0,0.0,0.0,0.0,0.0,0.0,0.0,0.0,0.0,0.0,0.0,0.0,0.0,0.0,0.0,0.0,0.0,0.0,0.0,0.0,0.0,0.0,0.0,0.0,0.0,0.0,0.0,0.0,0.0,0.0,0.0,0.0,0.0,0.0,0.0,0.0,0.0,0.0,0.0,0.0,0.0,0.0,0.0,0.0,0.0,0.0,0.0,0.0,0.0,0.0,0.0,0.0,0.0,0.0,0.0,0.0,0.0,0.0,0.0,0.0,0.0,0.0,0.0,0.0,0.0,-5.0471,-5.0461,-5.0327,-5.0104,-5.008,-5.0,0.0,0.0,0.0,0.0,0.0,0.0,0.0,0.0,0.0,0.0,0.0,0.0,0.0,0.0,0.0,0.0,0.0,0.0,0.0,0.0,0.0,0.0,0.0,0.0,0.0,0.0,0.0,0.0,0.0,0.0,0.0,0.0,0.0,0.0,0.0,0.0,0.0,0.0,0.0,0.0,0.0,0.0,0.0,0.0,0.0,0.0,0.0,0.0,0.0,0.0,0.0,0.0,0.0,0.0,0.0,0.0,0.0,0.0,0.0,0.0,0.0,0.0,0.0,0.0,0.0,0.0,0.0,0.0,0.0,0.0,0.0,0.0,0.0,0.0,0.0,0.0,0.0,0.0,0.0,0.0,0.0,0.0,0.0,0.0,0.0,0.0,0.0,0.0,0.0,0.0,0.0,0.0,0.0,0.0,0.0,0.0,0.0,0.0,0.0,0.0,0.0,0.0,0.0,0.0,0.0,0.0,0.0,0.0,0.0,-5.0191,-5.0019,-4.9916,-4.9962,-4.9891,-4.98,0.0,0.0,0.0,0.0,0.0,0.0,0.0,0.0,0.0,0.0,0.0,0.0,0.0,0.0,0.0,0.0,0.0,0.0,0.0,0.0,0.0,0.0,0.0,0.0,0.0,0.0,0.0,0.0,0.0,0.0,0.0,0.0,0.0,0.0,0.0,0.0,0.0,0.0,0.0,0.0,0.0,0.0,0.0,0.0,0.0,0.0,0.0,0.0,0.0,0.0,0.0,0.0,0.0,0.0,0.0,0.0,0.0,0.0,0.0,0.0,0.0,0.0,0.0,0.0,0.0,0.0,0.0,0.0,0.0,0.0,0.0,0.0,0.0,0.0,0.0,0.0,0.0,0.0,0.0,0.0,0.0,0.0,0.0,0.0,0.0,0.0,0.0,0.0,0.0,0.0,0.0,0.0,0.0,0.0,0.0,0.0,0.0,0.0,0.0,0.0,0.0,0.0,0.0,0.0,0.0,0.0,0.0,0.0,-5.005,-4.9948,-4.9769,-4.9717,-4.9736,-4.9693,-4.963,0.0,0.0,0.0,0.0,0.0,0.0,0.0,0.0,0.0,0.0,0.0,0.0,0.0,0.0,0.0,0.0,0.0,0.0,0.0,0.0,0.0,0.0,0.0,0.0,0.0,0.0,0.0,0.0,0.0,0.0,0.0,0.0,0.0,0.0,0.0,0.0,0.0,0.0,0.0,0.0,0.0,0.0,0.0,0.0,0.0,0.0,0.0,0.0,0.0,0.0,0.0,0.0,0.0,0.0,0.0,0.0,0.0,0.0,0.0,0.0,0.0,0.0,0.0,0.0,0.0,0.0,0.0,0.0,0.0,0.0,0.0,0.0,0.0,0.0,0.0,0.0,0.0,0.0,0.0,0.0,0.0,0.0,0.0,0.0,0.0,0.0,0.0,0.0,0.0,0.0,0.0,0.0,0.0,0.0,0.0,0.0,0.0,0.0,0.0,0.0,0.0,0.0,0.0,0.0,0.0,0.0,0.0,0.0,-4.9952,-4.9726,-4.9678,-4.9623,-4.949,-4.9509,-4.9509,0.0,0.0,0.0,0.0,0.0,0.0,0.0,0.0,0.0,0.0,0.0,0.0,0.0,0.0,0.0,0.0,0.0,0.0,0.0,0.0,0.0,0.0,0.0,0.0,0.0,0.0,0.0,0.0,0.0,0.0,0.0,0.0,0.0,0.0,0.0,0.0,0.0,0.0,0.0,0.0,0.0,0.0,0.0,0.0,0.0,0.0,0.0,0.0,0.0,0.0,0.0,0.0,0.0,0.0,0.0,0.0,0.0,0.0,0.0,0.0,0.0,0.0,0.0,0.0,0.0,0.0,0.0,0.0,0.0,0.0,0.0,0.0,0.0,0.0,0.0,0.0,0.0,0.0,0.0,0.0,0.0,0.0,0.0,0.0,0.0,0.0,0.0,0.0,0.0,0.0,0.0,0.0,0.0,0.0,0.0,0.0,0.0,0.0,0.0,0.0,0.0,0.0,0.0,0.0,0.0,0.0,0.0,0.0,-4.9871,-4.9707,-4.9612,-4.9521,-4.949,-4.9509,-4.9509,0.0,0.0,0.0,0.0,0.0,0.0,0.0,0.0,0.0,0.0,0.0,0.0,0.0,0.0,0.0,0.0,0.0,0.0,0.0,0.0,0.0,0.0,0.0,0.0,0.0,0.0,0.0,0.0,0.0,0.0,0.0,0.0,0.0,0.0,0.0,0.0,0.0,0.0,0.0,0.0,0.0,0.0,0.0,0.0,0.0,0.0,0.0,0.0,-4.9532,0.0,0.0,0.0,0.0,0.0,0.0,0.0,0.0,0.0,0.0,0.0,0.0,0.0,0.0,0.0,0.0,0.0,0.0,0.0,0.0,0.0,0.0,0.0,0.0,0.0,0.0,0.0,0.0,0.0,0.0,0.0,0.0,0.0,0.0,0.0,0.0,0.0,0.0,0.0,0.0,0.0,0.0,0.0,0.0,0.0,0.0,0.0,0.0,0.0,0.0,0.0,0.0,0.0,0.0,0.0,0.0,0.0,0.0,0.0,-4.975,-4.9608,-4.9536,-4.9509,-4.9509,-4.9509,-4.9509,0.0,0.0,0.0,0.0,0.0,0.0,0.0,0.0,0.0,0.0,0.0,0.0,0.0,0.0,0.0,0.0,0.0,0.0,0.0,0.0,0.0,0.0,0.0,0.0,0.0,0.0,0.0,0.0,0.0,0.0,0.0,0.0,0.0,0.0,0.0,0.0,0.0,0.0,0.0,0.0,0.0,0.0,0.0,0.0,0.0,0.0,0.0,0.0,0.0,0.0,0.0,0.0,0.0,0.0,0.0,0.0,0.0,0.0,0.0,0.0,0.0,0.0,0.0,0.0,0.0,0.0,0.0,0.0,0.0,0.0,0.0,0.0,0.0,0.0,0.0,0.0,0.0,0.0,0.0,0.0,0.0,0.0,0.0,0.0,0.0,0.0,0.0,0.0,0.0,0.0,0.0,0.0,0.0,0.0,0.0,0.0,0.0,0.0,0.0,0.0,0.0,0.0,0.0,0.0,0.0,0.0,0.0,-4.9745,-4.9638,-4.9505,-4.9509,-4.9509,-4.9509,-4.9509,-4.9474,-4.9427,0.0,0.0,0.0,0.0,0.0,0.0,0.0,0.0,0.0,0.0,0.0,0.0,0.0,0.0,0.0,0.0,0.0,0.0,0.0,0.0,0.0,0.0,0.0,0.0,0.0,0.0,0.0,0.0,0.0,0.0,0.0,0.0,0.0,0.0,0.0,0.0,0.0,0.0,-4.7886,-4.8629,0.0,0.0,0.0,0.0,0.0,0.0,0.0,0.0,-4.8274,0.0,0.0,0.0,0.0,0.0,0.0,0.0,0.0,0.0,0.0,0.0,0.0,0.0,0.0,0.0,0.0,0.0,0.0,0.0,0.0,0.0,0.0,0.0,0.0,0.0,0.0,0.0,0.0,0.0,0.0,0.0,0.0,0.0,0.0,0.0,0.0,0.0,0.0,0.0,0.0,0.0,0.0,0.0,0.0,0.0,0.0,0.0,0.0,0.0,0.0,0.0,0.0,0.0,0.0,0.0,0.0,-4.975,-4.9707,-4.9638,-4.949,-4.9509,-4.9509,-4.9509,-4.9509,-4.938,-4.9077,0.0,0.0,0.0,0.0,0.0,0.0,0.0,0.0,0.0,0.0,0.0,0.0,0.0,0.0,0.0,0.0,0.0,0.0,0.0,0.0,0.0,0.0,0.0,0.0,0.0,0.0,0.0,0.0,0.0,0.0,0.0,0.0,0.0,0.0,0.0,0.0,0.0,0.0,0.0,-4.6652,-4.6879,0.0,0.0,0.0,0.0,0.0,0.0,0.0,0.0,-4.6906,0.0,0.0,0.0,0.0,0.0,0.0,0.0,0.0,0.0,0.0,0.0,0.0,0.0,0.0,0.0,0.0,0.0,0.0,0.0,0.0,0.0,0.0,0.0,0.0,0.0,0.0,0.0,0.0,0.0,0.0,0.0,0.0,0.0,0.0,0.0,0.0,0.0,0.0,0.0,0.0,0.0,0.0,0.0,0.0,0.0,0.0,0.0,0.0,0.0,0.0,0.0,0.0,0.0,0.0,0.0,-4.9707,-4.9638,-4.9567,-4.949,-4.9509,-4.9509,-4.949,-4.9027,-4.888,0.0,0.0,0.0,0.0,0.0,0.0,0.0,0.0,0.0,0.0,0.0,0.0,0.0,0.0,0.0,0.0,0.0,0.0,0.0,0.0,0.0,0.0,0.0,0.0,0.0,0.0,0.0,0.0,0.0,0.0,0.0,0.0,0.0,0.0,0.0,0.0,0.0,0.0,0.0,0.0,-4.5529,-4.5992,-4.5828,0.0,0.0,0.0,0.0,0.0,0.0,-4.618,-4.5723,0.0,0.0,0.0,0.0,0.0,0.0,0.0,0.0,0.0,0.0,0.0,0.0,0.0,0.0,0.0,0.0,0.0,0.0,0.0,0.0,0.0,0.0,0.0,0.0,0.0,0.0,0.0,0.0,0.0,0.0,0.0,0.0,0.0,0.0,0.0,0.0,0.0,0.0,0.0,0.0,0.0,0.0,0.0,0.0,0.0,0.0,0.0,0.0,0.0,0.0,0.0,0.0,0.0,0.0,0.0,-4.9648,-4.9551,-4.9509,-4.9509,-4.9509,-4.9415,-4.9227,-4.8509,-4.83,0.0,0.0,0.0,0.0,0.0,0.0,0.0,0.0,0.0,0.0,0.0,0.0,0.0,0.0,0.0,0.0,0.0,0.0,0.0,0.0,0.0,0.0,0.0,0.0,0.0,0.0,0.0,0.0,0.0,0.0,0.0,0.0,0.0,0.0,0.0,0.0,0.0,0.0,0.0,0.0,0.0,-4.5187,-4.4638,-4.5549,0.0,0.0,0.0,0.0,-4.5874,-4.5126,0.0,0.0,0.0,0.0,0.0,0.0,0.0,0.0,0.0,0.0,0.0,0.0,0.0,0.0,0.0,0.0,0.0,0.0,0.0,0.0,0.0,0.0,0.0,0.0,0.0,0.0,0.0,0.0,0.0,0.0,0.0,0.0,0.0,0.0,0.0,0.0,0.0,0.0,0.0,0.0,0.0,0.0,0.0,0.0,0.0,0.0,0.0,0.0,0.0,0.0,0.0,0.0,0.0,0.0,0.0,0.0,-4.9536,-4.9505,-4.9509,-4.9509,-4.9509,-4.9133,-4.8363,-4.8251,-4.7754,0.0,0.0,0.0,0.0,0.0,0.0,0.0,0.0,0.0,0.0,0.0,0.0,0.0,0.0,0.0,0.0,0.0,0.0,0.0,0.0,0.0,0.0,0.0,0.0,0.0,0.0,0.0,0.0,0.0,0.0,0.0,0.0,0.0,0.0,0.0,0.0,0.0,0.0,0.0,0.0,0.0,-4.3834,-4.427,-4.4469,-4.4813,0.0,0.0,-4.4007,-4.3625,-4.3336,0.0,0.0,0.0,0.0,0.0,0.0,0.0,0.0,0.0,0.0,0.0,0.0,0.0,0.0,0.0,0.0,0.0,0.0,0.0,0.0,0.0,0.0,0.0,0.0,0.0,0.0,0.0,0.0,0.0,0.0,0.0,0.0,0.0,0.0,0.0,0.0,0.0,0.0,0.0,0.0,0.0,0.0,0.0,0.0,0.0,0.0,0.0,0.0,0.0,0.0,0.0,0.0,0.0,0.0,0.0,-4.9778,-4.9505,-4.9509,-4.9509,-4.949,-4.902,-4.8589,-4.8228,-4.7249,-4.6705,0.0,0.0,0.0,0.0,0.0,0.0,0.0,0.0,0.0,0.0,0.0,0.0,0.0,0.0,0.0,0.0,0.0,0.0,0.0,0.0,0.0,0.0,0.0,0.0,0.0,0.0,0.0,0.0,0.0,0.0,0.0,0.0,0.0,0.0,0.0,0.0,0.0,0.0,0.0,0.0,0.0,0.0,-4.3179,-4.3315,0.0,0.0,0.0,-4.297,-4.2718,0.0,0.0,0.0,0.0,0.0,0.0,0.0,0.0,0.0,0.0,0.0,0.0,0.0,0.0,0.0,0.0,0.0,0.0,0.0,0.0,0.0,0.0,0.0,0.0,0.0,0.0,0.0,0.0,0.0,0.0,0.0,0.0,0.0,0.0,0.0,0.0,0.0,0.0,0.0,0.0,0.0,0.0,0.0,0.0,0.0,0.0,0.0,0.0,0.0,0.0,0.0,0.0,0.0,0.0,0.0,0.0,0.0,-4.949,-4.9283,-4.9189,-4.9152,-4.8345,-4.78,-4.7556,-4.6315,0.0,0.0,0.0,0.0,0.0,0.0,0.0,0.0,0.0,0.0,0.0,0.0,0.0,0.0,0.0,0.0,0.0,0.0,0.0,0.0,0.0,0.0,0.0,0.0,0.0,0.0,0.0,-4.3479,0.0,0.0,0.0,0.0,0.0,0.0,0.0,0.0,0.0,0.0,0.0,0.0,0.0,0.0,-4.2338,-4.2198,-4.2277,-4.2296,0.0,0.0,-4.2015,-4.1816,-4.1099,-4.057,0.0,0.0,0.0,0.0,0.0,0.0,0.0,0.0,0.0,0.0,0.0,0.0,0.0,0.0,0.0,0.0,0.0,0.0,0.0,0.0,0.0,0.0,0.0,0.0,0.0,0.0,0.0,0.0,0.0,0.0,0.0,0.0,0.0,0.0,0.0,0.0,0.0,0.0,0.0,0.0,0.0,0.0,0.0,0.0,0.0,0.0,0.0,0.0,0.0,0.0,0.0,0.0,0.0,0.0,0.0,-4.9487,-4.8701,-4.8288,-4.8269,-4.75,-4.6692,-4.5885,-4.5754,-4.5345,0.0,0.0,0.0,0.0,0.0,0.0,0.0,0.0,0.0,0.0,0.0,0.0,0.0,0.0,0.0,0.0,0.0,0.0,0.0,0.0,0.0,0.0,0.0,0.0,0.0,0.0,0.0,0.0,0.0,0.0,0.0,0.0,0.0,0.0,0.0,0.0,0.0,0.0,0.0,0.0,0.0,-4.2198,-4.1635,-4.1468,-4.1391,0.0,0.0,-4.0782,-4.0402,-4.0121,-3.9833,-3.9494,0.0,0.0,0.0,0.0,0.0,0.0,0.0,0.0,0.0,0.0,0.0,0.0,0.0,0.0,0.0,0.0,0.0,0.0,0.0,0.0,0.0,0.0,0.0,0.0,0.0,0.0,0.0,0.0,0.0,0.0,0.0,0.0,0.0,0.0,0.0,0.0,0.0,0.0,0.0,0.0,0.0,0.0,0.0,0.0,0.0,0.0,0.0,0.0,0.0,0.0,0.0,0.0,0.0,-4.8886,-4.8698,-4.7875,-4.7462,-4.7425,-4.6617,-4.6035,-4.5697,-4.5228,-4.4834,0.0,0.0,0.0,0.0,0.0,0.0,0.0,0.0,0.0,0.0,0.0,0.0,0.0,0.0,0.0,0.0,0.0,0.0,0.0,0.0,0.0,0.0,0.0,0.0,0.0,0.0,0.0,0.0,-4.3463,-4.3411,-4.3304,0.0,0.0,0.0,0.0,0.0,0.0,0.0,0.0,0.0,0.0,-4.1789,-4.1649,-4.1322,0.0,0.0,-4.1035,-4.0592,-4.034,-3.9874,-3.9468,-3.9325,-3.9315,0.0,0.0,0.0,0.0,0.0,0.0,0.0,0.0,0.0,0.0,0.0,0.0,0.0,0.0,0.0,0.0,0.0,0.0,0.0,0.0,0.0,0.0,0.0,0.0,0.0,0.0,0.0,0.0,0.0,0.0,0.0,0.0,0.0,0.0,0.0,0.0,0.0,0.0,0.0,0.0,0.0,0.0,0.0,0.0,0.0,0.0,0.0,0.0,0.0,0.0,0.0,0.0,-4.8338,-4.8176,-4.7143,-4.6617,-4.6617,-4.5772,-4.5341,-4.5322,-4.4801,-4.4482,0.0,0.0,0.0,0.0,0.0,0.0,0.0,0.0,0.0,0.0,0.0,0.0,0.0,0.0,0.0,0.0,0.0,0.0,0.0,0.0,0.0,0.0,0.0,0.0,0.0,0.0,0.0,0.0,-4.3394,-4.3286,-4.3214,0.0,0.0,0.0,0.0,0.0,0.0,0.0,0.0,0.0,0.0,-4.1609,-4.1501,-4.1364,-4.1389,-4.1677,-4.1028,-4.0491,-4.0409,-3.9779,-3.9228,-3.9023,0.0,0.0,0.0,0.0,0.0,0.0,0.0,0.0,0.0,0.0,0.0,0.0,0.0,0.0,0.0,0.0,0.0,0.0,0.0,0.0,0.0,0.0,0.0,0.0,0.0,0.0,0.0,0.0,0.0,0.0,-5.1334,0.0,0.0,0.0,0.0,0.0,0.0,0.0,0.0,0.0,0.0,0.0,0.0,0.0,0.0,0.0,0.0,0.0,0.0,0.0,0.0,0.0,0.0,-4.8286,-4.8172,-4.6542,-4.5716,-4.5716,-4.4946,-4.4538,-4.4538,-4.4501,-4.4482,-4.4482,0.0,0.0,0.0,0.0,0.0,0.0,0.0,0.0,0.0,0.0,0.0,0.0,0.0,0.0,0.0,0.0,0.0,0.0,0.0,0.0,0.0,0.0,0.0,0.0,0.0,0.0,-4.3376,-4.3287,-4.3214,0.0,0.0,0.0,0.0,0.0,0.0,0.0,0.0,0.0,0.0,-4.1464,-4.1677,-4.1133,-4.1516,-4.1849,-4.1766,-4.1006,-4.0409,-4.0398,-3.9769,-3.9077,0.0,0.0,0.0,0.0,0.0,0.0,0.0,0.0,0.0,0.0,0.0,0.0,0.0,0.0,0.0,0.0,0.0,0.0,0.0,0.0,0.0,0.0,0.0,0.0,0.0,0.0,0.0,-5.1394,-5.1394,0.0,0.0,0.0,0.0,0.0,0.0,0.0,0.0,0.0,0.0,0.0,-4.7685,-4.7952,0.0,0.0,0.0,0.0,0.0,0.0,0.0,0.0,0.0,0.0,0.0,0.0,-4.66,-4.6486,-4.5472,-4.4895,-4.4895,-4.4632,-4.4482,-4.4482,-4.4482,-4.4482,-4.4501,0.0,0.0,0.0,0.0,0.0,0.0,0.0,0.0,0.0,0.0,0.0,0.0,0.0,0.0,0.0,0.0,0.0,0.0,0.0,0.0,0.0,0.0,0.0,0.0,0.0,-4.3251,0.0,0.0,0.0,0.0,0.0,0.0,0.0,0.0,0.0,0.0,0.0,-4.1868,-4.1553,-4.1653,-4.1903,-4.227,-4.2384,-4.2549,0.0,0.0,0.0,0.0,0.0,0.0,0.0,0.0,0.0,0.0,0.0,0.0,0.0,0.0,-3.5261,-3.5115,-3.51,-3.5067,-3.5001,0.0,0.0,0.0,0.0,0.0,0.0,0.0,0.0,0.0,0.0,0.0,0.0,0.0,0.0,-5.1238,0.0,-5.0945,0.0,0.0,0.0,0.0,0.0,0.0,0.0,0.0,-4.6882,-4.7256,-4.7364,-4.8141,-4.8865,0.0,-4.9522,-4.9652,0.0,0.0,0.0,0.0,0.0,0.0,0.0,0.0,-4.5679,-4.566,-4.4909,-4.4482,-4.4482,-4.4482,-4.4482,-4.4482,-4.4482,-4.4482,-4.4482,-4.4079,-4.3841,0.0,0.0,0.0,0.0,0.0,0.0,0.0,0.0,0.0,0.0,0.0,0.0,0.0,0.0,0.0,0.0,0.0,0.0,0.0,0.0,0.0,0.0,0.0,-4.3142,0.0,0.0,0.0,0.0,0.0,0.0,0.0,0.0,0.0,-4.1276,-4.1593,-4.176,-4.1626,-4.1955,-4.2375,-4.2825,0.0,0.0,0.0,0.0,0.0,0.0,0.0,-3.7764,-3.7161,-3.7041,-3.6845,-3.6196,-3.5765,-3.5407,-3.5133,0.0,0.0,-3.492,-3.4902,-3.4902,-3.485,-3.485,-3.4735,-3.4356,-3.4235,-3.3962,0.0,0.0,0.0,0.0,0.0,0.0,0.0,0.0,-5.1355,-5.0887,0.0,-5.0085,0.0,0.0,0.0,0.0,0.0,-4.63,0.0,0.0,-4.6991,-4.7641,-4.818,-4.896,-4.967,-5.0237,-5.0206,-4.9805,-4.9091,-4.9033,0.0,0.0,0.0,0.0,0.0,0.0,-4.5679,-4.5622,-4.4876,-4.4482,-4.4482,-4.4482,-4.4482,-4.4482,-4.4482,-4.4482,-4.4501,-4.4229,-4.4091,-4.4091,-4.3577,0.0,0.0,0.0,0.0,0.0,0.0,0.0,0.0,0.0,0.0,0.0,0.0,0.0,0.0,0.0,0.0,0.0,0.0,0.0,0.0,-4.3086,0.0,0.0,0.0,0.0,0.0,0.0,0.0,0.0,0.0,0.0,-4.0877,-4.1092,-4.1186,-4.1122,0.0,0.0,0.0,0.0,-4.3805,-4.3578,-4.1822,-4.0491,-4.0445,-3.8704,-3.7131,-3.6477,0.0,0.0,-3.5602,-3.5504,-3.5374,-3.4968,-3.4902,-3.4902,-3.4902,-3.4868,-3.485,-3.4731,-3.4664,-3.4332,-3.3485,-3.3248,-3.2967,-5.1345,0.0,0.0,0.0,0.0,-5.1394,-5.1394,-5.1355,-5.0748,-5.0338,-5.0065,-4.944,0.0,0.0,0.0,0.0,0.0,0.0,-4.6607,-4.7196,-4.796,-4.8618,-4.9175,-4.9939,-5.0019,-4.9454,-4.9423,-4.9003,-4.8162,-4.7551,-4.757,-4.8132,0.0,0.0,0.0,0.0,-4.4931,-4.4834,-4.4613,-4.4482,-4.4482,-4.4482,-4.4482,-4.4482,-4.4482,-4.4482,-4.4501,-4.4229,-4.4091,-4.4091,-4.3577,0.0,0.0,0.0,0.0,0.0,0.0,0.0,0.0,0.0,0.0,0.0,0.0,0.0,0.0,0.0,0.0,0.0,0.0,0.0,-4.2975,-4.2956,-4.2938,0.0,0.0,0.0,0.0,0.0,0.0,0.0,0.0,0.0,-4.1154,-4.1349,-4.1818,0.0,0.0,-4.3018,-4.3465,-4.3614,-4.3475,-4.2886,-4.1511,0.0,0.0,-3.7712,-3.6477,-3.5846,-3.5765,-3.5716,-3.5537,-3.5374,-3.5213,-3.492,-3.4817,-3.4716,-3.4582,-3.4534,-3.4549,-3.4448,-3.4045,-3.3555,-3.3262,-3.2791,-3.2146,-5.1267,-5.1366,-5.1398,-5.1389,-5.1402,-5.14,-5.1203,-5.0848,-5.0319,-4.9733,-4.907,-4.8545,-4.7881,-4.71,-4.71,0.0,0.0,0.0,-4.6768,-4.7625,-4.8382,-4.9073,-4.9672,-5.0062,-4.9872,-4.9246,-4.8848,-4.8203,-4.7341,-4.6844,-4.6659,-4.6757,0.0,0.0,-4.5746,-4.5048,-4.4659,-4.4578,-4.4528,-4.4482,-4.4482,-4.4482,-4.4482,-4.4482,-4.4482,-4.4482,-4.4501,-4.4335,-4.4262,-4.4244,-4.3726,-4.346,0.0,0.0,0.0,0.0,0.0,0.0,0.0,0.0,0.0,0.0,0.0,-4.2919,0.0,0.0,0.0,0.0,-4.2919,-4.2919,-4.2919,-4.2919,0.0,0.0,0.0,0.0,0.0,0.0,0.0,-4.127,-4.1469,-4.1733,-4.2008,-4.2155,-4.2424,-4.3043,-4.3158,-4.3319,-4.3726,0.0,-4.2958,-4.2265,-4.075,-3.9342,-3.8277,-3.6924,-3.591,-3.5554,-3.5489,-3.5489,-3.5489,-3.5311,-3.5148,-3.4935,-3.4783,-3.4515,-3.4031,-3.3928,-3.3928,-3.3928,-3.3297,-3.2684,-3.2384,-3.1915,-3.1341,-5.1144,-5.1174,-5.125,-5.1282,-5.1294,-5.1292,-5.0779,-5.0008,-4.9928,-4.9031,-4.7625,-4.7528,-4.7061,-4.6302,-4.6302,0.0,-4.6302,-4.6358,-4.6866,-4.7723,-4.846,-4.9161,-4.9784,-4.9556,-4.9366,-4.926,-4.8355,-4.7463,-4.6637,-4.6608,-4.6167,-4.5337,-4.5181,-4.5114,-4.5091,-4.4846,-4.4719,-4.4706,-4.4592,-4.4524,-4.4542,-4.4542,-4.4542,-4.4528,-4.4528,-4.4515,-4.4482,-4.4501,-4.4482,-4.4468,-4.4017,-4.3728,-4.3712,0.0,0.0,0.0,0.0,0.0,0.0,0.0,0.0,0.0,0.0,0.0,0.0,0.0,0.0,0.0,-4.2919,0.0,-4.2919,-4.2863,0.0,0.0,0.0,-4.2154,-4.2077,-4.1373,-4.114,-4.1763,0.0,0.0,-4.3223,-4.3222,-4.3071,-4.302,-4.3501,-4.3776,-4.3486,-4.289,-4.226,-4.1387,-3.9677,-3.8205,-3.7496,-3.6354,-3.5569,-3.5489,-3.5489,-3.5472,-3.5359,-3.5166,-3.5001,-3.4687,-3.4582,-3.4216,-3.3262,-3.3038,-3.2989,-3.2967,-3.247,-3.1783,-3.118,-3.0895,-3.0532,-5.0763,-5.0228,-5.0249,-5.032,-5.042,-5.0415,-4.9903,-4.9061,-4.8449,-4.7957,-4.7567,-4.6905,-4.6495,-4.6302,-4.6302,-4.6302,-4.6319,-4.7002,-4.7725,-4.8504,-4.8713,-4.9175,-4.9819,-4.9101,-4.8347,-4.7612,-4.7304,-4.6741,-4.596,-4.5818,-4.5668,-4.5458,-4.53,-4.5192,-4.5103,-4.5026,-4.4943,-4.4846,-4.4808,-4.4796,-4.4796,-4.4796,-4.4745,-4.464,-4.464,-4.4605,-4.4496,-4.4482,-4.4482,-4.4501,-4.4185,-4.3999,-4.3999,-4.3511,0.0,0.0,0.0,0.0,0.0,0.0,0.0,0.0,0.0,-4.2919,-4.2919,0.0,-4.2919,0.0,-4.2919,-4.2919,-4.29,-4.2595,0.0,0.0,-4.1952,-4.1543,-4.118,-4.1445,-4.1587,-4.1367,-4.2264,-4.2987,-4.3341,-4.3648,-4.3628,-4.3093,-4.3398,-4.3294,-4.2255,-4.1959,-4.1184,-3.9572,-3.8419,-3.7479,-3.6752,-3.6031,-3.5489,-3.5489,-3.5489,-3.5294,-3.4677,-3.4356,-3.3934,-3.336,-3.296,-3.264,-3.2398,-3.1892,-3.1513,-3.1426,-3.1291,-3.1156,-3.0932,-3.0482,-2.996,-4.9643,-4.9279,-4.9283,-4.9133,-4.8937,-4.9293,-4.8984,-4.8202,-4.7731,-4.7354,-4.6988,-4.6516,-4.6302,-4.6302,-4.6302,-4.6302,-4.6339,-4.6807,-4.7471,-4.825,-4.8257,-4.8661,-4.9375,-4.8419,-4.7692,-4.7167,-4.6726,-4.6247,-4.5794,-4.5711,-4.5653,-4.5593,-4.5448,-4.5341,-4.526,-4.5151,-4.5068,-4.4979,-4.4919,-4.4895,-4.4895,-4.4895,-4.4858,-4.4802,-4.4802,-4.4745,-4.4685,-4.4685,-4.4659,-4.4578,-4.4345,-4.4147,-4.4091,-4.3595,-4.3303,0.0,0.0,0.0,0.0,0.0,0.0,0.0,0.0,0.0,0.0,0.0,-4.2919,-4.2919,-4.2711,-4.2595,-4.2595,-4.2195,-4.1888,-4.1888,-4.1477,-4.1071,-4.0843,-4.0988,-4.1111,-4.1196,-4.1931,-4.2557,-4.2878,-4.3092,-4.306,-4.2557,-4.2398,-4.2029,-4.1235,-4.0634,-3.9708,-3.8294,-3.7494,-3.6814,-3.6096,-3.5748,-3.5489,-3.5489,-3.5489,-3.5246,-3.4461,-3.4022,-3.3555,-3.2868,-3.239,-3.1965,-3.1636,-3.1217,-3.082,-3.0482,-3.0406,-3.0406,-3.0406,-3.0101,-2.974,-4.838,-4.833,-4.8316,-4.7889,-4.7245,-4.7949,-4.7889,-4.7332,-4.7336,-4.6953,-4.6293,-4.6305,-4.6302,-4.6302,-4.6302,-4.6302,-4.6302,-4.6397,-4.6885,-4.7586,-4.7606,-4.7966,-4.8588,-4.7629,-4.7178,-4.7189,-4.6418,-4.5993,-4.5928,-4.5936,-4.5835,-4.5727,-4.5599,-4.5521,-4.5503,-4.5279,-4.5159,-4.5125,-4.5003,-4.4962,-4.4943,-4.4943,-4.4943,-4.4919,-4.4919,-4.4907,-4.4895,-4.4895,-4.4833,-4.4738,-4.4527,-4.4322,-4.4196,-4.3693,-4.3408,0.0,-4.3105,0.0,0.0,0.0,0.0,0.0,0.0,0.0,0.0,-4.2919,-4.2882,-4.2825,-4.2438,-4.2195,-4.2115,-4.1696,-4.1415,-4.1393,-4.0978,-4.0707,-4.0683,-4.0438,-4.0502,-4.1136,-4.1288,-4.1593,-4.2236,-4.2169,-4.2068,-4.1787,-4.1021,-4.0404,-4.0054,-3.9141,-3.8191,-3.7384,-3.6773,-3.6172,-3.5689,-3.5522,-3.5489,-3.5489,-3.5489,-3.5213,-3.4428,-3.3905,-3.3388,-3.264,-3.2028,-3.1539,-3.0857,-3.0758,-3.0558,-2.996,-2.9856,-2.9856,-2.9856,-2.9818,-2.974,-4.8007,-4.7377,-4.7358,-4.6868,-4.6119,-4.6287,-4.6348,-4.6367,-4.6408,-4.6387,-4.6294,-4.6291,-4.6287,-4.6302,-4.6302,-4.6302,-4.6339,-4.7042,-4.7432,-4.7606,-4.7606,-4.7682,-4.7756,-4.6852,-4.641,-4.641,-4.6242,-4.6158,-4.615,-4.6036,-4.5928,-4.5872,-4.5729,-4.5654,-4.5668,0.0,0.0,0.0,-4.5235,-4.5233,-4.5213,-4.5213,-4.517,-4.5061,-4.5068,0.0,-4.4895,-4.4895,-4.4902,-4.4858,-4.4821,0.0,0.0,0.0,0.0,0.0,0.0,0.0,0.0,0.0,0.0,0.0,-4.2919,-4.2919,-4.2919,-4.2919,-4.2749,-4.236,-4.2239,-4.2053,-4.1656,-4.1225,-4.0926,-4.0919,-4.0507,-4.0229,-4.0246,-4.0646,-4.1052,-4.1187,-4.1711,-4.2117,-4.2185,-4.2169,-4.1853,-4.1174,-4.0062,-3.8993,-3.8291,-3.7903,-3.721,-3.6114,-3.5827,-3.5669,-3.5534,-3.5489,-3.5489,-3.5489,-3.5489,-3.518,-3.4428,-3.3463,-3.2621,-3.1905,-3.091,-3.0267,-3.0037,-2.9998,-2.9998,-2.9818,-2.9779,-2.9779,-2.9779,-2.9779,-2.9779,-4.6793,0.0,-4.6448,-4.6204,0.0,-4.5819,-4.588,-4.5954,-4.6056,-4.614,-4.625,-4.625,-4.6265,-4.6287,-4.6287,-4.6305,-4.6321,-4.6749,-4.6963,-4.6963,-4.6963,-4.6944,-4.6944,-4.6485,-4.6264,-4.6245,-4.6233,-4.624,-4.6203,-4.6137,-4.6084,-4.6056,-4.5917,-4.5859,-4.5841,-4.5696,-4.5491,-4.5288,-4.5277,-4.5277,-4.5277,-4.5277,-4.5256,-4.5203,0.0,0.0,0.0,0.0,0.0,0.0,0.0,0.0,0.0,0.0,0.0,-4.4075,-4.3513,-4.316,-4.316,-4.3087,-4.305,-4.3032,-4.3068,-4.3013,-4.2919,-4.271,-4.2458,-4.2218,-4.1799,-4.1428,-4.1162,-4.0731,-4.0434,-4.0451,-4.0246,-4.0113,-4.0146,-4.0409,-4.0671,-4.0679,-4.095,-4.1213,-4.123,-4.1152,-4.0807,-4.0104,-3.9107,-3.8176,-3.7405,-3.6879,-3.6292,-3.5614,-3.5489,-3.5504,-3.5489,-3.5489,-3.5489,-3.5489,-3.5489,-3.5166,-3.4428,-3.3443,-3.2492,-3.1649,-3.0659,-2.9946,-2.983,-2.9779,-2.9779,-2.9779,-2.9779,-2.9779,-2.9779,-2.9779,-2.9779,-4.5688,-4.5708,-4.5746,-4.5781,-4.5781,-4.5798,-4.58,-4.5814,0.0,0.0,0.0,-4.6174,-4.6209,-4.6282,-4.6281,-4.6296,-4.6305,-4.6303,-4.6303,-4.6303,-4.6302,-4.6302,-4.6302,-4.6302,-4.6302,-4.6302,-4.6302,-4.6273,-4.6233,-4.6214,-4.6201,-4.6187,-4.6099,-4.6026,-4.5998,-4.5846,-4.5623,-4.54,-4.5341,-4.5309,-4.5288,-4.5277,-4.5277,-4.5277,-4.5277,-4.5277,-4.5277,-4.5277,-4.5254,-4.5148,-4.5136,-4.5091,-4.4974,-4.449,-4.4192,-4.4136,-4.3629,-4.3268,-4.3232,-4.3214,-4.3214,-4.3214,-4.3214,-4.3123,-4.2975,-4.2595,-4.2318,-4.2157,-4.1432,-4.0943,-4.0772,-4.0377,-4.0121,-4.0138,-4.0096,-4.0113,-4.0113,-4.0113,-4.0146,-4.0113,-4.0163,-4.0113,-4.0163,-4.018,-3.9825,-3.9152,-3.8551,-3.7716,-3.6905,-3.6227,-3.5763,-3.5537,-3.5489,-3.5489,-3.5489,-3.5489,-3.5489,-3.5489,-3.5489,-3.5246,-3.4576,-3.3616,-3.2635,-3.1928,-3.0872,-3.0126,-2.9818,-2.9779,-2.9779,-2.9779,-2.9779,-2.9779,-2.9779,-2.9895,-3.0037,-4.5688,-4.5688,-4.5715,-4.5715,-4.5715,-4.5781,-4.5817,-4.5814,-4.5947,-4.6039,-4.612,-4.6123,-4.6138,-4.6208,-4.6208,-4.623,-4.63,-4.6294,-4.6291,-4.6291,-4.6305,-4.6302,-4.6302,-4.6302,-4.6302,-4.6302,-4.6302,-4.63,-4.6277,-4.6277,-4.6267,-4.6203,-4.6176,-4.6114,-4.6008,-4.5983,-4.5881,-4.5737,-4.556,-4.5419,-4.5288,-4.5277,-4.5277,-4.5277,-4.5277,-4.5277,-4.5277,-4.5277,-4.5297,-4.5286,-4.5275,-4.5256,-4.5224,-4.4887,-4.4599,-4.4374,-4.3943,-4.3612,-4.3394,-4.3269,-4.3214,-4.3214,-4.3214,-4.3196,-4.316,-4.3105,-4.275,-4.205,-4.1774,-4.1401,-4.0669,-4.0387,-4.028,-4.0263,-4.0188,-4.0113,-4.0113,-4.0096,-4.0113,-4.0113,-4.0113,-4.0113,-4.0113,-4.0113,-3.9867,-3.9259,-3.8446,-3.7748,-3.6631,-3.5975,-3.5671,-3.5522,-3.5489,-3.5489,-3.5489,-3.5489,-3.5489,-3.5489,-3.5489,-3.5472,-3.5279,-3.4007,-3.2939,-3.25,-3.1281,-3.0292,-2.9972,-2.9779,-2.9934,-2.9972,-3.0011,-2.9934,-2.9998,-3.0419,-3.0796,-4.5635,-4.5662,-4.5679,-4.5687,-4.5695,-4.5735,-4.5781,-4.5798,-4.5867,-4.5964,-4.6044,-4.6048,-4.6066,-4.6152,-4.6154,-4.6165,-4.6182,-4.623,-4.623,-4.625,-4.6301,-4.6294,-4.6294,-4.629,-4.6288,-4.6287,-4.6303,-4.6302,-4.6302,-4.6302,-4.6296,-4.6247,-4.6247,-4.6206,-4.6118,-4.6111,-4.6052,-4.5908,-4.575,-4.5646,-4.5571,-4.549,-4.5446,-4.5419,-4.537,-4.5328,-4.5297,-4.5277,-4.5277,-4.5277,-4.5277,-4.5277,-4.5277,-4.5,-4.4676,-4.4411,-4.4084,-4.3761,-4.3463,-4.3393,-4.3357,-4.3357,-4.3375,-4.3357,-4.3357,-4.3032,-4.2559,-4.1966,-4.1648,-4.122,-4.0566,-4.0436,-4.0412,-4.0412,-4.0362,-4.0288,-4.0213,-4.0188,-4.0188,-4.0113,-4.0113,-4.0113,-4.0113,-4.0113,-3.9705,-3.8849,-3.7953,-3.7027,-3.6336,-3.6085,-3.5879,-3.5653,-3.5589,-3.5572,-3.5522,-3.5489,-3.5489,-3.5489,-3.5489,-3.5489,-3.5424,-3.4409,-3.3705,-3.3345,-3.2313,-3.1516,-3.1169,-3.1108,-3.1046,-3.1046,-3.1046,-3.1046,-3.1158,-3.1636,-3.2024,-4.5523,-4.5513,-4.5631,-4.5693,-4.5682,-4.5676,-4.5715,-4.5773,-4.5792,-4.584,-4.5929,-4.5953,-4.5998,-4.6072,-4.6075,-4.6092,-4.6103,-4.6161,-4.6174,-4.6177,-4.6229,-4.6269,-4.6267,-4.6284,-4.6281,-4.6295,-4.629,-4.6305,-4.6305,-4.6303,-4.6302,-4.6302,-4.6302,-4.6273,-4.6236,-4.6216,-4.617,-4.608,-4.5983,-4.5867,-4.5764,-4.5653,-4.5552,-4.5468,-4.541,-4.5389,-4.5338,-4.5319,-4.5319,-4.5319,-4.5319,-4.5319,-4.5317,-4.5068,-4.4807,-4.4506,-4.4236,-4.3923,-4.3548,-4.3479,-4.3479,-4.3479,-4.3479,-4.3479,-4.3444,-4.3032,-4.256,-4.2136,-4.1696,-4.1208,-4.0819,-4.0631,-4.0534,-4.0558,-4.0534,-4.0461,-4.0362,-4.0337,-4.0313,-4.0213,-4.0163,-4.0146,-4.0138,-4.0113,-3.9627,-3.8474,-3.7356,-3.6646,-3.6336,-3.6274,-3.6148,-3.5911,-3.5752,-3.5671,-3.5539,-3.5537,-3.5489,-3.5489,-3.5489,-3.5489,-3.5359,-3.4839,-3.4279,-3.3876,-3.3283,-3.2541,-3.2335,-3.2155,-3.206,-3.1965,-3.1905,-3.2037,-3.2254,-3.2684,-3.3017,-4.5232,-4.5282,-4.5495,-4.5667,-4.5665,-4.5682,-4.5687,-4.57,-4.5708,-4.5723,-4.5742,-4.578,-4.5886,-4.5988,-4.6017,-4.6026,-4.6098,-4.6108,-4.6117,-4.61,-4.6116,-4.6144,-4.6205,-4.6207,-4.623,-4.6284,-4.6302,-4.6281,-4.6294,-4.6293,-4.6288,-4.6302,-4.6302,-4.63,-4.6278,-4.6298,-4.6275,-4.6271,-4.6269,-4.6029,-4.5645,-4.5592,-4.553,-4.541,-4.541,-4.54,-4.5381,-4.539,-4.539,-4.539,-4.5371,-4.5371,-4.5341,-4.5339,-4.5145,-4.4757,-4.4455,-4.4095,-4.3545,-4.3479,-4.3441,-4.3479,-4.3406,-4.3387,-4.3406,-4.339,-4.3232,-4.2735,-4.2342,-4.1906,-4.1445,-4.0977,-4.0745,-4.0728,-4.0607,-4.051,-4.0468,-4.0485,-4.0485,-4.0485,-4.0337,-4.028,-4.028,-4.0113,-3.9575,-3.8474,-3.7621,-3.6952,-3.6538,-3.646,-3.6383,-3.6148,-3.5911,-3.572,-3.5671,-3.5572,-3.5522,-3.5489,-3.5489,-3.5489,-3.5344,-3.4905,-3.4279,-3.4279,-3.3567,-3.301,-3.2642,-3.2285,-3.2371,-3.2506,-3.2448,-3.2362,-3.2897,-3.3227,-3.3171,-4.5071,-4.5201,-4.514,-4.5129,-4.5191,-4.5313,-4.5438,-4.5475,-4.5627,-4.5684,-4.5708,-4.5746,-4.5786,-4.59,-4.588,-4.5905,-4.5911,-4.6008,-4.6039,-4.6044,-4.6079,-4.6117,-4.6136,-4.6126,-4.616,-4.6173,-4.6177,-4.6205,-4.625,-4.6284,-4.6297,-4.6295,-4.6295,-4.6295,-4.6295,-4.6295,-4.6293,-4.6288,-4.6288,-4.5908,-4.5284,-4.5642,-4.5832,-4.5701,-4.5615,-4.5509,-4.541,-4.541,-4.5199,-4.4729,-4.4691,-4.447,-4.3944,-4.3925,-4.3778,-4.3445,-4.3043,-4.2677,-4.2397,-4.2244,-4.2116,-4.2084,-4.2084,-4.2084,-4.2084,-4.2084,-4.2017,-4.1918,-4.2302,-4.2418,-4.1931,-4.1468,-4.1169,-4.1123,-4.0907,-4.0704,-4.0648,-4.0624,-4.0583,-4.0534,-4.0461,-4.0412,-4.0271,-3.9679,-3.9011,-3.8351,-3.7592,-3.6861,-3.6554,-3.6492,-3.6445,-3.6383,-3.6148,-3.599,-3.5894,-3.5735,-3.5621,-3.5589,-3.5539,-3.5489,-3.5457,-3.5326,-3.4986,-3.4872,-3.4442,-3.4158,-3.4172,-3.3831,-3.3707,-3.3534,-3.35,-3.3569,-3.3845,-3.3894,-3.3825,-4.4739,-4.4884,-4.4745,-4.4733,-4.4831,-4.5007,-4.5107,-4.5191,-4.5381,-4.5466,-4.5464,-4.5537,-4.5607,-4.5668,-4.5743,-4.5788,-4.5786,-4.588,-4.5929,-4.5947,-4.5988,-4.602,-4.6064,-4.6084,-4.6079,-4.6099,-4.6114,-4.6121,-4.6171,-4.6228,-4.625,-4.6268,-4.6288,-4.6286,-4.6263,-4.6106,-4.5948,-4.5906,-4.5748,-4.5226,-4.466,-4.5123,-4.5363,-4.5237,-4.5118,-4.4993,-4.4799,-4.4781,-4.4524,-4.3931,-4.3903,-4.3606,-4.2994,-4.2936,-4.2805,-4.2523,-4.2139,-4.1817,-4.1646,-4.1445,-4.1298,-4.1156,-4.1142,-4.1142,-4.1158,-4.1176,-4.1176,-4.1236,-4.1934,-4.2268,-4.206,-4.1629,-4.1402,-4.1464,-4.1214,-4.0995,-4.0793,-4.0769,-4.0721,-4.0631,-4.06,-4.0534,-4.0377,-3.974,-3.9076,-3.853,-3.7722,-3.6831,-3.6631,-3.6523,-3.6492,-3.6492,-3.6383,-3.6211,-3.61,-3.5894,-3.5784,-3.5735,-3.5653,-3.5572,-3.5554,-3.5522,-3.5504,-3.5198,-3.5294,-3.518,-3.4854,-3.4769,-3.4698,-3.4664,-3.4501,-3.4303,-3.4264,-3.4366,-3.4264,-4.4236,-4.4265,-4.4322,-4.4511,-4.4788,-4.48,-4.4812,-4.4825,-4.4868,-4.4861,-4.4919,-4.5118,-4.5282,-4.5342,-4.5563,-4.5688,-4.5715,-4.5712,-4.5761,-4.581,-4.5824,-4.5887,-4.5982,-4.5993,-4.6036,-4.6057,-4.6084,-4.6086,-4.6111,-4.6111,-4.614,-4.6204,-4.6166,-4.621,-4.611,-4.5425,-4.5052,-4.4993,-4.4367,-4.3838,-4.3759,-4.3797,-4.3753,-4.3539,-4.3548,-4.3546,-4.3401,-4.3348,-4.3265,-4.3143,-4.3135,-4.3071,-4.296,-4.2932,-4.2728,-4.2451,-4.2414,-4.2167,-4.1702,-4.1525,-4.1434,-4.1253,-4.1064,-4.1209,-4.1043,-4.1043,-4.1027,-4.1227,-4.118,-4.1339,-4.1524,-4.1305,-4.1206,-4.1429,-4.1455,-4.126,-4.0918,-4.0871,-4.0871,-4.0847,-4.0769,-4.0655,-4.0534,-4.0468,-3.9714,-3.8968,-3.8474,-3.7924,-3.6922,-3.66,-3.6523,-3.6523,-3.6492,-3.6414,-3.6242,-3.6085,-3.599,-3.5926,-3.5831,-3.5703,-3.5638,-3.5589,-3.5539,-3.5489,-3.5457,-3.5392,-3.5246,-3.5115,-3.4949,-3.4754,-3.4466,-3.4331,-3.4167,-3.4327,-3.4109,-4.3926,-4.3958,-4.4166,-4.4206,-4.4181,-4.4388,-4.4484,-4.4493,-4.4701,-4.4788,-4.4812,-4.4915,-4.4962,-4.4988,-4.5254,-4.5502,-4.5673,-4.5688,-4.5715,-4.5731,-4.5731,-4.5769,-4.5807,-4.5854,-4.5887,-4.5917,-4.5902,-4.5938,-4.6035,-4.6091,-4.6111,-4.6011,-4.555,-4.5338,-4.5245,-4.4527,-4.412,-4.4138,-4.3825,-4.3433,-4.2922,-4.2864,-4.2578,-4.2037,-4.2942,-4.3415,-4.3341,-4.3247,-4.2936,-4.2372,-4.2283,-4.2019,-4.1473,-4.1407,-4.1355,-4.1241,-4.1103,-4.0845,-4.0495,-4.0302,-4.01,-3.9823,-3.9745,-3.9834,-3.9778,-3.9763,-3.9763,-3.9782,-3.9782,-3.9989,-4.059,-4.0944,-4.1189,-4.123,-4.1253,-4.1163,-4.0965,-4.0894,-4.0894,-4.0871,-4.0823,-4.0799,-4.068,-4.0377,-3.9732,-3.8978,-3.8402,-3.778,-3.7134,-3.6723,-3.6662,-3.6616,-3.6554,-3.6492,-3.6414,-3.6242,-3.6116,-3.6085,-3.599,-3.5831,-3.5735,-3.5703,-3.5653,-3.5554,-3.5522,-3.5429,-3.5255,-3.4961,-3.4875,-3.4596,-3.4276,-3.3918,-3.3837,-3.3688,-3.334,-4.3719,-4.3769,-4.3939,-4.3942,-4.3818,-4.4033,-4.4136,-4.4166,-4.4374,-4.4471,-4.4498,-4.4585,-4.4637,-4.4688,-4.4931,-4.5192,-4.5437,-4.5582,-4.5676,-4.5684,-4.5684,-4.5692,-4.5688,-4.5739,-4.5765,-4.5773,-4.5776,-4.5808,-4.5872,-4.5686,-4.5599,-4.5533,-4.4744,-4.4354,-4.4256,-4.3595,-4.3189,-4.3221,-4.3027,-4.2576,-4.2067,-4.2008,-4.1754,-4.1382,-4.218,-4.2696,-4.2638,-4.252,-4.2202,-4.1615,-4.1491,-4.1154,-4.0596,-4.0527,-4.0534,-4.05,-4.0414,-4.0203,-3.9934,-3.9772,-3.9549,-3.9173,-3.911,-3.9082,-3.9021,-3.8979,-3.8964,-3.8964,-3.8964,-3.9242,-3.9748,-4.0402,-4.0962,-4.1207,-4.1236,-4.1191,-4.1197,-4.1105,-4.0989,-4.0982,-4.0935,-4.0912,-4.0847,-4.0476,-3.9952,-3.9351,-3.8772,-3.8222,-3.7506,-3.7178,-3.6937,-3.6831,-3.6754,-3.6708,-3.6647,-3.6538,-3.6352,-3.6289,-3.6133,-3.5975,-3.5864,-3.58,-3.5674,-3.5574,-3.5479,-3.5387,-3.5188,-3.485,-3.4519,-3.4229,-3.3776,-3.3267,-3.31,-3.2861,-3.2684,-4.3531,-4.3599,-4.3617,-4.3684,-4.3771,-4.3802,-4.3802,-4.3835,-4.3851,-4.3897,-4.3958,-4.4181,-4.4289,-4.436,-4.4624,-4.48,-4.4896,-4.5293,-4.5531,-4.5603,-4.5648,-4.5662,-4.5648,-4.5692,-4.5708,-4.5708,-4.5708,-4.5677,-4.5565,-4.4996,-4.4672,-4.4465,-4.3732,-4.333,-4.3386,-4.2674,-4.228,-4.2181,-4.1733,-4.1348,-4.1211,-4.1289,-4.1289,-4.1191,-4.1268,-4.1276,-4.1139,-4.113,-4.1064,-4.0839,-4.0773,-4.0675,-4.0617,-4.0586,-4.0588,-4.0581,-4.0581,-4.0488,-4.0317,-4.0238,-4.0014,-3.9645,-3.9517,-3.9383,-3.9227,-3.9156,-3.9101,-3.9101,-3.9101,-3.9157,-3.9245,-3.9644,-4.0323,-4.1522,-4.1279,-4.135,-4.1509,-4.1423,-4.118,-4.1099,-4.1006,-4.0918,-4.0894,-4.083,-4.0531,-4.0053,-3.9655,-3.9113,-3.8169,-3.7738,-3.749,-3.715,-3.6938,-3.6877,-3.6877,-3.6847,-3.6677,-3.6507,-3.6336,-3.6164,-3.6009,-3.5915,-3.5575,-3.5386,-3.5018,-3.4896,-3.4548,-3.4181,-3.3787,-3.3463,-3.301,-3.2815,-3.2683,-3.2568,-3.2398,-4.3515,-4.3549,-4.3531,-4.3549,-4.36,-4.3634,-4.3667,-4.3667,-4.3753,-4.3788,-4.382,-4.3913,-4.3942,-4.4036,-4.425,-4.4388,-4.4416,-4.4745,-4.4966,-4.5096,-4.5253,-4.5362,-4.541,-4.5593,-4.5676,-4.568,-4.5688,-4.5399,-4.4917,-4.4608,-4.4252,-4.3593,-4.2768,-4.2401,-4.2392,-4.1645,-4.126,-4.1354,-4.1184,-4.1083,-4.1132,-4.1172,-4.1191,-4.1191,-4.1133,-4.1113,-4.1128,-4.1044,-4.0947,-4.0822,-4.0761,-4.068,-4.0609,-4.0588,-4.0588,-4.0588,-4.0588,-4.0503,-4.0342,-4.03,-4.0174,-3.9865,-3.9671,-3.9552,-3.9463,-3.9369,-3.9301,-3.9288,-3.9301,-3.9301,-3.9349,-3.9425,-3.9715,-3.9893,-4.0499,-4.0854,-4.0858,-4.1009,-4.1174,-4.1163,-4.1134,-4.1094,-4.1094,-4.1111,-4.0884,-4.0368,-3.991,-3.9289,-3.8557,-3.801,-3.7401,-3.715,-3.7075,-3.7044,-3.7014,-3.689,-3.669,-3.6507,-3.6322,-3.6152,-3.606,-3.5706,-3.5398,-3.5014,-3.4616,-3.4252,-3.3874,-3.3498,-3.3106,-3.3018,-3.2868,-3.2688,-3.2539,-3.2392,-3.2243,-4.3479,-4.3479,-4.3479,-4.3479,-4.3515,-4.3548,-4.3583,-4.3565,-4.3651,-4.3667,-4.3686,-4.3719,-4.3719,-4.3786,-4.3958,-4.4067,-4.406,-4.4236,-4.4346,-4.4498,-4.4849,-4.503,-4.5085,-4.5362,-4.5503,-4.5451,-4.528,-4.4927,-4.4407,-4.379,-4.3212,-4.2614,-4.1805,-4.1405,-4.1422,-4.098,-4.0777,-4.0875,-4.0902,-4.0966,-4.1037,-4.1104,-4.1128,-4.1151,-4.1111,-4.1131,-4.1152,-4.1089,-4.1003,-4.0941,-4.0857,-4.0743,-4.0694,-4.0681,-4.0694,-4.0674,-4.0687,-4.0626,-4.05,-4.05,-4.0375,-4.0137,-3.9905,-3.9761,-3.9679,-3.9527,-3.9399,-3.9405,-3.9405,-3.9405,-3.9405,-3.9405,-3.9258,-3.8982,-3.9859,-4.0399,-4.044,-4.0674,-4.0999,-4.1115,-4.1232,-4.1209,-4.1209,-4.1186,-4.1076,-4.0666,-4.0334,-3.9859,-3.9282,-3.8761,-3.823,-3.7806,-3.7666,-3.7506,-3.721,-3.6963,-3.6699,-3.6471,-3.6258,-3.606,-3.5937,-3.5308,-3.4881,-3.444,-3.4061,-3.3547,-3.3201,-3.2781,-3.2422,-3.2526,-3.2732,-3.2579,-3.2411,-3.2304,-3.2233,-4.341,-4.3427,-4.3444,-4.341,-4.3427,-4.3462,-4.3497,-4.3497,-4.3515,-4.3515,-4.3515,-4.3583,-4.3582,-4.3634,-4.3734,-4.3802,-4.3804,-4.3818,-4.3849,-4.3986,-4.4346,-4.4631,-4.4837,-4.5063,-4.5104,-4.4906,-4.4499,-4.4187,-4.3745,-4.262,-4.1761,-4.1662,-4.1024,-4.0535,-4.0653,-4.0636,-4.0686,-4.0724,-4.0781,-4.085,-4.0972,-4.0996,-4.1039,-4.1084,-4.1084,-4.1104,-4.1108,-4.1091,-4.1094,-4.107,-4.0944,-4.0859,-4.0819,-4.0812,-4.0777,-4.0777,-4.0803,-4.0777,-4.0797,-4.0739,-4.0674,-4.05,-4.0248,-4.0051,-3.9886,-3.9665,-3.9502,-3.9489,-3.9451,-3.9431,-3.9431,-3.9431,-3.9253,-3.902,-3.9536,-4.0127,-4.0776,-4.0532,-4.0564,-4.0981,-4.1166,-4.1058,-4.0906,-4.0924,-4.0901,-4.0856,-4.0649,-4.0165,-3.9876,-3.9185,-3.9232,-3.8735,-3.7871,-3.746,-3.6988,-3.6648,-3.6355,-3.6021,-3.5812,-3.5556,-3.5424,-3.4858,-3.4141,-3.3737,-3.3586,-3.3075,-3.2715,-3.25,-3.2403,-3.2583,-3.2613,-3.2434,-3.2458,-3.2516,-3.2559,-4.2306,-4.2424,-4.277,-4.292,-4.2976,-4.3303,-4.341,-4.3322,-4.3427,-4.3463,-4.3428,-4.3497,-4.3513,-4.3531,-4.3566,-4.3601,-4.3583,-4.3583,-4.36,-4.3667,-4.3795,-4.4198,-4.4585,-4.4745,-4.4471,-4.3921,-4.3715,-4.3145,-4.2115,-4.1648,-4.1206,-4.0844,-4.0638,-4.0489,-4.0512,-4.053,-4.0596,-4.0681,-4.0701,-4.0772,-4.0821,-4.0843,-4.0925,-4.1014,-4.1009,-4.1064,-4.1104,-4.1107,-4.1054,-4.1006,-4.0944,-4.0898,-4.0866,-4.0824,-4.0804,-4.0798,-4.0798,-4.0804,-4.0804,-4.0798,-4.0761,-4.0712,-4.0492,-4.0375,-4.0317,-3.9981,-3.9804,-3.9735,-3.9656,-3.954,-3.9558,-3.9558,-3.9445,-3.9381,-3.9483,-3.9806,-4.0238,-4.0185,-4.0035,-4.0079,-3.9975,-3.996,-3.9974,-3.9956,-3.9956,-3.9874,-3.9633,-3.9307,-3.9284,-3.8816,-3.8512,-3.7987,-3.7305,-3.7016,-3.6707,-3.634,-3.5986,-3.5549,-3.5166,-3.4757,-3.4561,-3.4191,-3.3433,-3.2774,-3.3287,-3.3027,-3.2955,-3.2808,-3.2788,-3.2837,-3.3039,-3.3188,-3.3193,-3.3224,-3.3182,-4.1853,-4.1937,-4.2203,-4.2322,-4.2382,-4.2865,-4.3014,-4.2995,-4.325,-4.3339,-4.3322,-4.3339,-4.341,-4.3464,-4.3464,-4.3462,-4.3479,-4.3463,-4.3497,-4.3548,-4.3582,-4.3841,-4.4202,-4.4383,-4.4033,-4.3224,-4.2976,-4.226,-4.1282,-4.0802,-4.048,-4.0366,-4.0295,-4.0347,-4.0452,-4.046,-4.05,-4.0564,-4.0595,-4.0636,-4.0666,-4.0698,-4.0761,-4.0855,-4.0922,-4.0994,-4.1095,-4.1101,-4.1089,-4.1034,-4.0987,-4.0936,-4.0942,-4.087,-4.082,-4.0818,-4.0807,-4.0807,-4.0807,-4.0807,-4.0807,-4.0765,-4.061,-4.0516,-4.0435,-4.0194,-3.9989,-3.9958,-3.9804,-3.975,-3.9715,-3.9679,-3.9656,-3.9645,-3.9591,-3.9688,-4.0078,-3.9788,-3.9711,-3.9716,-3.9698,-3.9534,-3.9534,-3.9534,-3.9534,-3.9526,-3.9385,-3.9163,-3.8995,-3.8277,-3.7783,-3.7564,-3.736,-3.7219,-3.6812,-3.6427,-3.6067,-3.557,-3.517,-3.4611,-3.4263,-3.4007,-3.3646,-3.3217,-3.3208,-3.3235,-3.3287,-3.3339,-3.3391,-3.3537,-3.379,-3.3933,-3.3949,-3.3771,-3.3771,-4.1639,-4.1639,-4.1703,-4.1725,-4.1789,-4.2226,-4.2424,-4.2464,-4.2808,-4.3032,-4.3087,-4.3105,-4.3196,-4.3376,-4.3376,-4.3411,-4.3444,-4.3375,-4.341,-4.3445,-4.3463,-4.3599,-4.373,-4.3806,-4.339,-4.2654,-4.2155,-4.1412,-4.0614,-3.9892,-3.9747,-3.9893,-3.9983,-4.0129,-4.0297,-4.0379,-4.0407,-4.0422,-4.0491,-4.0504,-4.0535,-4.0557,-4.0629,-4.0696,-4.0822,-4.0926,-4.1022,-4.1058,-4.1088,-4.1103,-4.1035,-4.1001,-4.1009,-4.0938,-4.0886,-4.0854,-4.084,-4.0849,-4.0823,-4.0823,-4.0818,-4.0787,-4.0661,-4.0538,-4.053,-4.0332,-4.0148,-4.0176,-4.001,-3.9903,-3.9856,-3.9781,-3.977,-3.9811,-3.9773,-3.9821,-3.9814,-3.9435,-3.9318,-3.9842,-3.9744,-3.9663,-3.9661,-3.9661,-3.9588,-3.8866,-3.8797,-3.8682,-3.8584,-3.8289,-3.8013,-3.7906,-3.775,-3.7586,-3.7064,-3.6504,-3.6167,-3.5767,-3.5404,-3.4987,-3.4569,-3.432,-3.4241,-3.4087,-3.3962,-3.3887,-3.3912,-3.3978,-3.407,-3.4185,-3.4415,-3.4578,-3.4643,-3.4374,-3.4275,-4.0531,-4.0652,-4.0967,-4.1127,-4.1236,-4.1725,-4.1853,-4.1764,-4.2,-4.2322,-4.2537,-4.2617,-4.2865,-4.3214,-4.316,-4.3251,-4.3214,-4.3214,-4.3251,-4.325,-4.3269,-4.3268,-4.321,-4.3004,-4.2332,-4.1591,-4.0818,-4.016,-3.9559,-3.9405,-3.9339,-3.9587,-3.9797,-4.0022,-4.0081,-4.0262,-4.0407,-4.0407,-4.0415,-4.0413,-4.0419,-4.0452,-4.05,-4.0565,-4.0674,-4.0805,-4.0917,-4.0935,-4.0983,-4.1055,-4.1068,-4.1035,-4.105,-4.1012,-4.0969,-4.0938,-4.0937,-4.0933,-4.0893,-4.0883,-4.0874,-4.0888,-4.0839,-4.0801,-4.079,-4.0564,-4.0431,-4.0377,-4.0221,-4.004,-3.9943,-3.9889,-3.987,-3.9911,-3.9889,-3.986,-3.9794,-3.9282,-3.8902,-3.8625,-3.8438,-3.8148,-3.8185,-3.831,-3.8274,-3.8148,-3.8147,-3.8074,-3.8089,-3.8139,-3.8035,-3.7898,-3.774,-3.7519,-3.7223,-3.674,-3.6461,-3.6213,-3.588,-3.5582,-3.5163,-3.4844,-3.4837,-3.4759,-3.4592,-3.4592,-3.464,-3.4833,-3.4968,-3.5008,-3.4984,-3.4954,-3.4899,-3.4763,-3.4594,-4.0121,-4.0238,-4.0441,-4.0546,-4.0676,-4.1116,-4.1258,-4.1253,-4.1508,-4.1785,-4.1952,-4.2018,-4.2221,-4.2498,-4.2498,-4.25,-4.2617,-4.2789,-4.2845,-4.2883,-4.3014,-4.2977,-4.2503,-4.1987,-4.1342,-4.0851,-4.0203,-3.9485,-3.8999,-3.8847,-3.8952,-3.9205,-3.9414,-3.951,-3.9698,-3.995,-4.007,-4.0148,-4.0252,-4.0289,-4.0299,-4.0344,-4.0408,-4.0492,-4.0565,-4.0665,-4.0786,-4.0795,-4.0867,-4.0971,-4.1001,-4.1017,-4.1033,-4.1015,-4.0986,-4.0982,-4.0992,-4.0991,-4.0974,-4.0954,-4.0944,-4.0953,-4.0937,-4.0939,-4.0912,-4.0743,-4.0667,-4.059,-4.0407,-4.0196,-4.0098,-4.0015,-4.0007,-4.0057,-4.0026,-3.9965,-3.9829,-3.9427,-3.8971,-3.8606,-3.8467,-3.8241,-3.8069,-3.7966,-3.7969,-3.8273,-3.8062,-3.799,-3.7918,-3.7934,-3.779,-3.7658,-3.7532,-3.7365,-3.7193,-3.6961,-3.6832,-3.6678,-3.6564,-3.6329,-3.6075,-3.5776,-3.5537,-3.5402,-3.5305,-3.5351,-3.5436,-3.5622,-3.5594,-3.5418,-3.5304,-3.5205,-3.5088,-3.4994,-3.4787,-4.0113,-4.0113,-4.0113,-4.0113,-4.0171,-4.0531,-4.0707,-4.0754,-4.1116,-4.1276,-4.1393,-4.1393,-4.1565,-4.167,-4.1717,-4.1739,-4.1853,-4.2103,-4.2282,-4.23,-4.2578,-4.2316,-4.1704,-4.0981,-4.0402,-4.0345,-3.9662,-3.901,-3.8656,-3.8491,-3.8658,-3.8814,-3.8896,-3.9058,-3.9262,-3.9482,-3.9709,-3.984,-4.0,-4.0158,-4.0186,-4.0253,-4.0304,-4.0378,-4.0399,-4.0487,-4.0604,-4.0653,-4.071,-4.0852,-4.0878,-4.0919,-4.0959,-4.1006,-4.1013,-4.0994,-4.0992,-4.0981,-4.0992,-4.0983,-4.0974,-4.0977,-4.0987,-4.0993,-4.0957,-4.09,-4.0835,-4.0757,-4.063,-4.0466,-4.0379,-4.0252,-4.0233,-4.0281,-4.0215,-4.0089,-3.9977,-3.9807,-3.9573,-3.9181,-3.8868,-3.8648,-3.8533,-3.846,-3.8399,-3.8338,-3.8122,-3.7951,-3.7916,-3.7898,-3.788,-3.7792,-3.7721,-3.754,-3.7355,-3.73,-3.715,-3.7092,-3.7071,-3.6933,-3.6788,-3.6512,-3.6228,-3.6131,-3.6084,-3.6019,-3.5893,-3.5866,-3.5795,-3.5706,-3.5594,-3.5458,-3.5344,-3.5228,-3.5031,-4.0113,-4.0113,-4.0113,-4.0096,-4.0096,-4.0196,-4.0229,-4.0221,-4.0336,-4.0563,-4.0896,-4.0926,-4.1134,-4.1388,-4.1503,-4.1525,-4.1442,-4.1573,-4.1639,-4.1635,-4.1793,-4.1487,-4.0659,-4.0004,-3.925,-3.8695,-3.8509,-3.8449,-3.8421,-3.8412,-3.8412,-3.8523,-3.8685,-3.8843,-3.8943,-3.9125,-3.9396,-3.9561,-3.9702,-3.9851,-4.0007,-4.0078,-4.0138,-4.0187,-4.0225,-4.0278,-4.0367,-4.0431,-4.0514,-4.0655,-4.0819,-4.0867,-4.0933,-4.0995,-4.1025,-4.1008,-4.1012,-4.1016,-4.1,-4.1003,-4.1001,-4.0986,-4.1003,-4.0997,-4.1003,-4.0993,-4.0953,-4.0906,-4.0854,-4.0754,-4.066,-4.0468,-4.0431,-4.0446,-4.0392,-4.0317,-4.029,-4.0206,-3.996,-3.9531,-3.9282,-3.9112,-3.898,-3.8843,-3.8748,-3.8658,-3.8504,-3.8348,-3.8267,-3.8302,-3.83,-3.8203,-3.8069,-3.7845,-3.7595,-3.7595,-3.7522,-3.7468,-3.7412,-3.7281,-3.7147,-3.7069,-3.6913,-3.6751,-3.6502,-3.6276,-3.617,-3.6105,-3.5997,-3.591,-3.58,-3.5689,-3.5594,-3.5498,-3.5318,-3.9558,-3.9867,-3.9867,-3.9893,-3.9884,-3.9884,-3.9867,-3.9867,-3.991,-4.0003,-4.0162,-4.0237,-4.0343,-4.0546,-4.057,-4.0552,-4.0625,-4.0844,-4.0914,-4.0961,-4.1115,-4.0622,-3.9713,-3.9175,-3.838,-3.7734,-3.7537,-3.7773,-3.8018,-3.8017,-3.8136,-3.8352,-3.8494,-3.8556,-3.86,-3.8774,-3.8985,-3.9176,-3.9332,-3.9458,-3.9621,-3.9755,-3.9914,-4.0057,-4.0096,-4.0128,-4.0177,-4.0224,-4.0313,-4.0446,-4.0597,-4.0717,-4.0819,-4.0909,-4.1016,-4.1042,-4.1055,-4.1052,-4.1034,-4.1055,-4.1053,-4.1031,-4.1042,-4.1066,-4.1069,-4.1059,-4.1014,-4.097,-4.0937,-4.0839,-4.0704,-4.0591,-4.0505,-4.0509,-4.0454,-4.0422,-4.0415,-4.0415,-4.0167,-3.9859,-3.9735,-3.9569,-3.9364,-3.9231,-3.9063,-3.8957,-3.8872,-3.8755,-3.864,-3.87,-3.8744,-3.8582,-3.8442,-3.8249,-3.805,-3.805,-3.7999,-3.793,-3.7861,-3.7721,-3.7578,-3.7487,-3.7376,-3.7241,-3.697,-3.6698,-3.6461,-3.6377,-3.6255,-3.6135,-3.5998,-3.5882,-3.5848,-3.5775,-3.5454,-3.8832,-3.9312,-3.9461,-3.9487,-3.953,-3.9661,-3.9703,-3.9703,-3.9703,-3.9729,-3.9703,-3.9729,-3.9755,-3.9729,-3.9755,-3.9755,-3.9738,-4.0145,-4.0269,-4.0351,-4.0549,-3.9986,-3.8926,-3.8434,-3.7876,-3.6588,-3.6512,-3.6902,-3.7377,-3.7469,-3.7721,-3.7932,-3.807,-3.8189,-3.8271,-3.8446,-3.8535,-3.8715,-3.8886,-3.9003,-3.9139,-3.9383,-3.9651,-3.9859,-3.9892,-3.9881,-3.9935,-3.9986,-4.009,-4.0221,-4.0383,-4.0514,-4.063,-4.0751,-4.0864,-4.0996,-4.1022,-4.1039,-4.1052,-4.1046,-4.1033,-4.1034,-4.1054,-4.1052,-4.1063,-4.1039,-4.1041,-4.0961,-4.0958,-4.0928,-4.0828,-4.0668,-4.0632,-4.0609,-4.0563,-4.0465,-4.0481,-4.0481,-4.0468,-4.0276,-4.0213,-4.0043,-3.9829,-3.9634,-3.9481,-3.9383,-3.9289,-3.9178,-3.9085,-3.9152,-3.9139,-3.8952,-3.8799,-3.867,-3.856,-3.8591,-3.8527,-3.8465,-3.84,-3.8319,-3.8127,-3.7943,-3.7842,-3.7772,-3.756,-3.7288,-3.696,-3.6643,-3.6564,-3.6417,-3.6187,-3.5921,-3.5635,-3.5409,-3.5119,-3.7966,-3.808,-3.8624,-3.8799,-3.8914,-3.9408,-3.9677,-3.9651,-3.9625,-3.9703,-3.9651,-3.9651,-3.9625,-3.9677,-3.9677,-3.9677,-3.9729,-3.9755,-3.9816,-3.985,-3.9876,-3.9243,-3.7896,-3.7663,-3.7026,-3.5955,-3.5656,-3.6011,-3.6583,-3.6786,-3.7001,-3.7303,-3.7506,-3.7632,-3.7948,-3.8086,-3.8368,-3.8554,-3.8646,-3.8759,-3.8952,-3.9049,-3.9104,-3.9157,-3.9216,-3.932,-3.9544,-3.9623,-3.9743,-4.0019,-4.0203,-4.0326,-4.0364,-4.0456,-4.0591,-4.0732,-4.0845,-4.0917,-4.0928,-4.0945,-4.0947,-4.0955,-4.0941,-4.0922,-4.0961,-4.0992,-4.1015,-4.1103,-4.1077,-4.1051,-4.0994,-4.0972,-4.0933,-4.0848,-4.0738,-4.0676,-4.0641,-4.0556,-4.0566,-4.0537,-4.0404,-4.0389,-4.0269,-4.0081,-3.9912,-3.9819,-3.9712,-3.9599,-3.9517,-3.9552,-3.9552,-3.9371,-3.9152,-3.9022,-3.8976,-3.9017,-3.8976,-3.8934,-3.8887,-3.8826,-3.8637,-3.8453,-3.8465,-3.8355,-3.8111,-3.7708,-3.7238,-3.6967,-3.686,-3.6482,-3.5994,-3.5575,-3.5208,-3.4978,-3.4834,-3.692,-3.7589,-3.7863,-3.7962,-3.8035,-3.8657,-3.8892,-3.892,-3.892,-3.9115,-3.9319,-3.9044,-3.9115,-3.9372,-3.9484,-3.9484,-3.9484,-3.9484,-3.9468,-3.9468,-3.9385,-3.8902,-3.8078,-3.7519,-3.671,-3.5966,-3.5485,-3.5418,-3.5859,-3.6151,-3.6426,-3.6788,-3.7079,-3.7323,-3.7542,-3.7578,-3.7844,-3.8086,-3.8219,-3.833,-3.8527,-3.86,-3.8689,-3.8868,-3.8868,-3.8966,-3.9109,-3.9189,-3.9389,-3.9651,-3.9819,-3.9974,-4.012,-4.0182,-4.0221,-4.035,-4.0319,-4.05,-4.0815,-4.0866,-4.0887,-4.0887,-4.0905,-4.0897,-4.0891,-4.0914,-4.0977,-4.1033,-4.1054,-4.1054,-4.1068,-4.1044,-4.1009,-4.0939,-4.0873,-4.0809,-4.0752,-4.0699,-4.0648,-4.0642,-4.0617,-4.0595,-4.0542,-4.0433,-4.023,-4.0082,-4.0053,-4.0024,-3.9913,-3.9829,-3.9829,-3.9786,-3.9576,-3.9383,-3.9383,-3.9377,-3.9314,-3.9276,-3.9257,-3.9186,-3.9075,-3.8975,-3.8899,-3.8713,-3.8386,-3.7938,-3.7439,-3.7063,-3.6779,-3.6248,-3.57,-3.5404,-3.5123,-3.4839,-3.4614,-3.6053,-3.692,-3.7071,-3.7161,-3.7221,-3.7822,-3.808,-3.808,-3.808,-3.8367,-3.8595,-3.8322,-3.8435,-3.8871,-3.8887,-3.8816,-3.9023,-3.905,-3.905,-3.9077,-3.9119,-3.8868,-3.8096,-3.7442,-3.6688,-3.6114,-3.5214,-3.5074,-3.5211,-3.5459,-3.583,-3.6264,-3.651,-3.6827,-3.6981,-3.7039,-3.721,-3.7468,-3.765,-3.7808,-3.7995,-3.8147,-3.8344,-3.8483,-3.8573,-3.8636,-3.8737,-3.8752,-3.8938,-3.9223,-3.9327,-3.9474,-3.9742,-3.9767,-3.9825,-3.9946,-3.9967,-4.0116,-4.0446,-4.0641,-4.0756,-4.081,-4.0846,-4.0803,-4.0824,-4.0854,-4.0916,-4.0991,-4.0999,-4.1031,-4.1074,-4.1063,-4.1042,-4.101,-4.0942,-4.0875,-4.0825,-4.0789,-4.0766,-4.0761,-4.0747,-4.0721,-4.07,-4.0668,-4.0549,-4.0375,-4.037,-4.0406,-4.0302,-4.0129,-4.012,-4.0091,-3.9935,-3.981,-3.9874,-3.9842,-3.9738,-3.96,-3.9584,-3.9584,-3.9524,-3.9274,-3.9052,-3.8841,-3.85,-3.7752,-3.6991,-3.6799,-3.659,-3.5967,-3.5433,-3.5362,-3.513,-3.4772,-3.4437,-3.5537,-3.5683,-3.6212,-3.6461,-3.6523,-3.7191,-3.7442,-3.7442,-3.7458,-3.7488,-3.7576,-3.7546,-3.7822,-3.8108,-3.7937,-3.7908,-3.8334,-3.8362,-3.8322,-3.8535,-3.8876,-3.8617,-3.7859,-3.6969,-3.6186,-3.5794,-3.5005,-3.471,-3.4763,-3.4818,-3.523,-3.5621,-3.5938,-3.613,-3.6381,-3.6568,-3.6588,-3.6786,-3.6981,-3.7209,-3.7396,-3.7614,-3.7915,-3.7951,-3.7984,-3.8069,-3.8326,-3.8357,-3.8511,-3.882,-3.8849,-3.9008,-3.9262,-3.9262,-3.9339,-3.9522,-3.9622,-3.9751,-3.9958,-4.0238,-4.0454,-4.0561,-4.0649,-4.0672,-4.0722,-4.0698,-4.0788,-4.0936,-4.0928,-4.0998,-4.106,-4.111,-4.1073,-4.1055,-4.0991,-4.0982,-4.0927,-4.0884,-4.0881,-4.0897,-4.086,-4.0822,-4.082,-4.0789,-4.0732,-4.0561,-4.0488,-4.0542,-4.0508,-4.0383,-4.0407,-4.0383,-4.0264,-4.0247,-4.0441,-4.0372,-4.0175,-3.9986,-3.9881,-3.9967,-4.0014,-3.969,-3.8871,-3.8604,-3.8156,-3.7337,-3.6641,-3.6411,-3.6099,-3.5541,-3.5185,-3.5088,-3.4858,-3.4473,-3.4223,-3.5246,-3.5148,-3.5379,-3.5606,-3.5878,-3.6508,-3.6784,-3.6784,-3.6768,-3.6738,-3.6662,-3.6919,-3.7144,-3.7263,-3.7203,-3.7114,-3.7381,-3.7381,-3.7381,-3.744,-3.7581,-3.7646,-3.7052,-3.6541,-3.5733,-3.5391,-3.4717,-3.4163,-3.4077,-3.4152,-3.4464,-3.484,-3.5226,-3.5671,-3.5933,-3.6109,-3.6113,-3.6109,-3.6323,-3.6586,-3.6686,-3.7017,-3.7281,-3.7281,-3.7631,-3.7739,-3.7913,-3.793,-3.8147,-3.8339,-3.8373,-3.8557,-3.8785,-3.8744,-3.8828,-3.9017,-3.9104,-3.9231,-3.9491,-3.9796,-4.0155,-4.0391,-4.0518,-4.0589,-4.0597,-4.063,-4.0696,-4.0781,-4.0839,-4.0886,-4.0911,-4.0988,-4.103,-4.1034,-4.1044,-4.1053,-4.1015,-4.0971,-4.0962,-4.0957,-4.0925,-4.0867,-4.0886,-4.089,-4.083,-4.075,-4.0694,-4.0641,-4.0609,-4.0595,-4.0595,-4.0595,-4.0477,-4.0446,-4.0612,-4.0591,-4.0534,-4.03,-4.0065,-3.9888,-3.9719,-3.8957,-3.8271,-3.8065,-3.7734,-3.6963,-3.6363,-3.6036,-3.5652,-3.5218,-3.4951,-3.4785,-3.4496,-3.4257,-3.4142,-3.4356,-3.424,-3.4206,-3.4639,-3.5344,-3.5799,-3.5959,-3.5959,-3.5928,-3.5911,-3.5816,-3.6103,-3.6353,-3.6461,-3.6275,-3.6399,-3.6492,-3.6584,-3.6554,-3.6676,-3.6813,-3.6843,-3.6625,-3.6113,-3.5398,-3.5057,-3.4359,-3.3801,-3.3731,-3.345,-3.3588,-3.3978,-3.4455,-3.4743,-3.5322,-3.5554,-3.5604,-3.5549,-3.5776,-3.602,-3.6084,-3.644,-3.6684,-3.6724,-3.6978,-3.7092,-3.7132,-3.7151,-3.7286,-3.7506,-3.7649,-3.7876,-3.8114,-3.8263,-3.8214,-3.8293,-3.8436,-3.8591,-3.8925,-3.9484,-3.9926,-4.0129,-4.0219,-4.034,-4.045,-4.05,-4.0516,-4.0715,-4.0718,-4.0726,-4.0779,-4.0873,-4.0919,-4.0925,-4.1005,-4.1028,-4.1038,-4.101,-4.1014,-4.1035,-4.0986,-4.0968,-4.0955,-4.0964,-4.0889,-4.0844,-4.0805,-4.0751,-4.0706,-4.0694,-4.0707,-4.0681,-4.0649,-4.0655,-4.0675,-4.0636,-4.0494,-3.9966,-3.9707,-3.928,-3.8912,-3.8161,-3.7658,-3.745,-3.7043,-3.6483,-3.6101,-3.5799,-3.5408,-3.4984,-3.4849,-3.4816,-3.4671,-3.4502,-3.439,-3.2713,-3.2629,-3.2713,-3.3547,-3.4721,-3.4902,-3.4953,-3.5085,-3.5052,-3.5067,-3.5067,-3.5085,-3.535,-3.5625,-3.535,-3.5447,-3.5738,-3.5834,-3.5834,-3.5929,-3.615,-3.6553,-3.6245,-3.5631,-3.5003,-3.5103,-3.432,-3.3629,-3.364,-3.3084,-3.2928,-3.2953,-3.3298,-3.3608,-3.4456,-3.4691,-3.4828,-3.4994,-3.5407,-3.5504,-3.5621,-3.5933,-3.613,-3.6194,-3.6336,-3.644,-3.6437,-3.6416,-3.6545,-3.6666,-3.6686,-3.6943,-3.7396,-3.7451,-3.7524,-3.7719,-3.7771,-3.7959,-3.8319,-3.922,-3.9596,-3.9778,-3.9894,-3.9994,-4.0139,-4.0203,-4.03,-4.0482,-4.0578,-4.066,-4.0731,-4.0786,-4.0791,-4.0822,-4.0901,-4.0961,-4.0959,-4.0969,-4.0949,-4.0989,-4.1065,-4.1093,-4.1054,-4.1029,-4.097,-4.0919,-4.089,-4.0857,-4.0815,-4.0786,-4.0791,-4.0775,-4.0761,-4.0762,-4.0757,-4.0685,-4.043,-3.9865,-3.9207,-3.8651,-3.8092,-3.7439,-3.7038,-3.6819,-3.6489,-3.6077,-3.5817,-3.5583,-3.5341,-3.5172,-3.5083,-3.5009,-3.487,-3.4764,-3.4695,-3.2321,-3.2277,-3.2277,-3.2577,-3.3038,-3.3255,-3.3905,-3.4754,-3.4802,-3.475,-3.4765,-3.465,-3.4635,-3.4769,-3.4754,-3.4735,-3.4854,-3.492,-3.492,-3.4971,-3.527,-3.527,-3.5165,-3.5001,-3.4575,-3.4349,-3.3767,-3.3532,-3.347,-3.2848,-3.2846,-3.2936,-3.2709,-3.3029,-3.3809,-3.4267,-3.4594,-3.4659,-3.4794,-3.4873,-3.4904,-3.5283,-3.5537,-3.5537,-3.5764,-3.589,-3.5842,-3.5781,-3.5907,-3.5994,-3.5998,-3.6253,-3.6643,-3.6704,-3.6882,-3.7171,-3.734,-3.7614,-3.7857,-3.8337,-3.8761,-3.918,-3.9529,-3.9634,-3.9778,-3.9808,-3.9965,-4.0156,-4.0253,-4.0345,-4.0481,-4.0565,-4.0584,-4.0622,-4.0696,-4.0752,-4.0785,-4.0794,-4.08,-4.0893,-4.0956,-4.1022,-4.1041,-4.1022,-4.0976,-4.0966,-4.093,-4.0908,-4.0867,-4.087,-4.086,-4.0859,-4.0855,-4.0854,-4.0815,-4.0552,-4.0175,-3.961,-3.8629,-3.7666,-3.7127,-3.6705,-3.6456,-3.6266,-3.6001,-3.5741,-3.5702,-3.5659,-3.559,-3.5451,-3.539,-3.5268,-3.5151,-3.507,-3.501,-3.1378,-3.1294,-3.1294,-3.1466,-3.1746,-3.2227,-3.3059,-3.3865,-3.4099,-3.4182,-3.4182,-3.4298,-3.4216,-3.4147,-3.4264,-3.4113,-3.4079,-3.4298,-3.4414,-3.438,-3.4414,-3.4601,-3.4616,-3.4433,-3.4386,-3.4039,-3.3894,-3.3765,-3.3426,-3.2773,-3.2511,-3.248,-3.2497,-3.2545,-3.3016,-3.3329,-3.3716,-3.3742,-3.3802,-3.3969,-3.4169,-3.4464,-3.46,-3.4743,-3.4978,-3.5266,-3.514,-3.5203,-3.538,-3.5425,-3.5515,-3.5644,-3.5868,-3.6037,-3.6203,-3.6516,-3.6995,-3.7247,-3.7397,-3.7649,-3.8089,-3.8487,-3.8952,-3.9251,-3.9408,-3.9519,-3.9652,-3.9797,-3.9859,-3.9972,-4.011,-4.0224,-4.0266,-4.0287,-4.0403,-4.0468,-4.0602,-4.0614,-4.0696,-4.0781,-4.0852,-4.091,-4.0979,-4.0989,-4.0955,-4.0961,-4.0954,-4.093,-4.0929,-4.0935,-4.0924,-4.0931,-4.0925,-4.0935,-4.0684,-4.0249,-3.9839,-3.9337,-3.8248,-3.706,-3.6557,-3.6221,-3.5964,-3.5795,-3.5792,-3.5783,-3.5802,-3.5778,-3.5724,-3.5716,-3.5702,-3.5585,-3.5447,-3.5372,-3.5303,-2.9818,-2.9779,-2.9779,-3.0241,-3.0932,-3.1599,-3.2015,-3.2182,-3.2847,-3.3178,-3.3213,-3.3928,-3.3742,-3.3402,-3.3894,-3.3791,-3.3332,-3.3859,-3.4011,-3.4079,-3.3908,-3.4113,-3.423,-3.4216,-3.4095,-3.4018,-3.3858,-3.3535,-3.3412,-3.2785,-3.2208,-3.1944,-3.2121,-3.199,-3.1997,-3.227,-3.2691,-3.2926,-3.2997,-3.3182,-3.3469,-3.3572,-3.3649,-3.3777,-3.402,-3.402,-3.3928,-3.4045,-3.4374,-3.4561,-3.4682,-3.4897,-3.5085,-3.5201,-3.547,-3.5854,-3.6478,-3.6664,-3.6862,-3.7079,-3.7341,-3.7649,-3.7976,-3.8539,-3.8971,-3.9109,-3.9249,-3.9451,-3.9571,-3.9595,-3.9668,-3.9735,-3.9789,-3.9897,-4.0024,-4.0175,-4.0365,-4.0472,-4.0584,-4.0659,-4.0696,-4.0762,-4.0784,-4.081,-4.0863,-4.0886,-4.0872,-4.0912,-4.0911,-4.0994,-4.0976,-4.0991,-4.099,-4.1012,-4.0642,-4.0077,-3.9432,-3.8925,-3.7772,-3.6678,-3.6205,-3.5929,-3.5894,-3.5873,-3.5836,-3.5835,-3.5873,-3.5895,-3.5913,-3.5912,-3.5888,-3.5838,-3.5658,-3.5636,-3.5584,-2.9779,-2.9779,-2.9779,-2.9934,-3.0139,-3.0368,-3.0746,-3.1304,-3.2074,-3.2412,-3.2434,-3.2662,-3.2684,-3.247,-3.2662,-3.2613,-3.2577,-3.2613,-3.2698,-3.284,-3.303,-3.3206,-3.3381,-3.3555,-3.3555,-3.3512,-3.3356,-3.32,-3.3115,-3.2633,-3.2395,-3.2292,-3.1782,-3.1335,-3.1209,-3.1436,-3.1898,-3.2242,-3.2262,-3.2501,-3.2664,-3.2761,-3.2761,-3.2895,-3.3018,-3.2938,-3.2895,-3.3198,-3.3553,-3.3614,-3.4043,-3.4407,-3.4794,-3.4866,-3.5008,-3.5316,-3.5638,-3.5759,-3.6037,-3.6122,-3.6319,-3.6709,-3.6985,-3.7578,-3.8112,-3.8465,-3.8663,-3.8892,-3.9099,-3.9139,-3.9231,-3.9339,-3.9402,-3.9491,-3.9615,-3.9745,-3.9919,-4.0043,-4.0168,-4.0369,-4.0431,-4.053,-4.0577,-4.0661,-4.0704,-4.0743,-4.078,-4.0814,-4.087,-4.0947,-4.0971,-4.0961,-4.1029,-4.1045,-4.0452,-3.9861,-3.9159,-3.8417,-3.7311,-3.6475,-3.6161,-3.5948,-3.5946,-3.5932,-3.5918,-3.5935,-3.5961,-3.5963,-3.5972,-3.5991,-3.5974,-3.5935,-3.5899,-3.5855,-3.5829,-2.917,-2.9714,-2.9417,-2.9456,-2.9792,-2.9779,-3.0062,-3.0595,-3.1304,-3.1636,-3.1673,-3.2001,-3.1942,-3.1709,-3.1965,-3.2001,-3.1673,-3.2074,-3.2268,-3.2268,-3.2015,-3.2398,-3.2684,-3.2755,-3.2769,-3.2755,-3.2755,-3.2672,-3.2644,-3.2458,-3.2185,-3.166,-3.1232,-3.0744,-3.0439,-3.048,-3.0779,-3.1147,-3.1442,-3.1784,-3.1923,-3.2007,-3.2048,-3.2048,-3.2132,-3.2117,-3.2005,-3.2431,-3.2648,-3.2687,-3.3119,-3.3303,-3.3649,-3.3818,-3.407,-3.4358,-3.4776,-3.4971,-3.5197,-3.5174,-3.5397,-3.5647,-3.5839,-3.6271,-3.6967,-3.7488,-3.7822,-3.814,-3.84,-3.8621,-3.8799,-3.8957,-3.9022,-3.9085,-3.9197,-3.9288,-3.9402,-3.9531,-3.9742,-3.9994,-4.0157,-4.0273,-4.0364,-4.0457,-4.0542,-4.0537,-4.0578,-4.0635,-4.0736,-4.0843,-4.0851,-4.0839,-4.0964,-4.1047,-4.0385,-3.973,-3.8984,-3.8156,-3.7,-3.6298,-3.6048,-3.5958,-3.5914,-3.5955,-3.5995,-3.5984,-3.5916,-3.5992,-3.6006,-3.598,-3.596,-3.5944,-3.5936,-3.5955,-3.593,-2.8051,-2.9456,-2.8712,-2.8791,-2.9507,-2.9456,-2.9456,-2.9611,-3.0139,-3.0657,-3.0895,-3.1526,-3.1341,-3.0895,-3.1193,-3.1119,-3.0932,-3.1156,-3.1378,-3.1856,-3.1502,-3.1636,-3.1878,-3.1965,-3.1928,-3.1928,-3.1928,-3.1819,-3.1905,-3.1744,-3.1402,-3.0806,-3.0757,-3.0392,-2.9829,-2.9944,-3.0079,-2.9828,-3.0369,-3.081,-3.1176,-3.1351,-3.1408,-3.1407,-3.1564,-3.1664,-3.1392,-3.1492,-3.1819,-3.1819,-3.1931,-3.2043,-3.236,-3.2687,-3.2977,-3.3198,-3.3652,-3.4046,-3.4219,-3.4268,-3.439,-3.4446,-3.4414,-3.4975,-3.5727,-3.6579,-3.7046,-3.7542,-3.7858,-3.7943,-3.8076,-3.8355,-3.8496,-3.8603,-3.8722,-3.89,-3.9068,-3.9216,-3.9414,-3.9622,-3.969,-3.9813,-3.9905,-3.9986,-4.0081,-4.0191,-4.0279,-4.035,-4.0496,-4.0629,-4.0665,-4.0665,-4.0801,-4.0842,-4.0479,-3.9775,-3.8906,-3.7936,-3.6868,-3.6119,-3.583,-3.5804,-3.5869,-3.5824,-3.579,-3.5866,-3.5855,-3.5849,-3.5824,-3.583,-3.5816,-3.5902,-3.5933,-3.5913,-3.5948,-2.7354,-2.773,-2.7516,-2.7557,-2.7718,-2.777,-2.7689,-2.7557,-2.7695,-2.8691,-2.9845,-3.0024,-2.9961,-2.9756,-2.9935,-2.9871,-2.9742,-3.005,-2.9935,-3.0152,-3.0241,-3.072,-3.1007,-3.1007,-3.097,-3.0895,-3.0833,-3.0758,-3.0809,-3.082,-3.0981,-3.1103,-3.0719,-2.9975,-2.9475,-2.9702,-2.964,-2.8972,-2.9457,-2.9921,-3.0241,-3.0371,-3.0431,-3.0446,-3.0567,-3.0567,-3.0476,-3.0807,-3.1057,-3.1232,-3.1677,-3.1875,-3.1931,-3.2099,-3.2167,-3.225,-3.2454,-3.287,-3.3145,-3.3318,-3.3447,-3.3921,-3.4087,-3.4227,-3.471,-3.5613,-3.6295,-3.6849,-3.721,-3.7248,-3.7378,-3.7649,-3.7947,-3.8082,-3.8214,-3.847,-3.87,-3.8886,-3.9063,-3.9171,-3.9236,-3.9327,-3.9427,-3.9524,-3.9618,-3.9728,-3.9824,-3.9922,-4.011,-4.0243,-4.03,-4.0331,-4.0532,-4.052,-4.0301,-3.9859,-3.9014,-3.8151,-3.7186,-3.641,-3.5664,-3.5616,-3.5638,-3.5548,-3.5512,-3.5626,-3.5648,-3.5558,-3.5533,-3.5615,-3.5638,-3.5686,-3.5674,-3.5644,-3.5771,-2.6423,-2.7058,-2.7098,-2.7069,-2.6976,-2.6976,-2.6853,-2.6689,-2.6689,-2.7261,-2.8291,-2.853,-2.8478,-2.8478,-2.8712,-2.8673,-2.8633,-2.8973,-2.9275,-2.9314,-2.9172,-2.9613,-2.9871,-2.9922,-2.9947,-2.9909,-2.9832,-2.9806,-2.9716,-2.9793,-3.0037,-3.0279,-2.9782,-2.9527,-2.9163,-2.9391,-2.9327,-2.8587,-2.9027,-2.9246,-2.9449,-2.9651,-2.9826,-2.9817,-2.9624,-2.9527,-2.932,-2.9512,-2.9366,-2.96,-2.9909,-3.0182,-3.0377,-3.0837,-3.1116,-3.1232,-3.1435,-3.1677,-3.2013,-3.2262,-3.2454,-3.2928,-3.3077,-3.2928,-3.37,-3.4493,-3.4754,-3.529,-3.6121,-3.6288,-3.6533,-3.6812,-3.721,-3.7451,-3.7542,-3.7685,-3.803,-3.836,-3.8606,-3.8861,-3.8929,-3.8994,-3.9104,-3.9223,-3.9282,-3.9314,-3.9402,-3.9439,-3.9606,-3.9816,-3.9877,-3.9977,-4.014,-4.0346,-4.0296,-3.9834,-3.9148,-3.8286,-3.7506,-3.6543,-3.5743,-3.5538,-3.5411,-3.538,-3.538,-3.5434,-3.5423,-3.5355,-3.5386,-3.548,-3.5461,-3.5444,-3.5415,-3.5385,-3.5447,-2.5401,-2.6648,-2.6648,-2.6565,-2.6442,-2.6359,-2.6235,-2.6069,-2.6058,-2.6027,-2.6182,-2.6924,-2.6842,-2.7221,-2.777,-2.7799,-2.7851,-2.7891,-2.8343,-2.8502,-2.849,-2.8478,-2.8478,-2.8661,-2.853,-2.849,-2.845,-2.8633,-2.8752,-2.8779,-2.874,-2.8712,-2.8724,-2.8712,-2.855,-2.8538,-2.85,-2.8551,-2.8717,-2.8799,-2.8972,-2.9186,-2.9377,-2.9231,-2.8934,-2.8602,-2.8405,-2.8161,-2.7812,-2.8,-2.8587,-2.8638,-2.8876,-2.938,-2.9797,-3.0011,-3.0284,-3.0615,-3.0955,-3.1102,-3.1349,-3.1566,-3.1552,-3.1905,-3.2687,-3.3008,-3.3282,-3.3763,-3.4589,-3.5335,-3.5586,-3.5951,-3.6347,-3.6783,-3.6862,-3.7036,-3.7432,-3.7774,-3.8065,-3.8376,-3.8468,-3.8527,-3.863,-3.8759,-3.8882,-3.8896,-3.8938,-3.8966,-3.9044,-3.9257,-3.9407,-3.9535,-3.9694,-3.9889,-4.009,-3.979,-3.9163,-3.8711,-3.7907,-3.676,-3.5828,-3.5501,-3.5288,-3.5261,-3.5275,-3.524,-3.5254,-3.5237,-3.5282,-3.5276,-3.5177,-3.5109,-3.5162,-3.5124,-3.512,-2.4583,-2.4743,-2.4509,-2.4413,-2.437,-2.437,-2.4251,-2.409,-2.4112,-2.395,-2.4188,-2.4776,-2.5358,-2.616,-2.6224,-2.6276,-2.6442,-2.6689,-2.6637,-2.6625,-2.7035,-2.7005,-2.7046,-2.725,-2.6678,-2.6689,-2.6894,-2.6946,-2.7528,-2.7661,-2.7914,-2.8339,-2.8419,-2.8419,-2.8431,-2.8351,-2.8195,-2.8203,-2.8243,-2.83,-2.8576,-2.8824,-2.911,-2.9082,-2.9056,-2.8991,-2.8939,-2.8886,-2.8799,-2.8739,-2.8433,-2.8176,-2.8166,-2.8311,-2.875,-2.9151,-2.9364,-2.9645,-2.9953,-3.0038,-3.0297,-3.0689,-3.0733,-3.0837,-3.1332,-3.1433,-3.166,-3.1914,-3.2792,-3.3939,-3.4406,-3.4865,-3.5301,-3.5887,-3.618,-3.6565,-3.698,-3.7151,-3.7322,-3.7506,-3.7632,-3.7702,-3.7789,-3.7993,-3.8326,-3.8373,-3.8514,-3.8542,-3.8656,-3.8806,-3.8924,-3.9039,-3.9169,-3.9396,-3.959,-3.9645,-3.9202,-3.8847,-3.8261,-3.7053,-3.6055,-3.5369,-3.516,-3.495,-3.494,-3.4924,-3.495,-3.4911,-3.4959,-3.4905,-3.4784,-3.4734,-3.4823,-3.4832,-3.4766]},{"header":{"parameterUnit":"m.s-1","parameterCategory":1,"la1":31.0,"la2":29.5877,"lo1":-88.7671,"lo2":-86.6584,"dy":0.0162,"dx":0.0185,"nx":115,"ny":88,"refTime":"2023-08-18T06:00:00:Z","depth":0,"parameterNumber":3,"parameterNumberName":"V-component_of_WINDS"},"data":[0.0,0.0,0.0,0.0,0.0,0.0,0.0,0.0,0.0,0.0,0.0,0.0,0.0,0.0,0.0,0.0,0.0,0.0,0.0,0.0,0.0,0.0,0.0,0.0,0.0,0.0,0.0,0.0,0.0,0.0,0.0,0.0,0.0,0.0,0.0,0.0,0.0,0.0,0.0,0.0,0.0,0.0,0.0,0.0,0.0,0.0,0.0,0.0,0.0,0.0,0.0,0.0,0.0,0.0,0.0,0.0,0.0,0.0,0.0,0.0,0.0,0.0,0.0,0.0,0.0,0.0,0.0,0.0,0.0,0.0,0.0,0.0,0.0,0.0,0.0,0.0,0.0,0.0,0.0,0.0,0.0,0.0,0.0,0.0,0.0,0.0,0.0,0.0,0.0,0.0,0.0,0.0,0.0,0.0,0.0,0.0,0.0,0.0,0.0,0.0,0.0,0.0,0.0,0.0,0.0,0.0,0.0,0.0,0.0,0.0,0.0,0.0,0.0,0.0,0.0,0.0,0.0,0.0,0.0,0.0,0.0,0.0,0.0,0.0,0.0,0.0,0.0,0.0,0.0,0.0,0.0,0.0,0.0,0.0,0.0,0.0,0.0,0.0,0.0,0.0,0.0,0.0,0.0,0.0,0.0,0.0,0.0,0.0,0.0,0.0,0.0,0.0,0.0,0.0,0.0,0.0,0.0,0.0,0.0,0.0,0.0,0.0,0.0,0.0,0.0,0.0,0.0,0.0,0.0,0.0,0.0,0.0,0.0,0.0,0.0,0.0,0.0,0.0,0.0,0.0,0.0,0.0,0.0,0.0,0.0,0.0,0.0,0.0,0.0,0.0,0.0,0.0,0.0,0.0,0.0,0.0,0.0,0.0,0.0,0.0,0.0,0.0,0.0,0.0,0.0,0.0,0.0,0.0,0.0,0.0,0.0,0.0,0.0,0.0,0.0,0.0,0.0,0.0,0.0,0.0,0.0,0.0,0.0,0.0,0.0,0.0,0.0,0.0,0.0,0.0,0.0,0.0,0.0,0.0,0.0,0.0,0.0,0.0,0.0,0.0,0.0,0.0,0.0,0.0,0.0,0.0,0.0,0.0,0.0,0.0,0.0,0.0,0.0,0.0,0.0,0.0,0.0,0.0,0.0,0.0,0.0,0.0,0.0,0.0,0.0,0.0,0.0,0.0,0.0,0.0,0.0,0.0,0.0,0.0,0.0,0.0,0.0,0.0,0.0,0.0,0.0,0.0,0.0,0.0,0.0,0.0,0.0,0.0,0.0,0.0,0.0,0.0,0.0,0.0,0.0,0.0,0.0,0.0,0.0,0.0,0.0,0.0,0.0,0.0,0.0,0.0,0.0,0.0,0.0,0.0,0.0,0.0,0.0,0.0,0.0,0.0,0.0,0.0,0.0,0.0,0.0,0.0,0.0,0.0,0.0,0.0,0.0,0.0,0.0,0.0,0.0,0.0,0.0,0.0,0.0,0.0,0.0,0.0,0.0,0.0,0.0,0.0,0.0,0.0,0.0,0.0,0.0,0.0,0.0,0.0,0.0,0.0,0.0,0.0,0.0,0.0,0.0,0.0,0.0,0.0,0.0,0.0,0.0,0.0,0.0,0.0,0.0,0.0,0.0,0.0,0.0,0.0,0.0,0.0,0.0,0.0,0.0,0.0,0.0,0.0,0.0,0.0,0.0,0.0,0.0,0.0,0.0,0.0,0.0,0.0,0.0,0.0,0.0,0.0,0.0,0.0,0.0,0.0,0.0,0.0,0.0,0.0,0.0,0.0,0.0,0.0,0.0,0.0,0.0,0.0,0.0,0.0,0.0,0.0,0.0,0.0,0.0,0.0,0.0,0.0,0.0,0.0,0.0,0.0,0.0,0.0,0.0,0.0,0.0,0.0,0.0,0.0,0.0,0.0,0.0,0.0,0.0,0.0,0.0,0.0,0.0,0.0,0.0,0.0,0.0,0.0,0.0,0.0,0.0,0.0,0.0,0.0,0.0,0.0,0.0,0.0,0.0,0.0,0.0,0.0,0.0,0.0,0.0,0.0,0.0,0.0,0.0,0.0,0.0,0.0,0.0,0.0,0.0,0.0,0.0,0.0,0.0,0.0,0.0,0.0,0.0,0.0,0.0,0.0,0.0,0.0,0.0,0.0,0.0,0.0,0.0,0.0,0.0,0.0,0.0,0.0,0.0,0.0,0.0,0.0,0.0,0.0,0.0,0.0,0.0,0.0,0.0,0.0,0.0,0.0,0.0,0.0,0.0,0.0,0.0,0.0,0.0,0.0,0.0,0.0,0.0,0.0,0.0,0.0,0.0,0.0,0.0,0.0,0.0,0.0,0.0,0.0,0.0,0.0,0.0,0.0,0.0,0.0,0.0,0.0,0.0,0.0,0.0,0.0,0.0,0.0,0.0,0.0,0.0,0.0,0.0,0.0,0.0,0.0,0.0,0.0,0.0,0.0,0.0,0.0,0.0,0.0,0.0,0.0,0.0,0.0,0.0,0.0,0.0,0.0,0.0,0.0,0.0,0.0,0.0,0.0,0.0,0.0,0.0,0.0,0.0,0.0,0.0,0.0,0.0,0.0,0.0,0.0,0.0,0.0,0.0,0.0,0.0,0.0,0.0,0.0,0.0,0.0,0.0,0.0,0.0,0.0,0.0,0.0,0.0,0.0,0.0,0.0,0.0,0.0,0.0,0.0,0.0,0.0,0.0,0.0,0.0,0.0,0.0,0.0,0.0,0.0,0.0,0.0,0.0,0.0,0.0,0.0,0.0,0.0,0.0,0.0,0.0,0.0,0.0,0.0,0.0,0.0,0.0,0.0,0.0,0.0,0.0,0.0,0.0,0.0,0.0,0.0,0.0,0.0,0.0,0.0,0.0,0.0,0.0,0.0,0.0,0.0,0.0,0.0,0.0,0.0,0.0,0.0,0.0,0.0,0.0,0.0,0.0,0.0,0.0,0.0,0.0,0.0,0.0,0.0,0.0,0.0,0.0,0.0,0.0,0.0,0.0,0.0,0.0,0.0,0.0,0.0,0.0,0.0,0.0,0.0,0.0,0.0,0.0,0.0,0.0,0.0,0.0,0.0,0.0,0.0,0.0,0.0,0.0,0.0,0.0,0.0,0.0,0.0,0.0,0.0,0.0,0.0,0.0,0.0,0.0,0.0,0.0,0.0,0.0,0.0,0.0,0.0,0.0,0.0,0.0,0.0,0.0,0.0,0.0,0.0,0.0,0.0,0.0,0.0,0.0,0.0,0.0,0.0,0.0,0.0,0.0,0.0,0.0,0.0,0.0,0.0,0.0,0.0,0.0,0.0,0.0,0.0,0.0,0.0,0.0,0.0,0.0,0.0,0.0,0.0,0.0,0.0,0.0,0.0,0.0,0.0,0.0,0.0,0.0,0.0,0.0,0.0,0.0,0.0,0.0,0.0,0.0,0.0,0.0,0.0,0.0,0.0,0.0,0.0,0.0,0.0,0.0,0.0,0.0,0.0,0.0,0.0,0.0,0.0,0.0,0.0,0.0,0.0,0.0,0.0,0.0,0.0,0.0,0.0,0.0,0.0,0.0,0.0,0.0,0.0,0.0,0.0,0.0,0.0,0.0,0.0,0.0,0.0,0.0,0.0,0.0,0.0,0.0,0.0,0.0,0.0,0.0,0.0,0.0,0.0,0.0,0.0,0.0,0.0,0.0,0.0,0.0,0.0,0.0,0.0,0.0,0.0,0.0,0.0,0.0,0.0,0.0,0.0,0.0,0.0,0.0,0.0,0.0,0.0,0.0,0.0,0.0,0.0,0.0,0.0,0.0,0.0,0.0,0.0,0.0,0.0,0.0,0.0,0.0,0.0,0.0,0.0,0.0,0.0,0.0,0.0,0.0,0.0,0.0,0.0,0.0,0.0,0.0,0.0,0.0,0.0,0.0,0.0,0.0,0.0,0.0,0.0,0.0,0.0,0.0,0.0,0.0,0.0,0.0,0.0,0.0,0.0,0.0,0.0,0.0,0.0,0.0,0.0,0.0,0.0,0.0,0.0,0.0,0.0,0.0,0.0,0.0,0.0,0.0,0.0,0.0,0.0,0.0,0.0,0.0,0.0,0.0,0.0,0.0,0.0,0.0,0.0,0.0,0.0,0.0,0.0,0.0,0.0,0.0,0.0,0.0,0.0,0.0,0.0,0.0,0.0,0.0,0.0,0.0,0.0,0.0,0.0,0.0,0.0,0.0,0.0,0.0,0.0,0.0,0.0,0.0,0.0,0.0,0.0,0.924,0.0,0.0,0.0,0.0,0.0,0.0,0.0,0.0,0.0,0.0,0.0,0.0,0.0,0.0,0.0,0.0,0.0,0.0,0.0,0.0,0.0,0.0,0.0,0.0,0.0,0.0,0.0,0.0,0.0,0.0,0.0,0.0,0.0,0.0,0.0,0.0,0.0,0.0,0.0,0.0,0.0,0.0,0.0,0.0,0.0,0.0,0.0,0.0,0.0,0.0,0.0,0.0,0.0,0.0,0.0,0.0,0.0,0.0,0.0,0.0,0.0,0.0,0.0,0.0,0.0,0.0,0.0,0.0,0.0,0.0,0.0,0.0,0.0,0.0,0.0,0.0,0.0,0.0,0.0,0.0,0.0,0.0,0.0,0.0,0.0,0.0,0.0,0.0,0.0,0.0,0.0,0.0,0.0,0.0,0.0,0.0,0.0,0.0,0.0,0.0,0.0,0.0,0.0,0.0,0.0,0.0,0.0,0.0,0.0,0.0,0.8584,0.8733,0.8414,0.8079,0.7629,0.0,0.0,0.0,0.0,0.0,0.0,0.0,0.0,0.0,0.0,0.0,0.0,0.0,0.0,0.0,0.0,0.0,0.0,0.0,0.0,0.0,0.0,0.0,0.0,0.0,0.0,0.0,0.0,0.0,0.0,0.0,0.0,0.0,0.0,0.0,0.0,0.0,0.0,0.0,0.0,0.0,0.0,0.0,0.0,0.0,0.0,0.0,0.0,0.0,0.0,0.0,0.0,0.0,0.0,0.0,0.0,0.0,0.0,0.0,0.0,0.0,0.0,0.0,0.0,0.0,0.0,0.0,0.0,0.0,0.0,0.0,0.0,0.0,0.0,0.0,0.0,0.0,0.0,0.0,0.0,0.0,0.0,0.0,0.0,0.0,0.0,0.0,0.0,0.0,0.0,0.0,0.0,0.0,0.0,0.0,0.0,0.0,0.0,0.0,0.0,0.0,0.0,0.0,0.0,0.0,0.0,0.0,0.0,0.0,0.0,0.0,0.0,0.7031,0.6424,0.5534,0.0,0.0,0.0,0.0,0.0,0.0,0.0,0.0,0.0,0.0,0.0,0.0,0.0,0.0,0.0,0.0,0.0,0.0,0.0,0.0,0.0,0.0,0.0,0.0,0.0,0.0,0.0,0.0,0.0,0.0,0.0,0.0,0.0,0.0,0.0,0.0,0.0,0.0,0.0,0.0,0.0,0.0,0.0,0.0,0.0,0.0,0.0,0.0,0.0,0.0,0.0,0.0,0.0,0.0,0.0,0.0,0.0,0.0,0.0,0.0,0.0,0.0,0.0,0.0,0.0,0.0,0.0,0.0,0.0,0.0,0.0,0.0,0.0,0.0,0.0,0.0,0.0,0.0,0.0,0.0,0.0,0.0,0.0,0.0,0.0,0.0,0.0,0.0,0.0,0.0,0.0,0.0,0.0,0.0,0.0,0.0,0.0,0.0,0.0,0.0,0.0,0.0,0.0,0.0,0.0,0.0,0.0,0.0,0.0,0.0,0.4385,0.4372,0.416,0.0,0.2916,0.0,0.0,0.0,0.0,0.0,0.0,0.0,0.0,0.0,0.0,0.0,0.0,0.0,0.0,0.0,0.0,0.0,0.0,0.0,0.0,0.0,0.0,0.0,0.0,0.0,0.0,0.0,0.0,0.0,0.0,0.0,0.0,0.0,0.0,0.0,0.0,0.0,0.0,0.0,0.0,0.0,0.0,0.0,0.0,0.0,0.0,0.0,0.0,0.0,0.0,0.0,0.0,0.0,0.0,0.0,0.0,0.0,0.0,0.0,0.0,0.0,0.0,0.0,0.0,0.0,0.0,0.0,0.0,0.0,0.0,0.0,0.0,0.0,0.0,0.0,0.0,0.0,0.0,0.0,0.0,0.0,0.0,0.0,0.0,0.0,0.0,0.0,0.0,0.0,0.0,0.0,0.0,0.0,0.0,0.0,0.0,0.0,0.0,0.0,0.0,0.0,0.0,0.0,0.0,0.0,0.0,0.0,0.0,0.0,0.0,0.3451,0.3235,0.2342,0.1835,0.0,0.0,0.0,0.0,0.0,0.0,0.0,0.0,0.0,0.0,0.0,0.0,0.0,0.0,0.0,0.0,0.0,0.0,0.0,0.0,0.0,0.0,0.0,0.0,0.0,0.0,0.0,0.0,0.0,0.0,0.0,0.0,0.0,0.0,0.0,0.0,0.0,0.0,0.0,0.0,0.0,0.0,0.0,0.0,0.0,0.0,0.0,0.0,0.0,0.0,0.0,0.0,0.0,0.0,0.0,0.0,0.0,0.0,0.0,0.0,0.0,0.0,0.0,0.0,0.0,0.0,0.0,0.0,0.0,0.0,0.0,0.0,0.0,0.0,0.0,0.0,0.0,0.0,0.0,0.0,0.0,0.0,0.0,0.0,0.0,0.0,0.0,0.0,0.0,0.0,0.0,0.0,0.0,0.0,0.0,0.0,0.0,0.0,0.0,0.0,0.0,0.0,0.0,0.0,0.0,0.0,0.0,0.0,0.0,0.0,0.1865,0.1864,0.1337,0.049,0.0111,0.0336,0.0,0.0,0.0,0.0,0.0,0.0,0.0,0.0,0.0,0.0,0.0,0.0,0.0,0.0,0.0,0.0,0.0,0.0,0.0,0.0,0.0,0.0,0.0,0.0,0.0,0.0,0.0,0.0,0.0,0.0,0.0,0.0,0.0,0.0,0.0,0.0,0.0,0.0,0.0,0.0,0.0,0.0,0.0,0.0,0.0,0.0,0.0,0.0,0.0,0.0,0.0,0.0,0.0,0.0,0.0,0.0,0.0,0.0,0.0,0.0,0.0,0.0,0.0,0.0,0.0,0.0,0.0,0.0,0.0,0.0,0.0,0.0,0.0,0.0,0.0,0.0,0.0,0.0,0.0,0.0,0.0,0.0,0.0,0.0,0.0,0.0,0.0,0.0,0.0,0.0,0.0,0.0,0.0,0.0,0.0,0.0,0.0,0.0,0.0,0.0,0.0,0.0,0.0,0.0,0.0,0.0,0.0,0.0,0.0055,-0.043,-0.1129,-0.191,-0.1776,-0.1793,0.0,0.0,0.0,0.0,0.0,0.0,0.0,0.0,0.0,0.0,0.0,0.0,0.0,0.0,0.0,0.0,0.0,0.0,0.0,0.0,0.0,0.0,0.0,0.0,0.0,0.0,0.0,0.0,0.0,0.0,0.0,0.0,0.0,0.0,0.0,0.0,0.0,0.0,0.0,0.0,0.0,0.0,0.0,0.0,0.0,0.0,0.0,0.0,0.0,0.0,0.0,0.0,0.0,0.0,0.0,0.0,0.0,0.0,0.0,0.0,0.0,0.0,0.0,0.0,0.0,0.0,0.0,0.0,0.0,0.0,0.0,0.0,0.0,0.0,0.0,0.0,0.0,0.0,0.0,0.0,0.0,0.0,0.0,0.0,0.0,0.0,0.0,0.0,0.0,0.0,0.0,0.0,0.0,0.0,0.0,0.0,0.0,0.0,0.0,0.0,0.0,0.0,0.0,0.0,0.0,0.0,0.0,0.0,0.0,-0.0833,-0.1603,-0.2376,-0.3057,-0.3517,-0.3805,0.0,0.0,0.0,0.0,0.0,0.0,0.0,0.0,0.0,0.0,0.0,0.0,0.0,0.0,0.0,0.0,0.0,0.0,0.0,0.0,0.0,0.0,0.0,0.0,0.0,0.0,0.0,0.0,0.0,0.0,0.0,0.0,0.0,0.0,0.0,0.0,0.0,0.0,0.0,0.0,0.0,0.0,0.0,0.0,0.0,0.0,0.0,0.0,0.0,0.0,0.0,0.0,0.0,0.0,0.0,0.0,0.0,0.0,0.0,0.0,0.0,0.0,0.0,0.0,0.0,0.0,0.0,0.0,0.0,0.0,0.0,0.0,0.0,0.0,0.0,0.0,0.0,0.0,0.0,0.0,0.0,0.0,0.0,0.0,0.0,0.0,0.0,0.0,0.0,0.0,0.0,0.0,0.0,0.0,0.0,0.0,0.0,0.0,0.0,0.0,0.0,0.0,0.0,0.0,0.0,0.0,0.0,0.0,0.0,-0.1739,0.0,-0.3587,-0.4311,-0.4866,-0.531,0.0,0.0,0.0,0.0,0.0,0.0,0.0,0.0,0.0,0.0,0.0,0.0,0.0,0.0,0.0,0.0,0.0,0.0,0.0,0.0,0.0,0.0,0.0,0.0,0.0,0.0,0.0,0.0,0.0,0.0,0.0,0.0,0.0,0.0,0.0,0.0,0.0,0.0,0.0,0.0,0.0,0.0,0.0,0.0,0.0,0.0,0.0,0.0,0.0,0.0,0.0,0.0,0.0,0.0,0.0,0.0,0.0,0.0,0.0,0.0,0.0,0.0,0.0,0.0,0.0,0.0,0.0,0.0,0.0,0.0,0.0,0.0,0.0,0.0,0.0,0.0,0.0,0.0,0.0,0.0,0.0,0.0,0.0,0.0,0.0,0.0,0.0,0.0,0.0,0.0,0.0,0.0,0.0,0.0,0.0,0.0,0.0,0.0,0.0,0.0,0.0,0.0,0.0,0.0,0.0,0.0,0.0,0.0,-0.1851,-0.2693,-0.3867,-0.4868,-0.5755,-0.5866,-0.6308,0.0,0.0,0.0,0.0,0.0,0.0,0.0,0.0,0.0,0.0,0.0,0.0,0.0,0.0,0.0,0.0,0.0,0.0,0.0,0.0,0.0,0.0,0.0,0.0,0.0,0.0,0.0,0.0,0.0,0.0,0.0,0.0,0.0,0.0,0.0,0.0,0.0,0.0,0.0,0.0,0.0,0.0,0.0,0.0,0.0,0.0,0.0,0.0,0.0,0.0,0.0,0.0,0.0,0.0,0.0,0.0,0.0,0.0,0.0,0.0,0.0,0.0,0.0,0.0,0.0,0.0,0.0,0.0,0.0,0.0,0.0,0.0,0.0,0.0,0.0,0.0,0.0,0.0,0.0,0.0,0.0,0.0,0.0,0.0,0.0,0.0,0.0,0.0,0.0,0.0,0.0,0.0,0.0,0.0,0.0,0.0,0.0,0.0,0.0,0.0,0.0,0.0,0.0,0.0,0.0,0.0,0.0,0.0,0.0,-0.3977,-0.4482,-0.5481,-0.6969,-0.7861,-0.8799,0.0,0.0,0.0,0.0,0.0,0.0,0.0,0.0,0.0,0.0,0.0,0.0,0.0,0.0,0.0,0.0,0.0,0.0,0.0,0.0,0.0,0.0,0.0,0.0,0.0,0.0,0.0,0.0,0.0,0.0,0.0,0.0,0.0,0.0,0.0,0.0,0.0,0.0,0.0,0.0,0.0,0.0,0.0,0.0,0.0,0.0,0.0,0.0,0.0,0.0,0.0,0.0,0.0,0.0,0.0,0.0,0.0,0.0,0.0,0.0,0.0,0.0,0.0,0.0,0.0,0.0,0.0,0.0,0.0,0.0,0.0,0.0,0.0,0.0,0.0,0.0,0.0,0.0,0.0,0.0,0.0,0.0,0.0,0.0,0.0,0.0,0.0,0.0,0.0,0.0,0.0,0.0,0.0,0.0,0.0,0.0,0.0,0.0,0.0,0.0,0.0,0.0,0.0,0.0,0.0,0.0,0.0,0.0,0.0,-0.6197,-0.6311,-0.7193,-0.8844,-0.9625,-1.0511,-1.1546,0.0,0.0,0.0,0.0,0.0,0.0,0.0,0.0,0.0,0.0,0.0,0.0,0.0,0.0,0.0,0.0,0.0,0.0,0.0,0.0,0.0,0.0,0.0,0.0,0.0,0.0,0.0,0.0,0.0,0.0,0.0,0.0,0.0,0.0,0.0,0.0,0.0,0.0,0.0,0.0,0.0,0.0,0.0,0.0,0.0,0.0,0.0,0.0,0.0,0.0,0.0,0.0,0.0,0.0,0.0,0.0,0.0,0.0,0.0,0.0,0.0,0.0,0.0,0.0,0.0,0.0,0.0,0.0,0.0,0.0,0.0,0.0,0.0,0.0,0.0,0.0,0.0,0.0,0.0,0.0,0.0,0.0,0.0,0.0,0.0,0.0,0.0,0.0,0.0,0.0,0.0,0.0,0.0,0.0,0.0,0.0,0.0,0.0,0.0,0.0,0.0,0.0,0.0,0.0,0.0,0.0,0.0,0.0,-0.9013,-0.9068,-0.9783,-1.1051,-1.116,-1.1601,0.0,0.0,0.0,0.0,0.0,0.0,0.0,0.0,0.0,0.0,0.0,0.0,0.0,0.0,0.0,0.0,0.0,0.0,0.0,0.0,0.0,0.0,0.0,0.0,0.0,0.0,0.0,0.0,0.0,0.0,0.0,0.0,0.0,0.0,0.0,0.0,0.0,0.0,0.0,0.0,0.0,0.0,0.0,0.0,0.0,0.0,0.0,0.0,0.0,0.0,0.0,0.0,0.0,0.0,0.0,0.0,0.0,0.0,0.0,0.0,0.0,0.0,0.0,0.0,0.0,0.0,0.0,0.0,0.0,0.0,0.0,0.0,0.0,0.0,0.0,0.0,0.0,0.0,0.0,0.0,0.0,0.0,0.0,0.0,0.0,0.0,0.0,0.0,0.0,0.0,0.0,0.0,0.0,0.0,0.0,0.0,0.0,0.0,0.0,0.0,0.0,0.0,0.0,0.0,0.0,0.0,0.0,0.0,0.0,-1.0554,-1.1605,-1.2041,-1.1764,-1.1978,-1.259,0.0,0.0,0.0,0.0,0.0,0.0,0.0,0.0,0.0,0.0,0.0,0.0,0.0,0.0,0.0,0.0,0.0,0.0,0.0,0.0,0.0,0.0,0.0,0.0,0.0,0.0,0.0,0.0,0.0,0.0,0.0,0.0,0.0,0.0,0.0,0.0,0.0,0.0,0.0,0.0,0.0,0.0,0.0,0.0,0.0,0.0,0.0,0.0,0.0,0.0,0.0,0.0,0.0,0.0,0.0,0.0,0.0,0.0,0.0,0.0,0.0,0.0,0.0,0.0,0.0,0.0,0.0,0.0,0.0,0.0,0.0,0.0,0.0,0.0,0.0,0.0,0.0,0.0,0.0,0.0,0.0,0.0,0.0,0.0,0.0,0.0,0.0,0.0,0.0,0.0,0.0,0.0,0.0,0.0,0.0,0.0,0.0,0.0,0.0,0.0,0.0,0.0,0.0,0.0,0.0,0.0,0.0,0.0,-1.1728,-1.1991,-1.2871,-1.3147,-1.292,-1.3083,-1.3472,0.0,0.0,0.0,0.0,0.0,0.0,0.0,0.0,0.0,0.0,0.0,0.0,0.0,0.0,0.0,0.0,0.0,0.0,0.0,0.0,0.0,0.0,0.0,0.0,0.0,0.0,0.0,0.0,0.0,0.0,0.0,0.0,0.0,0.0,0.0,0.0,0.0,0.0,0.0,0.0,0.0,0.0,0.0,0.0,0.0,0.0,0.0,0.0,0.0,0.0,0.0,0.0,0.0,0.0,0.0,0.0,0.0,0.0,0.0,0.0,0.0,0.0,0.0,0.0,0.0,0.0,0.0,0.0,0.0,0.0,0.0,0.0,0.0,0.0,0.0,0.0,0.0,0.0,0.0,0.0,0.0,0.0,0.0,0.0,0.0,0.0,0.0,0.0,0.0,0.0,0.0,0.0,0.0,0.0,0.0,0.0,0.0,0.0,0.0,0.0,0.0,0.0,0.0,0.0,0.0,0.0,0.0,0.0,-1.2223,-1.3266,-1.3369,-1.3645,-1.4191,-1.4196,-1.4196,0.0,0.0,0.0,0.0,0.0,0.0,0.0,0.0,0.0,0.0,0.0,0.0,0.0,0.0,0.0,0.0,0.0,0.0,0.0,0.0,0.0,0.0,0.0,0.0,0.0,0.0,0.0,0.0,0.0,0.0,0.0,0.0,0.0,0.0,0.0,0.0,0.0,0.0,0.0,0.0,0.0,0.0,0.0,0.0,0.0,0.0,0.0,0.0,0.0,0.0,0.0,0.0,0.0,0.0,0.0,0.0,0.0,0.0,0.0,0.0,0.0,0.0,0.0,0.0,0.0,0.0,0.0,0.0,0.0,0.0,0.0,0.0,0.0,0.0,0.0,0.0,0.0,0.0,0.0,0.0,0.0,0.0,0.0,0.0,0.0,0.0,0.0,0.0,0.0,0.0,0.0,0.0,0.0,0.0,0.0,0.0,0.0,0.0,0.0,0.0,0.0,0.0,0.0,0.0,0.0,0.0,0.0,0.0,-1.255,-1.3261,-1.3759,-1.4083,-1.4191,-1.4196,-1.4196,0.0,0.0,0.0,0.0,0.0,0.0,0.0,0.0,0.0,0.0,0.0,0.0,0.0,0.0,0.0,0.0,0.0,0.0,0.0,0.0,0.0,0.0,0.0,0.0,0.0,0.0,0.0,0.0,0.0,0.0,0.0,0.0,0.0,0.0,0.0,0.0,0.0,0.0,0.0,0.0,0.0,0.0,0.0,0.0,0.0,0.0,0.0,0.0,-1.3156,0.0,0.0,0.0,0.0,0.0,0.0,0.0,0.0,0.0,0.0,0.0,0.0,0.0,0.0,0.0,0.0,0.0,0.0,0.0,0.0,0.0,0.0,0.0,0.0,0.0,0.0,0.0,0.0,0.0,0.0,0.0,0.0,0.0,0.0,0.0,0.0,0.0,0.0,0.0,0.0,0.0,0.0,0.0,0.0,0.0,0.0,0.0,0.0,0.0,0.0,0.0,0.0,0.0,0.0,0.0,0.0,0.0,0.0,0.0,-1.3098,-1.3699,-1.4029,-1.4196,-1.4196,-1.4196,-1.4196,0.0,0.0,0.0,0.0,0.0,0.0,0.0,0.0,0.0,0.0,0.0,0.0,0.0,0.0,0.0,0.0,0.0,0.0,0.0,0.0,0.0,0.0,0.0,0.0,0.0,0.0,0.0,0.0,0.0,0.0,0.0,0.0,0.0,0.0,0.0,0.0,0.0,0.0,0.0,0.0,0.0,0.0,0.0,0.0,0.0,0.0,0.0,0.0,0.0,0.0,0.0,0.0,0.0,0.0,0.0,0.0,0.0,0.0,0.0,0.0,0.0,0.0,0.0,0.0,0.0,0.0,0.0,0.0,0.0,0.0,0.0,0.0,0.0,0.0,0.0,0.0,0.0,0.0,0.0,0.0,0.0,0.0,0.0,0.0,0.0,0.0,0.0,0.0,0.0,0.0,0.0,0.0,0.0,0.0,0.0,0.0,0.0,0.0,0.0,0.0,0.0,0.0,0.0,0.0,0.0,0.0,0.0,-1.3039,-1.3591,-1.4137,-1.4196,-1.4196,-1.4196,-1.4196,-1.4245,-1.4407,0.0,0.0,0.0,0.0,0.0,0.0,0.0,0.0,0.0,0.0,0.0,0.0,0.0,0.0,0.0,0.0,0.0,0.0,0.0,0.0,0.0,0.0,0.0,0.0,0.0,0.0,0.0,0.0,0.0,0.0,0.0,0.0,0.0,0.0,0.0,0.0,0.0,0.0,-1.3618,-1.3429,0.0,0.0,0.0,0.0,0.0,0.0,0.0,0.0,-1.674,0.0,0.0,0.0,0.0,0.0,0.0,0.0,0.0,0.0,0.0,0.0,0.0,0.0,0.0,0.0,0.0,0.0,0.0,0.0,0.0,0.0,0.0,0.0,0.0,0.0,0.0,0.0,0.0,0.0,0.0,0.0,0.0,0.0,0.0,0.0,0.0,0.0,0.0,0.0,0.0,0.0,0.0,0.0,0.0,0.0,0.0,0.0,0.0,0.0,0.0,0.0,0.0,0.0,0.0,0.0,0.0,-1.3098,-1.3261,-1.3591,-1.4191,-1.4196,-1.4196,-1.4196,-1.4196,-1.4568,-1.5298,0.0,0.0,0.0,0.0,0.0,0.0,0.0,0.0,0.0,0.0,0.0,0.0,0.0,0.0,0.0,0.0,0.0,0.0,0.0,0.0,0.0,0.0,0.0,0.0,0.0,0.0,0.0,0.0,0.0,0.0,0.0,0.0,0.0,0.0,0.0,0.0,0.0,0.0,0.0,-1.544,-1.5685,0.0,0.0,0.0,0.0,0.0,0.0,0.0,0.0,-1.7596,0.0,0.0,0.0,0.0,0.0,0.0,0.0,0.0,0.0,0.0,0.0,0.0,0.0,0.0,0.0,0.0,0.0,0.0,0.0,0.0,0.0,0.0,0.0,0.0,0.0,0.0,0.0,0.0,0.0,0.0,0.0,0.0,0.0,0.0,0.0,0.0,0.0,0.0,0.0,0.0,0.0,0.0,0.0,0.0,0.0,0.0,0.0,0.0,0.0,0.0,0.0,0.0,0.0,0.0,0.0,-1.3261,-1.3591,-1.3921,-1.4191,-1.4196,-1.4196,-1.4191,-1.4174,-1.4537,0.0,0.0,0.0,0.0,0.0,0.0,0.0,0.0,0.0,0.0,0.0,0.0,0.0,0.0,0.0,0.0,0.0,0.0,0.0,0.0,0.0,0.0,0.0,0.0,0.0,0.0,0.0,0.0,0.0,0.0,0.0,0.0,0.0,0.0,0.0,0.0,0.0,0.0,0.0,0.0,-1.6067,-1.6456,-1.685,0.0,0.0,0.0,0.0,0.0,0.0,-1.8599,-1.8531,0.0,0.0,0.0,0.0,0.0,0.0,0.0,0.0,0.0,0.0,0.0,0.0,0.0,0.0,0.0,0.0,0.0,0.0,0.0,0.0,0.0,0.0,0.0,0.0,0.0,0.0,0.0,0.0,0.0,0.0,0.0,0.0,0.0,0.0,0.0,0.0,0.0,0.0,0.0,0.0,0.0,0.0,0.0,0.0,0.0,0.0,0.0,0.0,0.0,0.0,0.0,0.0,0.0,0.0,0.0,-1.3478,-1.3975,-1.4196,-1.4196,-1.4196,-1.4169,-1.4116,-1.4139,-1.4364,0.0,0.0,0.0,0.0,0.0,0.0,0.0,0.0,0.0,0.0,0.0,0.0,0.0,0.0,0.0,0.0,0.0,0.0,0.0,0.0,0.0,0.0,0.0,0.0,0.0,0.0,0.0,0.0,0.0,0.0,0.0,0.0,0.0,0.0,0.0,0.0,0.0,0.0,0.0,0.0,0.0,-1.667,-1.6801,-1.7428,0.0,0.0,0.0,0.0,-1.8885,-1.9155,0.0,0.0,0.0,0.0,0.0,0.0,0.0,0.0,0.0,0.0,0.0,0.0,0.0,0.0,0.0,0.0,0.0,0.0,0.0,0.0,0.0,0.0,0.0,0.0,0.0,0.0,0.0,0.0,0.0,0.0,0.0,0.0,0.0,0.0,0.0,0.0,0.0,0.0,0.0,0.0,0.0,0.0,0.0,0.0,0.0,0.0,0.0,0.0,0.0,0.0,0.0,0.0,0.0,0.0,0.0,0.0,-1.4029,-1.4137,-1.4196,-1.4196,-1.4196,-1.4089,-1.3868,-1.3836,-1.4145,0.0,0.0,0.0,0.0,0.0,0.0,0.0,0.0,0.0,0.0,0.0,0.0,0.0,0.0,0.0,0.0,0.0,0.0,0.0,0.0,0.0,0.0,0.0,0.0,0.0,0.0,0.0,0.0,0.0,0.0,0.0,0.0,0.0,0.0,0.0,0.0,0.0,0.0,0.0,0.0,0.0,-1.6498,-1.7216,-1.7405,-1.7652,0.0,0.0,-1.8793,-1.9423,-1.9921,0.0,0.0,0.0,0.0,0.0,0.0,0.0,0.0,0.0,0.0,0.0,0.0,0.0,0.0,0.0,0.0,0.0,0.0,0.0,0.0,0.0,0.0,0.0,0.0,0.0,0.0,0.0,0.0,0.0,0.0,0.0,0.0,0.0,0.0,0.0,0.0,0.0,0.0,0.0,0.0,0.0,0.0,0.0,0.0,0.0,0.0,0.0,0.0,0.0,0.0,0.0,0.0,0.0,0.0,0.0,-1.2989,-1.4137,-1.4196,-1.4196,-1.4191,-1.4056,-1.3933,-1.3772,-1.3716,-1.3835,0.0,0.0,0.0,0.0,0.0,0.0,0.0,0.0,0.0,0.0,0.0,0.0,0.0,0.0,0.0,0.0,0.0,0.0,0.0,0.0,0.0,0.0,0.0,0.0,0.0,0.0,0.0,0.0,0.0,0.0,0.0,0.0,0.0,0.0,0.0,0.0,0.0,0.0,0.0,0.0,0.0,0.0,-1.7941,-1.8721,0.0,0.0,0.0,-2.0152,-2.0547,0.0,0.0,0.0,0.0,0.0,0.0,0.0,0.0,0.0,0.0,0.0,0.0,0.0,0.0,0.0,0.0,0.0,0.0,0.0,0.0,0.0,0.0,0.0,0.0,0.0,0.0,0.0,0.0,0.0,0.0,0.0,0.0,0.0,0.0,0.0,0.0,0.0,0.0,0.0,0.0,0.0,0.0,0.0,0.0,0.0,0.0,0.0,0.0,0.0,0.0,0.0,0.0,0.0,0.0,0.0,0.0,0.0,-1.4191,-1.4132,-1.4105,-1.4094,-1.3863,-1.3706,-1.3636,-1.35,0.0,0.0,0.0,0.0,0.0,0.0,0.0,0.0,0.0,0.0,0.0,0.0,0.0,0.0,0.0,0.0,0.0,0.0,0.0,0.0,0.0,0.0,0.0,0.0,0.0,0.0,0.0,-1.5825,0.0,0.0,0.0,0.0,0.0,0.0,0.0,0.0,0.0,0.0,0.0,0.0,0.0,0.0,-1.8519,-1.8788,-1.9883,-2.0744,0.0,0.0,-2.135,-2.1652,-2.1968,-2.2085,0.0,0.0,0.0,0.0,0.0,0.0,0.0,0.0,0.0,0.0,0.0,0.0,0.0,0.0,0.0,0.0,0.0,0.0,0.0,0.0,0.0,0.0,0.0,0.0,0.0,0.0,0.0,0.0,0.0,0.0,0.0,0.0,0.0,0.0,0.0,0.0,0.0,0.0,0.0,0.0,0.0,0.0,0.0,0.0,0.0,0.0,0.0,0.0,0.0,0.0,0.0,0.0,0.0,0.0,0.0,-1.4132,-1.3965,-1.3846,-1.3841,-1.362,-1.3389,-1.3157,-1.312,-1.3056,0.0,0.0,0.0,0.0,0.0,0.0,0.0,0.0,0.0,0.0,0.0,0.0,0.0,0.0,0.0,0.0,0.0,0.0,0.0,0.0,0.0,0.0,0.0,0.0,0.0,0.0,0.0,0.0,0.0,0.0,0.0,0.0,0.0,0.0,0.0,0.0,0.0,0.0,0.0,0.0,0.0,-1.8788,-1.9914,-2.0393,-2.0637,0.0,0.0,-2.1856,-2.2511,-2.3047,-2.358,-2.4143,0.0,0.0,0.0,0.0,0.0,0.0,0.0,0.0,0.0,0.0,0.0,0.0,0.0,0.0,0.0,0.0,0.0,0.0,0.0,0.0,0.0,0.0,0.0,0.0,0.0,0.0,0.0,0.0,0.0,0.0,0.0,0.0,0.0,0.0,0.0,0.0,0.0,0.0,0.0,0.0,0.0,0.0,0.0,0.0,0.0,0.0,0.0,0.0,0.0,0.0,0.0,0.0,0.0,-1.3156,-1.3906,-1.3728,-1.361,-1.3599,-1.3367,-1.32,-1.3104,-1.2969,-1.2856,0.0,0.0,0.0,0.0,0.0,0.0,0.0,0.0,0.0,0.0,0.0,0.0,0.0,0.0,0.0,0.0,0.0,0.0,0.0,0.0,0.0,0.0,0.0,0.0,0.0,0.0,0.0,0.0,-1.5927,-1.6123,-1.6298,0.0,0.0,0.0,0.0,0.0,0.0,0.0,0.0,0.0,0.0,-2.0044,-2.1508,-2.2378,0.0,0.0,-2.3691,-2.3792,-2.4179,-2.4196,-2.4186,-2.4454,-2.4507,0.0,0.0,0.0,0.0,0.0,0.0,0.0,0.0,0.0,0.0,0.0,0.0,0.0,0.0,0.0,0.0,0.0,0.0,0.0,0.0,0.0,0.0,0.0,0.0,0.0,0.0,0.0,0.0,0.0,0.0,0.0,0.0,0.0,0.0,0.0,0.0,0.0,0.0,0.0,0.0,0.0,0.0,0.0,0.0,0.0,0.0,0.0,0.0,0.0,0.0,0.0,0.0,-1.3235,-1.3814,-1.3518,-1.3367,-1.3367,-1.3125,-1.3001,-1.2996,-1.2899,-1.2807,0.0,0.0,0.0,0.0,0.0,0.0,0.0,0.0,0.0,0.0,0.0,0.0,0.0,0.0,0.0,0.0,0.0,0.0,0.0,0.0,0.0,0.0,0.0,0.0,0.0,0.0,0.0,0.0,-1.617,-1.64,-1.6588,0.0,0.0,0.0,0.0,0.0,0.0,0.0,0.0,0.0,0.0,-2.1373,-2.2945,-2.3942,-2.4746,-2.5477,-2.5265,-2.5057,-2.5189,-2.4797,-2.4572,-2.4861,0.0,0.0,0.0,0.0,0.0,0.0,0.0,0.0,0.0,0.0,0.0,0.0,0.0,0.0,0.0,0.0,0.0,0.0,0.0,0.0,0.0,0.0,0.0,0.0,0.0,0.0,0.0,0.0,0.0,0.0,-0.1849,0.0,0.0,0.0,0.0,0.0,0.0,0.0,0.0,0.0,0.0,0.0,0.0,0.0,0.0,0.0,0.0,0.0,0.0,0.0,0.0,0.0,0.0,-1.3277,-1.3756,-1.3346,-1.3109,-1.3109,-1.2888,-1.2824,-1.2824,-1.2813,-1.2807,-1.2807,0.0,0.0,0.0,0.0,0.0,0.0,0.0,0.0,0.0,0.0,0.0,0.0,0.0,0.0,0.0,0.0,0.0,0.0,0.0,0.0,0.0,0.0,0.0,0.0,0.0,0.0,-1.6218,-1.6454,-1.6588,0.0,0.0,0.0,0.0,0.0,0.0,0.0,0.0,0.0,0.0,-2.1989,-2.2747,-2.3988,-2.4761,-2.527,-2.5594,-2.5375,-2.5189,-2.5244,-2.485,-2.4775,0.0,0.0,0.0,0.0,0.0,0.0,0.0,0.0,0.0,0.0,0.0,0.0,0.0,0.0,0.0,0.0,0.0,0.0,0.0,0.0,0.0,0.0,0.0,0.0,0.0,0.0,0.0,-0.1795,-0.1795,0.0,0.0,0.0,0.0,0.0,0.0,0.0,0.0,0.0,0.0,0.0,-0.7926,-0.8455,0.0,0.0,0.0,0.0,0.0,0.0,0.0,0.0,0.0,0.0,0.0,0.0,-1.3143,-1.333,-1.3039,-1.2926,-1.2926,-1.2851,-1.2807,-1.2807,-1.2807,-1.2807,-1.2813,0.0,0.0,0.0,0.0,0.0,0.0,0.0,0.0,0.0,0.0,0.0,0.0,0.0,0.0,0.0,0.0,0.0,0.0,0.0,0.0,0.0,0.0,0.0,0.0,0.0,-1.6548,0.0,0.0,0.0,0.0,0.0,0.0,0.0,0.0,0.0,0.0,0.0,-1.997,-2.1862,-2.2381,-2.3227,-2.5023,-2.5593,-2.6074,0.0,0.0,0.0,0.0,0.0,0.0,0.0,0.0,0.0,0.0,0.0,0.0,0.0,0.0,-3.0049,-3.019,-3.0177,-3.0216,-3.0292,0.0,0.0,0.0,0.0,0.0,0.0,0.0,0.0,0.0,0.0,0.0,0.0,0.0,0.0,-0.1789,0.0,-0.1779,0.0,0.0,0.0,0.0,0.0,0.0,0.0,0.0,-0.4618,-0.6012,-0.7343,-0.8164,-0.9112,0.0,-1.0413,-1.0554,0.0,0.0,0.0,0.0,0.0,0.0,0.0,0.0,-1.3098,-1.3093,-1.2877,-1.2807,-1.2807,-1.2807,-1.2807,-1.2807,-1.2807,-1.2807,-1.2807,-1.4004,-1.4669,0.0,0.0,0.0,0.0,0.0,0.0,0.0,0.0,0.0,0.0,0.0,0.0,0.0,0.0,0.0,0.0,0.0,0.0,0.0,0.0,0.0,0.0,0.0,-1.6831,0.0,0.0,0.0,0.0,0.0,0.0,0.0,0.0,0.0,-2.0692,-2.0624,-2.1163,-2.2719,-2.3376,-2.422,-2.5732,0.0,0.0,0.0,0.0,0.0,0.0,0.0,-2.6565,-2.7435,-2.7597,-2.7891,-2.8791,-2.9417,-2.9908,-3.0139,0.0,0.0,-3.0355,-3.0406,-3.0406,-3.0495,-3.0495,-3.0596,-3.0934,-3.1097,-3.1394,0.0,0.0,0.0,0.0,0.0,0.0,0.0,0.0,-0.1793,-0.1777,0.0,-0.1804,0.0,0.0,0.0,0.0,0.0,-0.1617,0.0,0.0,-0.3853,-0.5428,-0.7685,-0.8358,-0.9374,-1.0621,-1.0672,-1.0586,-1.0379,-1.0366,0.0,0.0,0.0,0.0,0.0,0.0,-1.3098,-1.3082,-1.2921,-1.2807,-1.2807,-1.2807,-1.2807,-1.2807,-1.2807,-1.2807,-1.2813,-1.3522,-1.3902,-1.3902,-1.5378,0.0,0.0,0.0,0.0,0.0,0.0,0.0,0.0,0.0,0.0,0.0,0.0,0.0,0.0,0.0,0.0,0.0,0.0,0.0,0.0,-1.7026,0.0,0.0,0.0,0.0,0.0,0.0,0.0,0.0,0.0,0.0,-2.1678,-2.2837,-2.3898,-2.4162,0.0,0.0,0.0,0.0,-2.6976,-2.7231,-2.7224,-2.7183,-2.7216,-2.7164,-2.7476,-2.8371,0.0,0.0,-2.9675,-2.9792,-2.9946,-3.033,-3.0406,-3.0406,-3.0406,-3.0444,-3.0495,-3.066,-3.0736,-3.1048,-3.1846,-3.2037,-3.2326,-0.0504,0.0,0.0,0.0,0.0,-0.1795,-0.1795,-0.1793,-0.1828,-0.1813,-0.1803,-0.178,0.0,0.0,0.0,0.0,0.0,0.0,-0.178,-0.2164,-0.3196,-0.4735,-0.6692,-0.7686,-0.8989,-1.0455,-1.0505,-1.0416,-1.0237,-1.0107,-1.0111,-1.0286,0.0,0.0,0.0,0.0,-1.2513,-1.2856,-1.2845,-1.2807,-1.2807,-1.2807,-1.2807,-1.2807,-1.2807,-1.2807,-1.2813,-1.3522,-1.3902,-1.3902,-1.5378,0.0,0.0,0.0,0.0,0.0,0.0,0.0,0.0,0.0,0.0,0.0,0.0,0.0,0.0,0.0,0.0,0.0,0.0,0.0,-1.72,-1.7246,-1.7239,0.0,0.0,0.0,0.0,0.0,0.0,0.0,0.0,0.0,-2.3047,-2.3098,-2.3539,0.0,0.0,-2.6168,-2.6635,-2.6989,-2.7101,-2.6864,-2.7022,0.0,0.0,-2.7905,-2.8371,-2.9287,-2.9417,-2.9507,-2.9753,-2.9946,-3.0075,-3.0355,-3.0533,-3.0647,-3.0798,-3.0823,-3.0836,-3.0949,-3.1334,-3.1773,-3.2051,-3.2506,-3.3143,0.151,-0.0336,-0.0897,-0.1346,-0.157,-0.1627,-0.1676,-0.1776,-0.1812,-0.1791,-0.1767,-0.1695,-0.1672,-0.1645,-0.1645,0.0,0.0,0.0,-0.1633,-0.1715,-0.2694,-0.4024,-0.5714,-0.698,-0.8234,-0.9405,-0.9716,-0.9752,-0.9578,-0.9477,-0.9599,-0.9992,0.0,0.0,-1.1088,-1.1703,-1.2175,-1.2467,-1.2716,-1.2807,-1.2807,-1.2807,-1.2807,-1.2807,-1.2807,-1.2807,-1.2813,-1.3238,-1.348,-1.3474,-1.4949,-1.5764,0.0,0.0,0.0,0.0,0.0,0.0,0.0,0.0,0.0,0.0,0.0,-1.7286,0.0,0.0,0.0,0.0,-1.7286,-1.7286,-1.7286,-1.7286,0.0,0.0,0.0,0.0,0.0,0.0,0.0,-2.1771,-2.2516,-2.3252,-2.4192,-2.4094,-2.437,-2.5481,-2.6125,-2.6611,-2.6993,0.0,-2.7698,-2.7186,-2.7811,-2.8322,-2.8324,-2.8718,-2.9209,-2.9702,-2.9779,-2.9779,-2.9779,-2.996,-3.0152,-3.0368,-3.0571,-3.0874,-3.132,-3.1431,-3.1431,-3.1431,-3.2015,-3.2613,-3.2883,-3.3339,-3.3905,0.3857,0.134,0.0,-0.0839,-0.1231,-0.1287,-0.1496,-0.1746,-0.1798,-0.1766,-0.1715,-0.1712,-0.1643,-0.1566,-0.1566,0.0,-0.1566,-0.1619,-0.1637,-0.1719,-0.2328,-0.3384,-0.4848,-0.6194,-0.7158,-0.7857,-0.8526,-0.8743,-0.8591,-0.8638,-0.8974,-0.9533,-1.0068,-1.0364,-1.0462,-1.1389,-1.1878,-1.1927,-1.2419,-1.2662,-1.2667,-1.2667,-1.2667,-1.2716,-1.2716,-1.2764,-1.2807,-1.2813,-1.2807,-1.2856,-1.4196,-1.5003,-1.5051,0.0,0.0,0.0,0.0,0.0,0.0,0.0,0.0,0.0,0.0,0.0,0.0,0.0,0.0,0.0,-1.7286,0.0,-1.7286,-1.7372,0.0,0.0,0.0,-1.8934,-1.901,-2.0628,-2.1932,-2.2382,0.0,0.0,-2.5018,-2.5523,-2.5816,-2.5785,-2.6462,-2.7023,-2.7305,-2.8053,-2.8438,-2.7916,-2.9026,-2.9648,-2.9032,-2.9374,-2.9714,-2.9779,-2.9779,-2.983,-2.9934,-3.0101,-3.0292,-3.0621,-3.0798,-3.1147,-3.2051,-3.2254,-3.2277,-3.2326,-3.2826,-3.3492,-3.4027,-3.4312,-3.4662,0.4441,0.2907,0.2524,0.1098,-0.099,-0.121,-0.1361,-0.1445,-0.1639,-0.1727,-0.1713,-0.1638,-0.1624,-0.1566,-0.1566,-0.1566,-0.1618,-0.1641,-0.1667,-0.1747,-0.234,-0.3169,-0.4249,-0.5377,-0.6258,-0.7009,-0.7598,-0.7769,-0.7588,-0.8182,-0.8567,-0.8733,-0.9422,-1.0019,-1.0413,-1.0654,-1.0998,-1.1389,-1.1536,-1.1585,-1.1585,-1.1585,-1.178,-1.217,-1.217,-1.237,-1.2759,-1.2807,-1.2807,-1.2813,-1.3667,-1.419,-1.419,-1.5622,0.0,0.0,0.0,0.0,0.0,0.0,0.0,0.0,0.0,-1.7286,-1.7286,0.0,-1.7286,0.0,-1.7286,-1.7286,-1.7333,-1.7971,0.0,0.0,-1.9285,-2.015,-2.0926,-2.169,-2.2462,-2.3345,-2.4217,-2.4881,-2.5086,-2.5839,-2.6215,-2.5893,-2.6594,-2.7316,-2.7704,-2.7904,-2.8041,-2.7967,-2.8689,-2.915,-2.8843,-2.9308,-2.9779,-2.9779,-2.9779,-3.0011,-3.0545,-3.0934,-3.1368,-3.2005,-3.239,-3.2712,-3.2897,-3.3388,-3.3719,-3.3774,-3.3925,-3.4075,-3.4279,-3.4758,-3.5311,0.5272,0.4149,0.4095,0.2898,0.0908,0.0645,0.016,-0.0368,-0.0521,-0.093,-0.1487,-0.1574,-0.1566,-0.1566,-0.1566,-0.1566,-0.1618,-0.1635,-0.1658,-0.1738,-0.2054,-0.2603,-0.3399,-0.4343,-0.496,-0.527,-0.5841,-0.6191,-0.6334,-0.6781,-0.7282,-0.7885,-0.868,-0.9225,-0.9517,-1.0113,-1.056,-1.085,-1.1096,-1.1194,-1.1194,-1.1194,-1.134,-1.1639,-1.1639,-1.178,-1.2078,-1.2078,-1.2175,-1.2467,-1.3136,-1.3655,-1.3902,-1.5384,-1.619,0.0,0.0,0.0,0.0,0.0,0.0,0.0,0.0,0.0,0.0,0.0,-1.7286,-1.7286,-1.7692,-1.7971,-1.7971,-1.8842,-1.9422,-1.9422,-2.0286,-2.1096,-2.1659,-2.2255,-2.2964,-2.3725,-2.4209,-2.457,-2.4756,-2.532,-2.5681,-2.5571,-2.6429,-2.7229,-2.7617,-2.8255,-2.8717,-2.8465,-2.9162,-2.9613,-2.9165,-2.9468,-2.9779,-2.9779,-2.9779,-3.0037,-3.0758,-3.1244,-3.1773,-3.2511,-3.296,-3.3318,-3.363,-3.3993,-3.438,-3.4758,-3.4824,-3.4824,-3.4824,-3.5166,-3.5522,0.6155,0.524,0.5185,0.4558,0.3615,0.3353,0.2405,0.1033,0.0878,0.0051,-0.1212,-0.1465,-0.1566,-0.1566,-0.1566,-0.1566,-0.1566,-0.162,-0.1637,-0.1714,-0.1714,-0.1989,-0.2493,-0.3174,-0.3454,-0.33,-0.3908,-0.4479,-0.4929,-0.5031,-0.5729,-0.6936,-0.7733,-0.818,-0.828,-0.9521,-1.0167,-1.0314,-1.0752,-1.1002,-1.0998,-1.0998,-1.0998,-1.1096,-1.1096,-1.1145,-1.1194,-1.1194,-1.1438,-1.1883,-1.2506,-1.3076,-1.3565,-1.5045,-1.5906,0.0,-1.6763,0.0,0.0,0.0,0.0,0.0,0.0,0.0,0.0,-1.7286,-1.7326,-1.7466,-1.8288,-1.8842,-1.8972,-1.9832,-2.0367,-2.0413,-2.1275,-2.1872,-2.1917,-2.2646,-2.3325,-2.375,-2.3838,-2.4014,-2.4385,-2.4654,-2.4904,-2.5108,-2.6196,-2.6997,-2.7272,-2.8633,-2.9571,-2.9208,-2.9911,-3.015,-2.9814,-2.974,-2.9779,-2.9779,-2.9779,-3.0075,-3.0796,-3.1341,-3.1892,-3.2712,-3.3311,-3.3748,-3.4346,-3.4461,-3.4691,-3.5311,-3.5424,-3.5424,-3.5424,-3.5457,-3.5522,0.6587,0.629,0.6287,0.6118,0.5816,0.5735,0.4463,0.2329,0.1266,0.0051,-0.1162,-0.1263,-0.1414,-0.1566,-0.1566,-0.1566,-0.1618,-0.1643,-0.1656,-0.1714,-0.1714,-0.1769,-0.1876,-0.2404,-0.2635,-0.2635,-0.3132,-0.3481,-0.3581,-0.423,-0.4929,-0.5582,-0.6376,-0.7027,-0.7437,0.0,0.0,0.0,-0.9821,-0.9924,-0.992,-0.992,-1.0117,-1.0507,-1.056,0.0,-1.1194,-1.1194,-1.1247,-1.134,-1.1487,0.0,0.0,0.0,0.0,0.0,0.0,0.0,0.0,0.0,0.0,0.0,-1.7286,-1.7286,-1.7286,-1.7286,-1.7652,-1.8419,-1.8696,-1.9109,-1.9869,-2.0836,-2.1418,-2.1472,-2.228,-2.2818,-2.2828,-2.3349,-2.3701,-2.3779,-2.4082,-2.4316,-2.4355,-2.4654,-2.4653,-2.4496,-2.5954,-2.6988,-2.6936,-2.8303,-2.9334,-2.9638,-2.9863,-2.993,-2.9817,-2.9779,-2.9779,-2.9779,-2.9779,-3.0113,-3.0796,-3.1756,-3.2621,-3.3402,-3.4404,-3.5049,-3.5246,-3.5279,-3.5279,-3.5457,-3.5489,-3.5489,-3.5489,-3.5489,-3.5489,0.6941,0.0,0.6735,0.6648,0.0,0.6439,0.5684,0.4475,0.3271,0.1712,0.0,-0.0151,-0.0656,-0.1414,-0.1414,-0.1465,-0.1567,-0.1633,-0.164,-0.164,-0.164,-0.1639,-0.1639,-0.1877,-0.202,-0.2019,-0.2271,-0.2524,-0.2826,-0.3226,-0.3677,-0.4232,-0.5029,-0.5529,-0.5832,-0.688,-0.8124,-0.9575,-0.9624,-0.9624,-0.9624,-0.9624,-0.9723,-0.9969,0.0,0.0,0.0,0.0,0.0,0.0,0.0,0.0,0.0,0.0,0.0,-1.395,-1.573,-1.6784,-1.6784,-1.6918,-1.6958,-1.6951,-1.6965,-1.7052,-1.7286,-1.7746,-1.8241,-1.8742,-1.9658,-2.043,-2.0917,-2.1828,-2.2413,-2.2422,-2.2828,-2.3101,-2.312,-2.333,-2.3422,-2.3486,-2.3643,-2.3734,-2.3744,-2.3879,-2.4157,-2.4456,-2.5701,-2.6794,-2.7301,-2.8426,-2.9389,-2.9752,-2.9779,-2.9792,-2.9779,-2.9779,-2.9779,-2.9779,-2.9779,-3.0101,-3.0796,-3.1806,-3.2777,-3.3644,-3.4654,-3.5374,-3.5472,-3.5489,-3.5489,-3.5489,-3.5489,-3.5489,-3.5489,-3.5489,-3.5489,0.7185,0.7188,0.6939,0.6842,0.6842,0.6589,0.6437,0.6337,0.0,0.0,0.0,0.126,0.0403,-0.0808,-0.0858,-0.1061,-0.1465,-0.1516,-0.1516,-0.1516,-0.1566,-0.1566,-0.1566,-0.1566,-0.1566,-0.1566,-0.1566,-0.1818,-0.2271,-0.227,-0.2522,-0.3078,-0.3729,-0.4128,-0.4429,-0.5477,-0.6971,-0.8825,-0.9225,-0.9476,-0.9575,-0.9624,-0.9624,-0.9624,-0.9624,-0.9624,-0.9624,-0.9624,-0.9826,-1.0216,-1.0265,-1.0462,-1.0953,-1.2495,-1.3511,-1.3757,-1.5289,-1.6339,-1.6487,-1.6588,-1.6588,-1.6588,-1.6588,-1.677,-1.7145,-1.7971,-1.8565,-1.888,-2.0376,-2.1427,-2.1793,-2.2555,-2.3047,-2.3057,-2.3091,-2.3101,-2.3101,-2.3101,-2.312,-2.3101,-2.313,-2.3101,-2.313,-2.314,-2.3517,-2.4584,-2.5516,-2.6532,-2.7747,-2.8752,-2.9481,-2.9753,-2.9779,-2.9779,-2.9779,-2.9779,-2.9779,-2.9779,-2.9779,-3.0037,-3.0658,-3.1623,-3.2635,-3.3353,-3.4438,-3.5195,-3.5457,-3.5489,-3.5489,-3.5489,-3.5489,-3.5489,-3.5489,-3.5392,-3.5246,0.7185,0.7185,0.7138,0.7138,0.7138,0.6842,0.6592,0.6337,0.5286,0.3977,0.2568,0.2518,0.1762,0.0504,0.0504,0.0,-0.0909,-0.1162,-0.1263,-0.1263,-0.1465,-0.1566,-0.1566,-0.1566,-0.1566,-0.1566,-0.1566,-0.1617,-0.1717,-0.1717,-0.1969,-0.2472,-0.2622,-0.3275,-0.4329,-0.458,-0.5177,-0.6174,-0.7726,-0.8931,-0.9575,-0.9624,-0.9624,-0.9624,-0.9624,-0.9624,-0.9624,-0.9624,-0.9628,-0.9677,-0.9727,-0.9723,-0.9871,-1.0984,-1.195,-1.2829,-1.4172,-1.5337,-1.617,-1.6447,-1.6588,-1.6588,-1.6588,-1.6636,-1.6676,-1.6817,-1.7598,-1.9163,-1.9758,-2.0529,-2.2024,-2.2618,-2.2847,-2.2838,-2.2969,-2.3101,-2.3101,-2.3091,-2.3101,-2.3101,-2.3101,-2.3101,-2.3101,-2.3101,-2.3484,-2.4413,-2.5568,-2.6554,-2.8171,-2.9067,-2.947,-2.974,-2.9779,-2.9779,-2.9779,-2.9779,-2.9779,-2.9779,-2.9779,-2.983,-2.9998,-3.123,-3.2299,-3.2713,-3.3988,-3.5001,-3.5326,-3.5489,-3.5359,-3.5326,-3.5294,-3.5359,-3.5279,-3.4839,-3.4428,0.7637,0.759,0.749,0.7441,0.7391,0.7141,0.6842,0.6589,0.6089,0.5135,0.3927,0.3877,0.312,0.1914,0.1864,0.1562,0.0907,0.0202,-0.0101,-0.0151,-0.0859,-0.1162,-0.1162,-0.1313,-0.1364,-0.1414,-0.1516,-0.1566,-0.1566,-0.1566,-0.1718,-0.1969,-0.1969,-0.2422,-0.3225,-0.3325,-0.3827,-0.4926,-0.6226,-0.7077,-0.7422,-0.8021,-0.8372,-0.852,-0.9076,-0.948,-0.9628,-0.9624,-0.9624,-0.9624,-0.9624,-0.9624,-0.9624,-1.0596,-1.1658,-1.263,-1.3794,-1.4908,-1.5927,-1.6116,-1.6157,-1.6157,-1.6163,-1.6157,-1.6157,-1.6897,-1.7956,-1.9347,-1.9977,-2.0889,-2.2255,-2.253,-2.2574,-2.2574,-2.2662,-2.2794,-2.2925,-2.2969,-2.2969,-2.3101,-2.3101,-2.3101,-2.3101,-2.3101,-2.3681,-2.4988,-2.6329,-2.7649,-2.8645,-2.8961,-2.9184,-2.9521,-2.9599,-2.965,-2.974,-2.9779,-2.9779,-2.9779,-2.9779,-2.9779,-2.9856,-3.0846,-3.1499,-3.1852,-3.2953,-3.3796,-3.409,-3.4172,-3.4254,-3.4254,-3.4254,-3.4254,-3.4153,-3.363,-3.3234,0.8386,0.8333,0.7892,0.7646,0.7593,0.7388,0.7138,0.6892,0.6895,0.6289,0.5436,0.5236,0.4429,0.3323,0.3272,0.3021,0.2517,0.1662,0.126,0.1159,0.0353,-0.0202,-0.0454,-0.0656,-0.0858,-0.1111,-0.1313,-0.1465,-0.1465,-0.1516,-0.1566,-0.1566,-0.1566,-0.1818,-0.2221,-0.222,-0.2723,-0.3728,-0.4377,-0.5125,-0.5974,-0.6772,-0.7419,-0.7915,-0.8673,-0.9183,-0.943,-0.9426,-0.9426,-0.9426,-0.9426,-0.9426,-0.9529,-1.0301,-1.1224,-1.229,-1.3366,-1.4484,-1.5635,-1.5825,-1.5825,-1.5825,-1.5825,-1.5825,-1.592,-1.6842,-1.7902,-1.8926,-1.9832,-2.0827,-2.1704,-2.2176,-2.2353,-2.2309,-2.2353,-2.2485,-2.2662,-2.2706,-2.275,-2.2925,-2.3013,-2.3003,-2.3057,-2.3101,-2.381,-2.5526,-2.7203,-2.8247,-2.8645,-2.8724,-2.8882,-2.9145,-2.9341,-2.947,-2.9689,-2.9753,-2.9779,-2.9779,-2.9779,-2.9779,-2.9934,-3.0419,-3.0932,-3.1315,-3.2001,-3.2755,-3.2904,-3.308,-3.3199,-3.3318,-3.3402,-3.3248,-3.3038,-3.2613,-3.2304,0.946,0.9316,0.8432,0.7796,0.7693,0.7593,0.7441,0.7238,0.7188,0.7089,0.6836,0.6434,0.5634,0.4732,0.4634,0.4128,0.3224,0.277,0.2619,0.2567,0.2266,0.1611,0.0756,0.0605,0.0101,-0.0656,-0.0758,-0.0858,-0.1162,-0.1212,-0.1364,-0.1566,-0.1566,-0.1617,-0.1667,-0.1667,-0.1768,-0.1869,-0.1919,-0.3623,-0.6822,-0.717,-0.767,-0.8673,-0.8775,-0.8825,-0.8924,-0.8874,-0.8874,-0.8874,-0.8871,-0.8973,-0.9225,-0.9327,-0.9957,-1.1263,-1.2328,-1.3692,-1.5527,-1.5825,-1.5758,-1.5825,-1.5798,-1.5792,-1.5798,-1.5954,-1.6433,-1.7429,-1.8411,-1.943,-2.0439,-2.1445,-2.2008,-2.1998,-2.222,-2.2397,-2.2432,-2.2441,-2.2441,-2.2441,-2.2706,-2.2847,-2.2847,-2.3101,-2.3897,-2.5526,-2.6835,-2.7846,-2.8419,-2.855,-2.8618,-2.8882,-2.9145,-2.938,-2.947,-2.965,-2.974,-2.9779,-2.9779,-2.9779,-2.9921,-3.0343,-3.0932,-3.0932,-3.1646,-3.2227,-3.2571,-3.2925,-3.2869,-3.2791,-3.2875,-3.2932,-3.2398,-3.2087,-3.2173,1.0199,0.9608,0.9801,0.985,0.9657,0.9065,0.8627,0.8326,0.7686,0.7338,0.7188,0.6939,0.6537,0.5992,0.5989,0.5636,0.5079,0.4329,0.3977,0.3927,0.3222,0.2619,0.2266,0.2064,0.1713,0.131,0.1159,0.0706,0.0,-0.0656,-0.101,-0.1111,-0.1111,-0.1111,-0.1111,-0.1111,-0.1212,-0.1364,-0.1364,-0.2506,-0.451,-0.4847,-0.5425,-0.6575,-0.7276,-0.8024,-0.8673,-0.8775,-0.8735,-0.8694,-0.8687,-0.8695,-0.8741,-0.8737,-0.9255,-1.038,-1.1937,-1.3252,-1.4186,-1.4752,-1.5173,-1.5317,-1.5317,-1.5317,-1.5317,-1.5317,-1.5501,-1.5986,-1.7145,-1.8334,-1.933,-2.0393,-2.1033,-2.1123,-2.1579,-2.2043,-2.2185,-2.223,-2.2264,-2.2353,-2.2485,-2.2574,-2.2784,-2.3724,-2.4734,-2.5746,-2.6876,-2.7966,-2.8431,-2.851,-2.8538,-2.8618,-2.8882,-2.9079,-2.9197,-2.9392,-2.956,-2.9599,-2.9689,-2.9779,-2.9818,-2.9972,-3.0279,-3.0381,-3.0809,-3.1095,-3.1108,-3.1479,-3.164,-3.1823,-3.1859,-3.1786,-3.1492,-3.1468,-3.1542,1.1414,1.0828,1.1468,1.1517,1.1126,1.0391,0.9948,0.9657,0.8924,0.8478,0.8273,0.7978,0.7683,0.7437,0.7092,0.6792,0.6537,0.5837,0.5436,0.5286,0.4529,0.3976,0.3676,0.3425,0.3222,0.292,0.2669,0.2165,0.136,0.0504,-0.005,-0.0303,-0.0353,-0.0505,-0.0757,-0.0805,-0.0902,-0.1052,-0.1098,-0.1579,-0.2438,-0.2562,-0.3371,-0.4954,-0.579,-0.6825,-0.8,-0.8098,-0.8202,-0.8291,-0.8335,-0.8328,-0.8308,-0.8297,-0.8757,-0.9866,-1.1242,-1.2387,-1.3081,-1.3767,-1.4321,-1.4726,-1.4822,-1.4822,-1.4777,-1.4784,-1.4784,-1.4907,-1.5835,-1.6917,-1.8179,-1.9191,-1.9859,-2.0223,-2.0943,-2.1454,-2.1919,-2.1963,-2.2052,-2.2176,-2.2274,-2.2353,-2.2555,-2.3584,-2.4595,-2.5442,-2.6659,-2.8007,-2.8299,-2.8471,-2.851,-2.851,-2.8618,-2.8803,-2.8973,-2.9197,-2.9302,-2.9392,-2.9521,-2.965,-2.9702,-2.974,-2.9792,-3.0062,-3.0011,-3.0113,-3.0432,-3.0558,-3.0698,-3.0736,-3.0861,-3.1022,-3.1123,-3.1011,-3.0919,1.3366,1.327,1.3076,1.2344,1.1219,1.117,1.1121,1.1072,1.0979,1.0925,1.0681,0.9899,0.9316,0.9019,0.7829,0.7185,0.7138,0.7036,0.6839,0.6642,0.6542,0.5939,0.4782,0.4682,0.423,0.3524,0.3425,0.3122,0.2719,0.2366,0.1712,0.0806,0.0755,0.0252,-0.0503,-0.0644,-0.0786,-0.0785,-0.0823,-0.0909,-0.0955,-0.1003,-0.2197,-0.4288,-0.4769,-0.5299,-0.6244,-0.6333,-0.6756,-0.7607,-0.7654,-0.7788,-0.7962,-0.8005,-0.8548,-0.9654,-0.9987,-1.0905,-1.2501,-1.2944,-1.3363,-1.4154,-1.434,-1.434,-1.4283,-1.4283,-1.4327,-1.4347,-1.4482,-1.5251,-1.6672,-1.7906,-1.8942,-1.9983,-2.0331,-2.0853,-2.1642,-2.1731,-2.1731,-2.1776,-2.1963,-2.2132,-2.2353,-2.2432,-2.3627,-2.4766,-2.5526,-2.637,-2.7886,-2.8339,-2.8471,-2.8471,-2.851,-2.8578,-2.8764,-2.8961,-2.9079,-2.9157,-2.9275,-2.9431,-2.9509,-2.9599,-2.9689,-2.9779,-2.9818,-2.9895,-3.0037,-3.019,-3.0381,-3.0545,-3.0694,-3.0844,-3.0764,-3.0908,-3.0712,1.4538,1.4442,1.3661,1.3463,1.3613,1.278,1.2441,1.2339,1.156,1.1219,1.1121,1.0783,1.0587,1.0386,0.9258,0.8177,0.7285,0.7185,0.7138,0.7039,0.7039,0.6789,0.6387,0.6189,0.5939,0.5536,0.5331,0.4828,0.4028,0.3324,0.2719,0.2411,0.2238,0.1732,0.0888,0.0631,0.0241,-0.0481,-0.0526,-0.0616,-0.0796,-0.0795,-0.1301,-0.2111,-0.3003,-0.3942,-0.5034,-0.579,-0.6321,-0.6522,-0.7076,-0.7456,-0.7406,-0.7441,-0.7618,-0.811,-0.869,-0.9665,-1.104,-1.1795,-1.2595,-1.3566,-1.3734,-1.3716,-1.3697,-1.374,-1.374,-1.3746,-1.3746,-1.4161,-1.5025,-1.6647,-1.8124,-1.8844,-2.0121,-2.1087,-2.1553,-2.1687,-2.1687,-2.1731,-2.182,-2.1865,-2.2087,-2.2555,-2.3521,-2.4713,-2.5599,-2.6577,-2.7603,-2.8179,-2.8259,-2.8351,-2.8431,-2.851,-2.8578,-2.8764,-2.8922,-2.8961,-2.9079,-2.9275,-2.9392,-2.9431,-2.9521,-2.9702,-2.974,-2.9729,-2.9845,-2.9859,-3.005,-3.034,-3.0525,-3.034,-3.0401,-3.0333,-3.0019,1.5267,1.5124,1.4436,1.449,1.4981,1.4148,1.3757,1.3661,1.2829,1.249,1.2393,1.1999,1.1804,1.1609,1.0632,0.9554,0.8421,0.7832,0.7388,0.7338,0.7338,0.7288,0.7185,0.6989,0.6942,0.6892,0.6739,0.6234,0.5582,0.4802,0.429,0.3934,0.3767,0.3247,0.2319,0.1808,0.1084,0.0377,-0.0047,-0.0372,-0.0505,-0.055,-0.0547,-0.0632,-0.1519,-0.2565,-0.3637,-0.4469,-0.5182,-0.5617,-0.634,-0.6841,-0.6976,-0.6918,-0.6874,-0.6959,-0.7445,-0.8317,-0.9357,-1.0101,-1.1015,-1.2351,-1.2613,-1.2699,-1.3009,-1.3137,-1.3179,-1.3179,-1.3179,-1.3273,-1.3783,-1.5357,-1.681,-1.7491,-1.9065,-2.0425,-2.0934,-2.1284,-2.1508,-2.1562,-2.1651,-2.1696,-2.1776,-2.2378,-2.3183,-2.4114,-2.4999,-2.5902,-2.7062,-2.751,-2.7834,-2.807,-2.8203,-2.8231,-2.8311,-2.8419,-2.8657,-2.8736,-2.887,-2.9067,-2.9172,-2.925,-2.9342,-2.9586,-2.9639,-2.9628,-2.9591,-2.9568,-2.9744,-3.0018,-2.9883,-2.9691,-2.9673,-2.9588,-2.9171,1.5683,1.5493,1.5499,1.5309,1.5178,1.5029,1.5029,1.4933,1.4885,1.4688,1.4442,1.3613,1.3119,1.2877,1.1853,1.117,1.0779,0.9164,0.8233,0.7939,0.7793,0.759,0.7434,0.7288,0.7188,0.7188,0.7188,0.7132,0.6962,0.6675,0.6179,0.5509,0.5224,0.4602,0.3605,0.261,0.1938,0.1473,0.0637,0.0045,0.0,-0.0045,0.0,0.0,-0.036,-0.1036,-0.2066,-0.2246,-0.3232,-0.4743,-0.5277,-0.5852,-0.6615,-0.6564,-0.6428,-0.6473,-0.6473,-0.6912,-0.7746,-0.8049,-0.9008,-1.0438,-1.0913,-1.1526,-1.218,-1.2534,-1.2705,-1.2705,-1.2705,-1.2723,-1.2894,-1.3844,-1.5126,-1.6147,-1.7522,-1.8627,-1.9632,-2.0484,-2.1096,-2.1338,-2.1517,-2.1642,-2.1687,-2.1767,-2.2236,-2.3008,-2.3651,-2.45,-2.6049,-2.667,-2.7051,-2.7615,-2.7962,-2.8042,-2.8042,-2.8082,-2.8271,-2.8459,-2.8645,-2.8831,-2.89,-2.8954,-2.9001,-2.917,-2.9124,-2.9088,-2.8925,-2.8937,-2.8857,-2.9025,-2.8949,-2.8905,-2.8789,-2.8624,-2.8225,1.5784,1.5689,1.5683,1.5689,1.5547,1.5452,1.5356,1.5356,1.5172,1.5131,1.5035,1.464,1.449,1.4202,1.3318,1.278,1.2684,1.1312,1.0485,0.9998,0.9361,0.892,0.8673,0.7885,0.7388,0.7235,0.7185,0.714,0.7064,0.7015,0.6762,0.6418,0.6249,0.5629,0.4736,0.4193,0.3474,0.2077,0.1483,0.0941,0.0314,0.009,0.0,0.0,0.009,-0.0135,-0.0628,-0.1568,-0.2684,-0.3976,-0.4734,-0.5536,-0.6296,-0.6428,-0.6428,-0.6428,-0.6428,-0.6823,-0.7614,-0.7834,-0.8265,-0.9479,-1.026,-1.0783,-1.1176,-1.1849,-1.2203,-1.2246,-1.2203,-1.2203,-1.2312,-1.2525,-1.382,-1.6017,-1.7557,-1.8726,-1.9817,-2.0614,-2.0979,-2.1087,-2.1186,-2.1221,-2.1221,-2.123,-2.1624,-2.2492,-2.3217,-2.4253,-2.54,-2.6246,-2.7174,-2.7615,-2.7748,-2.7788,-2.7829,-2.7799,-2.7837,-2.8012,-2.8251,-2.8436,-2.8491,-2.8465,-2.8537,-2.8608,-2.8599,-2.8487,-2.8361,-2.8233,-2.8151,-2.8014,-2.7948,-2.7919,-2.7853,-2.7544,-2.7115,1.5825,1.5825,1.5825,1.5825,1.5784,1.5635,1.5594,1.5588,1.5404,1.5356,1.5363,1.5267,1.5267,1.5077,1.4442,1.4106,1.3998,1.3366,1.2926,1.2393,1.0974,1.0293,1.0047,0.892,0.828,0.8014,0.7628,0.7367,0.7282,0.7181,0.7086,0.6988,0.6855,0.6512,0.5868,0.535,0.4421,0.3396,0.2771,0.2013,0.1209,0.0852,0.0628,0.0359,0.0404,0.0404,0.018,-0.0628,-0.1611,-0.2773,-0.4024,-0.5048,-0.5719,-0.5944,-0.6127,-0.6124,-0.6171,-0.6435,-0.6959,-0.6959,-0.7438,-0.8348,-0.9396,-1.0144,-1.0539,-1.1381,-1.1952,-1.2,-1.2,-1.2,-1.2,-1.2,-1.304,-1.4915,-1.6205,-1.7881,-1.9289,-2.0279,-2.0721,-2.0836,-2.0952,-2.0997,-2.0997,-2.1042,-2.1212,-2.1908,-2.2473,-2.3304,-2.419,-2.5052,-2.5786,-2.6472,-2.6805,-2.7062,-2.7534,-2.7539,-2.7467,-2.7608,-2.7759,-2.792,-2.8014,-2.7772,-2.7683,-2.7827,-2.7829,-2.7777,-2.7613,-2.7446,-2.7326,-2.7172,-2.6863,-2.6618,-2.6422,-2.6276,-2.5928,1.6015,1.5967,1.592,1.6015,1.5967,1.5872,1.5832,1.5832,1.5784,1.5784,1.5784,1.5594,1.554,1.5452,1.5166,1.5029,1.5083,1.4981,1.4831,1.4292,1.2926,1.175,1.1023,1.0145,0.969,0.9494,0.865,0.809,0.8009,0.7755,0.7458,0.7346,0.7141,0.7102,0.6757,0.5983,0.5492,0.5045,0.4196,0.3215,0.2282,0.2193,0.1702,0.0896,0.0896,0.0852,0.0628,0.0448,-0.009,-0.1389,-0.3267,-0.4385,-0.4741,-0.5282,-0.5686,-0.5686,-0.5644,-0.5686,-0.5688,-0.5816,-0.6124,-0.6959,-0.8097,-0.9109,-0.9806,-1.0814,-1.1607,-1.165,-1.178,-1.1914,-1.1914,-1.1914,-1.2423,-1.3198,-1.4439,-1.5958,-1.7995,-1.9278,-1.9839,-2.0321,-2.0693,-2.0864,-2.073,-2.0739,-2.0784,-2.0873,-2.1104,-2.1808,-2.2331,-2.3255,-2.3748,-2.444,-2.5304,-2.5806,-2.6141,-2.6382,-2.6353,-2.6776,-2.6925,-2.7037,-2.7305,-2.7112,-2.6855,-2.6956,-2.6895,-2.6844,-2.6729,-2.6436,-2.6122,-2.5802,-2.548,-2.517,-2.5075,-2.5063,-2.504,1.8395,1.8172,1.7498,1.7178,1.7037,1.6244,1.6069,1.6305,1.5967,1.5927,1.6021,1.5832,1.573,1.5683,1.5642,1.5601,1.5594,1.5594,1.5547,1.5356,1.4867,1.3355,1.1999,1.1312,1.1036,1.09,1.0344,0.9862,0.9096,0.8758,0.829,0.7478,0.7303,0.7139,0.7007,0.6782,0.6248,0.5672,0.5223,0.4465,0.3571,0.3304,0.2727,0.1836,0.1925,0.1569,0.0852,0.0718,0.0224,-0.0895,-0.2728,-0.3803,-0.3935,-0.4696,-0.5191,-0.5235,-0.5235,-0.5191,-0.5191,-0.5235,-0.5366,-0.5586,-0.6776,-0.7438,-0.7746,-0.9414,-1.0294,-1.0554,-1.0997,-1.1478,-1.1483,-1.1483,-1.1731,-1.2275,-1.3595,-1.533,-1.6822,-1.7787,-1.8403,-1.8956,-1.9443,-1.9652,-1.9713,-1.9704,-1.9704,-1.9826,-2.0303,-2.0845,-2.1219,-2.1905,-2.2629,-2.2938,-2.3595,-2.4153,-2.4585,-2.4918,-2.5256,-2.5769,-2.5962,-2.5955,-2.6281,-2.6474,-2.6239,-2.6128,-2.5599,-2.5457,-2.523,-2.5004,-2.4707,-2.4576,-2.4337,-2.4168,-2.4227,-2.425,-2.4274,1.9405,1.9222,1.868,1.8457,1.8319,1.721,1.6889,1.699,1.644,1.6204,1.6305,1.6204,1.6069,1.5981,1.5981,1.5872,1.5825,1.5927,1.5832,1.5635,1.554,1.4669,1.3409,1.2727,1.2315,1.2089,1.1515,1.0782,1.0102,0.9843,0.916,0.8396,0.8061,0.7797,0.7452,0.7408,0.7187,0.6697,0.6384,0.5847,0.5038,0.4772,0.4194,0.3395,0.3041,0.2238,0.1211,0.0987,0.0628,-0.0269,-0.1521,-0.2549,-0.3042,-0.389,-0.4561,-0.4921,-0.501,-0.501,-0.501,-0.501,-0.501,-0.5186,-0.6024,-0.6508,-0.6993,-0.836,-0.9462,-0.9593,-1.0294,-1.0651,-1.0781,-1.0911,-1.0997,-1.1181,-1.2388,-1.3957,-1.5385,-1.643,-1.7164,-1.7735,-1.8248,-1.8646,-1.8646,-1.8646,-1.8646,-1.88,-1.9316,-1.9633,-1.9922,-2.0782,-2.1431,-2.1578,-2.2006,-2.2585,-2.3058,-2.3374,-2.3534,-2.4105,-2.4172,-2.4291,-2.478,-2.5164,-2.4897,-2.4523,-2.4238,-2.4036,-2.3963,-2.3891,-2.3818,-2.3647,-2.3386,-2.3213,-2.3224,-2.3482,-2.3482,1.9861,1.9861,1.9724,1.9679,1.9542,1.858,1.8172,1.8079,1.7404,1.6951,1.6864,1.6817,1.6581,1.6272,1.6218,1.6123,1.592,1.6163,1.6069,1.5974,1.5927,1.5493,1.5057,1.4023,1.3525,1.3194,1.2137,1.1533,1.112,1.0876,1.0279,0.9531,0.9231,0.8759,0.8153,0.794,0.79,0.772,0.7459,0.7051,0.6511,0.6242,0.5755,0.4952,0.3976,0.2996,0.206,0.1703,0.1435,0.0897,-0.009,-0.1074,-0.1925,-0.2818,-0.3712,-0.4429,-0.4563,-0.4654,-0.4877,-0.4877,-0.4921,-0.5008,-0.5669,-0.6239,-0.6419,-0.7566,-0.8488,-0.8448,-0.9375,-0.9903,-1.0168,-1.0381,-1.0424,-1.0342,-1.0564,-1.156,-1.3225,-1.499,-1.6135,-1.6656,-1.7333,-1.7711,-1.7762,-1.7762,-1.7781,-1.7815,-1.8194,-1.8347,-1.8507,-1.8934,-1.9525,-1.9943,-2.0443,-2.1103,-2.1507,-2.1879,-2.1946,-2.2187,-2.2069,-2.2182,-2.2827,-2.3095,-2.2933,-2.2776,-2.2962,-2.3073,-2.3036,-2.2973,-2.2872,-2.2734,-2.2456,-2.2241,-2.2176,-2.259,-2.274,2.2236,2.2015,2.1212,2.0899,2.0728,1.9679,1.9405,1.9642,1.9085,1.8457,1.8056,1.7816,1.7264,1.6588,1.6676,1.6494,1.6534,1.6588,1.6494,1.644,1.6447,1.6393,1.6048,1.5123,1.4679,1.4372,1.3856,1.3049,1.2426,1.2,1.1466,1.0654,0.9923,0.9148,0.8978,0.842,0.79,0.79,0.7856,0.7764,0.7628,0.7452,0.6959,0.6062,0.5129,0.4154,0.3355,0.3132,0.2731,0.1792,0.0717,-0.009,-0.0627,-0.1387,-0.2326,-0.3087,-0.3357,-0.3626,-0.4253,-0.4342,-0.4431,-0.4478,-0.4743,-0.5055,-0.5144,-0.6198,-0.6902,-0.721,-0.8229,-0.9244,-0.982,-1.0038,-1.0033,-0.9951,-1.0038,-1.0309,-1.1083,-1.2716,-1.4352,-1.5557,-1.6415,-1.6935,-1.6901,-1.6907,-1.6941,-1.6935,-1.7034,-1.7101,-1.7258,-1.7431,-1.7888,-1.8535,-1.8765,-1.9375,-1.9688,-2.0052,-2.0315,-2.0436,-2.0352,-2.044,-2.1076,-2.1562,-2.1611,-2.1773,-2.2038,-2.2038,-2.1962,-2.1766,-2.1586,-2.1558,-2.1596,-2.1683,-2.1807,-2.1987,-2.2252,2.3047,2.2882,2.2359,2.2129,2.1971,2.1006,2.0683,2.0737,2.0133,1.9596,1.9285,1.9093,1.8688,1.8149,1.8149,1.8095,1.7816,1.7451,1.7365,1.7271,1.6943,1.6497,1.6262,1.575,1.5354,1.5274,1.4832,1.4177,1.3619,1.3281,1.2845,1.1986,1.1209,1.0864,1.0313,0.9545,0.9205,0.8947,0.8464,0.8288,0.8336,0.8116,0.758,0.6776,0.6062,0.5354,0.4332,0.4243,0.371,0.291,0.2104,0.1208,0.0448,-0.0134,-0.0894,-0.1655,-0.1879,-0.2283,-0.2865,-0.3133,-0.3267,-0.3628,-0.3807,-0.3987,-0.4255,-0.5048,-0.5625,-0.6157,-0.7261,-0.8544,-0.9257,-0.9607,-0.9559,-0.9432,-0.9563,-0.9733,-1.0115,-1.1305,-1.2662,-1.3909,-1.4622,-1.5257,-1.5526,-1.5775,-1.5922,-1.5902,-1.6451,-1.6518,-1.6635,-1.684,-1.6924,-1.7261,-1.7302,-1.7523,-1.784,-1.8227,-1.8615,-1.8789,-1.8882,-1.9164,-1.9638,-2.0138,-2.0518,-2.075,-2.0952,-2.0875,-2.0769,-2.0566,-2.0654,-2.0915,-2.1108,-2.131,-2.1502,-2.1655,-2.1949,2.3101,2.3101,2.3101,2.3101,2.296,2.2236,2.1872,2.1784,2.1006,2.0692,2.0413,2.0413,2.0104,1.9931,1.9786,1.9741,1.9405,1.8856,1.8549,1.8557,1.7909,1.742,1.7008,1.6713,1.6426,1.6096,1.5324,1.4731,1.4453,1.4391,1.388,1.3317,1.3014,1.2456,1.1863,1.1182,1.0501,1.0072,0.9419,0.8903,0.8863,0.8556,0.8017,0.7529,0.7305,0.6684,0.5797,0.5442,0.4999,0.4069,0.3801,0.2816,0.1744,0.0895,0.0492,-0.0447,-0.0581,-0.1118,-0.1879,-0.2058,-0.2237,-0.282,-0.2956,-0.3136,-0.3583,-0.3983,-0.4427,-0.5095,-0.6027,-0.7044,-0.794,-0.8372,-0.846,-0.8424,-0.8732,-0.9209,-0.9598,-1.0202,-1.0928,-1.226,-1.3099,-1.3733,-1.4168,-1.4475,-1.4692,-1.4957,-1.5499,-1.5914,-1.5997,-1.6038,-1.6031,-1.6237,-1.6353,-1.6812,-1.7172,-1.7245,-1.7521,-1.7642,-1.7732,-1.8063,-1.8442,-1.8856,-1.9313,-1.9618,-1.9745,-1.9863,-2.005,-2.0137,-2.0303,-2.0459,-2.0654,-2.0886,-2.1079,-2.1272,-2.152,2.3101,2.3101,2.3101,2.3091,2.3091,2.2916,2.2818,2.2872,2.2589,2.2138,2.1516,2.1418,2.1015,2.0466,2.0187,2.0141,2.0268,1.9997,1.9861,1.9914,1.9488,1.9126,1.8637,1.8284,1.8147,1.7482,1.6198,1.5049,1.4797,1.4601,1.4601,1.4307,1.3747,1.3233,1.2936,1.2242,1.1483,1.0971,1.0453,1.0028,0.9559,0.9253,0.899,0.8679,0.8596,0.8149,0.7482,0.7129,0.6643,0.5714,0.4741,0.4115,0.3401,0.2552,0.1567,0.0805,0.0537,0.0045,-0.1118,-0.1611,-0.2104,-0.2686,-0.2732,-0.2822,-0.3002,-0.3136,-0.3403,-0.3714,-0.4249,-0.4959,-0.5534,-0.6681,-0.6902,-0.7041,-0.7669,-0.8248,-0.838,-0.8684,-0.9501,-1.1009,-1.1729,-1.2285,-1.276,-1.3233,-1.3626,-1.388,-1.43,-1.4768,-1.4977,-1.4943,-1.4894,-1.5193,-1.5526,-1.6113,-1.6689,-1.6689,-1.6804,-1.6878,-1.7,-1.7286,-1.7619,-1.7781,-1.8103,-1.8474,-1.9002,-1.939,-1.9587,-1.9706,-1.9902,-2.0059,-2.0255,-2.045,-2.0498,-2.0546,-2.07,2.3887,2.3484,2.3484,2.344,2.3493,2.3493,2.3484,2.3484,2.345,2.3212,2.2896,2.2765,2.2536,2.2129,2.2085,2.2076,2.1943,2.1489,2.1355,2.1266,2.0836,2.0253,1.98,1.9478,1.8927,1.8201,1.7008,1.6083,1.565,1.5602,1.536,1.4866,1.444,1.4272,1.4097,1.3493,1.2808,1.2211,1.1697,1.1268,1.0755,1.0328,0.9859,0.9432,0.9349,0.9034,0.8723,0.8504,0.7973,0.7041,0.6113,0.5406,0.4741,0.3894,0.2823,0.2061,0.1792,0.1344,0.0313,0.0,-0.0358,-0.1388,-0.1613,-0.1973,-0.2287,-0.2466,-0.2553,-0.3179,-0.3582,-0.4202,-0.5043,-0.575,-0.6325,-0.6552,-0.7224,-0.772,-0.7856,-0.7856,-0.8675,-0.9753,-1.0091,-1.0649,-1.1381,-1.1901,-1.2504,-1.2893,-1.3148,-1.3487,-1.3873,-1.3704,-1.3578,-1.409,-1.4468,-1.497,-1.547,-1.547,-1.5594,-1.576,-1.5925,-1.6206,-1.6583,-1.669,-1.7033,-1.7465,-1.8031,-1.8447,-1.9082,-1.924,-1.9429,-1.9569,-1.9698,-1.9788,-1.9769,-1.9779,-1.9754,2.4978,2.4327,2.4122,2.4079,2.4046,2.3831,2.3797,2.3797,2.3797,2.3754,2.3797,2.3754,2.3711,2.3754,2.3711,2.3711,2.3701,2.2887,2.2668,2.2482,2.1959,2.1149,2.048,2.0114,1.9875,1.9301,1.8856,1.7948,1.6984,1.678,1.6304,1.5858,1.5575,1.5333,1.5075,1.4566,1.4216,1.3662,1.3105,1.2626,1.22,1.1526,1.0717,1.0077,0.9946,0.999,0.9772,0.9646,0.9117,0.8229,0.7394,0.6643,0.5891,0.5139,0.434,0.3587,0.3274,0.278,0.2241,0.1972,0.1343,0.0224,0.0134,-0.0448,-0.0941,-0.1119,-0.1657,-0.2774,-0.3089,-0.3221,-0.3707,-0.4858,-0.5304,-0.5617,-0.6334,-0.7272,-0.7183,-0.7183,-0.7363,-0.8057,-0.8364,-0.8969,-0.9792,-1.0481,-1.1042,-1.1386,-1.1638,-1.2072,-1.237,-1.2157,-1.22,-1.2845,-1.336,-1.3789,-1.4035,-1.3951,-1.407,-1.4238,-1.4357,-1.4518,-1.5067,-1.5523,-1.582,-1.5985,-1.6478,-1.6944,-1.7827,-1.847,-1.828,-1.8356,-1.8888,-1.8849,-1.8255,-1.8139,-1.8233,2.6276,2.611,2.5263,2.4957,2.4851,2.4209,2.3841,2.3884,2.3927,2.3797,2.3884,2.3884,2.3927,2.3841,2.3841,2.3841,2.3754,2.3711,2.357,2.3474,2.3313,2.2771,2.2211,2.2185,2.1377,2.0654,2.0586,1.9756,1.859,1.8141,1.7698,1.7098,1.665,1.6412,1.5767,1.5484,1.4824,1.4223,1.3971,1.3535,1.2845,1.2547,1.2376,1.2206,1.2083,1.174,1.1106,1.0895,1.0371,0.9423,0.8317,0.7702,0.739,0.6634,0.5885,0.5137,0.4518,0.3805,0.3221,0.2998,0.2684,0.1833,0.1698,0.1697,0.1117,0.0537,-0.0089,-0.0897,-0.1165,-0.1389,-0.1835,-0.2282,-0.2593,-0.3484,-0.4596,-0.5265,-0.5531,-0.6378,-0.6561,-0.6738,-0.717,-0.7577,-0.8193,-0.8886,-0.9536,-0.9836,-1.0178,-1.0611,-1.0913,-1.0783,-1.0783,-1.1429,-1.2157,-1.2632,-1.2711,-1.2583,-1.2711,-1.2838,-1.2917,-1.3038,-1.3587,-1.4043,-1.3953,-1.4197,-1.4677,-1.5427,-1.6434,-1.6847,-1.6847,-1.7012,-1.7313,-1.6921,-1.6231,-1.6357,-1.6615,2.7758,2.6812,2.6389,2.6213,2.6141,2.5284,2.4956,2.4914,2.4914,2.468,2.4391,2.4754,2.468,2.4305,2.4196,2.4196,2.4196,2.4196,2.4186,2.4186,2.4135,2.3839,2.3277,2.288,2.2331,2.1825,2.1375,2.0915,2.0031,1.9374,1.8811,1.8092,1.7488,1.7009,1.6617,1.6535,1.6015,1.5484,1.5151,1.4761,1.407,1.3811,1.3558,1.3099,1.3099,1.2802,1.2425,1.2169,1.1574,1.0717,0.9836,0.9183,0.8619,0.8129,0.7727,0.7251,0.72,0.6098,0.4245,0.3935,0.3487,0.2994,0.2726,0.2546,0.2322,0.1876,0.1252,0.0403,0.0179,-0.009,-0.0717,-0.1568,-0.1925,-0.2504,-0.3172,-0.3705,-0.4283,-0.5087,-0.5622,-0.5802,-0.598,-0.6384,-0.683,-0.7448,-0.8185,-0.8703,-0.8834,-0.8965,-0.9444,-0.9792,-0.9792,-0.9966,-1.0697,-1.1386,-1.1386,-1.1338,-1.1552,-1.1681,-1.1815,-1.198,-1.2273,-1.2523,-1.2311,-1.2253,-1.2565,-1.3574,-1.4842,-1.5352,-1.5375,-1.5527,-1.5662,-1.5165,-1.4728,-1.4699,-1.4827,2.9,2.7758,2.7557,2.7435,2.7354,2.6483,2.611,2.611,2.611,2.5757,2.5485,2.5788,2.5621,2.5062,2.5073,2.5147,2.4861,2.4818,2.4818,2.4775,2.4563,2.4228,2.3805,2.334,2.2925,2.2294,2.2004,2.1599,2.1262,2.0731,1.9963,1.9079,1.8603,1.8012,1.7738,1.7617,1.7253,1.6829,1.6468,1.6,1.5448,1.5123,1.4671,1.4245,1.3944,1.3824,1.348,1.3438,1.2887,1.1992,1.1649,1.0994,1.0139,0.9961,0.9561,0.9131,0.8952,0.8162,0.6451,0.5531,0.4779,0.4289,0.3933,0.3974,0.3303,0.2902,0.2234,0.1431,0.1163,0.0582,-0.0224,-0.0941,-0.103,-0.1432,-0.2101,-0.259,-0.3034,-0.3703,-0.415,-0.4194,-0.4508,-0.5225,-0.5675,-0.6169,-0.6786,-0.7438,-0.7573,-0.7489,-0.7925,-0.8575,-0.8619,-0.8659,-0.9266,-0.9788,-0.9527,-0.9657,-1.0,-1.038,-1.0514,-1.0514,-1.059,-1.0615,-1.0464,-1.0498,-1.0632,-1.1048,-1.193,-1.2986,-1.3954,-1.3942,-1.3913,-1.3663,-1.3397,-1.3348,-1.3349,2.9753,2.9546,2.874,2.8422,2.8343,2.7395,2.7017,2.7017,2.7028,2.6987,2.6864,2.6905,2.6483,2.6069,2.6318,2.6359,2.5735,2.5694,2.5788,2.5505,2.4946,2.4661,2.4469,2.4296,2.3781,2.2913,2.2732,2.2433,2.1987,2.1863,2.1116,2.0411,1.9767,1.9413,1.8939,1.8532,1.8492,1.8141,1.7738,1.7302,1.6895,1.6501,1.5948,1.5914,1.5782,1.5526,1.4664,1.458,1.4112,1.3178,1.3093,1.2674,1.1863,1.1863,1.1466,1.0821,1.0524,0.9865,0.8813,0.7639,0.6997,0.647,0.5894,0.5445,0.473,0.4772,0.3927,0.2549,0.2369,0.1745,0.1075,0.0538,0.0269,-0.0045,-0.0626,-0.1073,-0.1563,-0.2098,-0.25,-0.2546,-0.3081,-0.3976,-0.438,-0.4828,-0.5725,-0.647,-0.6912,-0.683,-0.6915,-0.7394,-0.7261,-0.7394,-0.7918,-0.8006,-0.7404,-0.7665,-0.8356,-0.8591,-0.8705,-0.8586,-0.846,-0.8482,-0.884,-0.8779,-0.8897,-0.8964,-0.9178,-1.0484,-1.1512,-1.2021,-1.2158,-1.2082,-1.2088,-1.2123,-1.2245,3.0037,3.0152,2.9819,2.9548,2.9248,2.8331,2.7971,2.7971,2.7959,2.8063,2.8131,2.7695,2.736,2.7197,2.7279,2.74,2.7035,2.7035,2.7035,2.6953,2.6621,2.636,2.6186,2.5825,2.5547,2.4609,2.414,2.3534,2.2931,2.282,2.2381,2.1718,2.1009,2.0285,1.9816,1.9453,1.9404,1.9453,1.9009,1.8541,1.8341,1.7755,1.7286,1.7286,1.6607,1.6312,1.5801,1.576,1.5123,1.4573,1.4538,1.3986,1.3402,1.3578,1.3275,1.2583,1.2376,1.1901,1.0859,0.96,0.8261,0.7349,0.6735,0.6293,0.5977,0.5891,0.5267,0.4376,0.3798,0.3263,0.2637,0.1969,0.1433,0.1299,0.094,0.0403,-0.0089,-0.067,-0.1073,-0.1251,-0.2055,-0.2992,-0.3263,-0.3443,-0.4472,-0.5455,-0.5855,-0.621,-0.6296,-0.6384,-0.6384,-0.6384,-0.6864,-0.7041,-0.6523,-0.6656,-0.6874,-0.697,-0.7065,-0.7168,-0.7227,-0.7264,-0.7526,-0.7356,-0.742,-0.7688,-0.8062,-0.8527,-0.9262,-1.0182,-1.0602,-1.0676,-1.0752,-1.0925,-1.1217,3.0934,3.1033,3.1071,3.0646,2.9921,2.9314,2.9055,2.9055,2.9094,2.9145,2.9263,2.8782,2.8402,2.8295,2.8533,2.8374,2.8255,2.8136,2.8176,2.8016,2.7804,2.7763,2.7599,2.7337,2.6857,2.6238,2.5541,2.4784,2.4116,2.397,2.3573,2.2973,2.2215,2.1762,2.0962,2.0527,2.0401,2.0576,2.0138,1.9659,1.9541,1.8868,1.839,1.831,1.7836,1.7642,1.7513,1.7472,1.7041,1.6552,1.6224,1.5737,1.5206,1.488,1.5005,1.4747,1.4371,1.3951,1.2741,1.0811,0.9218,0.8484,0.8046,0.7522,0.7132,0.6959,0.6508,0.527,0.509,0.4865,0.4016,0.3172,0.2816,0.2727,0.2014,0.1478,0.1164,0.0671,0.0313,-0.0045,-0.0894,-0.152,-0.1833,-0.2057,-0.3218,-0.4158,-0.4694,-0.5139,-0.563,-0.5719,-0.5766,-0.5808,-0.5894,-0.5985,-0.5988,-0.5983,-0.6007,-0.6107,-0.6245,-0.6441,-0.6512,-0.6386,-0.6429,-0.6603,-0.6657,-0.6679,-0.6813,-0.704,-0.7769,-0.8641,-0.9013,-0.937,-0.9819,-1.0056,-1.0432,3.25,3.2558,3.25,3.1696,3.0583,3.0406,3.0317,3.0165,3.0203,3.0216,3.0216,3.0165,2.9793,2.9433,2.9793,2.9678,2.9264,2.9147,2.9147,2.903,2.8691,2.8112,2.8127,2.8152,2.8156,2.7241,2.6753,2.6274,2.5523,2.5157,2.4813,2.4551,2.4082,2.3478,2.2429,2.2101,2.1921,2.1655,2.0857,2.0653,2.0411,1.9816,1.9413,1.9295,1.9067,1.8868,1.8917,1.8957,1.8621,1.8381,1.8341,1.7819,1.6895,1.6772,1.6609,1.6011,1.5887,1.5433,1.4518,1.1664,1.0471,0.9918,0.944,0.9096,0.8623,0.8317,0.7834,0.6593,0.611,0.5534,0.4821,0.4332,0.4287,0.3976,0.3309,0.2774,0.2505,0.2326,0.1967,0.1476,0.0851,0.0269,-0.0134,-0.0716,-0.1923,-0.2816,-0.3443,-0.4024,-0.4605,-0.4692,-0.4648,-0.4781,-0.4734,-0.4554,-0.4599,-0.5041,-0.5188,-0.5293,-0.5205,-0.5088,-0.5142,-0.5012,-0.5205,-0.5626,-0.5453,-0.503,-0.5193,-0.5437,-0.6073,-0.6678,-0.7698,-0.8203,-0.8694,-0.9031,-0.9216,3.289,3.2989,3.2989,3.272,3.2254,3.1974,3.1341,3.0545,3.052,3.0609,3.0622,3.0723,3.071,3.0558,3.0545,3.0596,3.0432,3.0355,3.0355,3.0266,2.9858,2.9858,2.977,2.9631,2.953,2.895,2.8459,2.7826,2.7225,2.6659,2.6068,2.5733,2.5326,2.4384,2.329,2.2681,2.2252,2.2187,2.1901,2.1738,2.1652,2.0991,2.0518,2.0518,2.008,1.9894,2.0021,2.009,1.9904,1.9747,1.9698,1.9225,1.847,1.835,1.7989,1.7383,1.7017,1.6355,1.5681,1.4191,1.311,1.1932,1.0869,1.0481,0.9918,0.9879,0.9135,0.8352,0.787,0.7386,0.6956,0.6062,0.5794,0.5528,0.4952,0.4463,0.4152,0.4063,0.3794,0.3173,0.255,0.206,0.1657,0.1029,-0.0089,-0.0939,-0.1474,-0.2681,-0.3486,-0.3217,-0.3081,-0.335,-0.3395,-0.317,-0.3167,-0.3503,-0.3559,-0.3509,-0.3295,-0.3088,-0.3207,-0.3534,-0.347,-0.3612,-0.3506,-0.3363,-0.3556,-0.3787,-0.4055,-0.4707,-0.5408,-0.6377,-0.6992,-0.7294,-0.7482,3.3871,3.4002,3.4002,3.3817,3.3526,3.301,3.2205,3.1442,3.1246,3.1185,3.1185,3.1086,3.1147,3.1222,3.1123,3.1259,3.1296,3.1086,3.0986,3.1024,3.0986,3.0748,3.0761,3.0936,3.049,3.0115,2.9659,2.9094,2.8738,2.8239,2.7645,2.6953,2.6316,2.5599,2.4598,2.3938,2.339,2.3353,2.3231,2.3021,2.2723,2.2274,2.1989,2.1762,2.1382,2.0981,2.1115,2.1048,2.0788,2.0711,2.0556,2.0372,1.9933,1.9668,1.9402,1.8807,1.7844,1.722,1.6748,1.6175,1.5004,1.4008,1.2656,1.1766,1.13,1.1052,1.0486,0.9923,0.9753,0.9366,0.8755,0.7819,0.7599,0.7376,0.6716,0.6183,0.5526,0.5437,0.4952,0.4376,0.4069,0.3669,0.3315,0.2642,0.1833,0.1117,0.0491,-0.0804,-0.1966,-0.1832,-0.1653,-0.1921,-0.2055,-0.1832,-0.1776,-0.1889,-0.187,-0.1718,-0.1586,-0.1497,-0.1796,-0.2215,-0.1924,-0.1798,-0.2189,-0.2345,-0.2033,-0.211,-0.2341,-0.2458,-0.2653,-0.374,-0.5021,-0.5523,-0.571,3.5457,3.5489,3.5489,3.5019,3.4279,3.3665,3.3297,3.3108,3.242,3.211,3.2074,3.1431,3.1603,3.1905,3.1468,3.1579,3.1978,3.1505,3.1371,3.1296,3.1482,3.1259,3.1161,3.1147,3.1106,3.09,3.0553,3.0328,3.0085,2.9585,2.9,2.8386,2.78,2.7142,2.6435,2.5726,2.5028,2.4587,2.4361,2.4108,2.3708,2.3562,2.3452,2.3268,2.2947,2.2947,2.3047,2.2909,2.2483,2.2231,2.2042,2.17,2.1395,2.1203,2.0789,2.0079,1.8838,1.843,1.8029,1.7488,1.6968,1.6175,1.5391,1.3979,1.2851,1.2425,1.1906,1.1219,1.0788,1.0702,1.0351,1.0091,0.9874,0.9257,0.8507,0.7764,0.6936,0.641,0.5794,0.5398,0.5267,0.505,0.4872,0.4289,0.353,0.3263,0.2634,0.192,0.0759,-0.0358,-0.0268,-0.0671,-0.0715,-0.0537,-0.0488,-0.035,-0.0344,-0.0212,-0.0371,-0.036,-0.0671,-0.0784,-0.0548,-0.0626,-0.1291,-0.133,-0.0626,-0.047,-0.0588,-0.0666,-0.0861,-0.1721,-0.3198,-0.3628,-0.3936,3.5489,3.5489,3.5489,3.5359,3.5133,3.4935,3.4524,3.3939,3.3213,3.2911,3.2861,3.2662,3.2613,3.2826,3.2662,3.2684,3.272,3.2684,3.2627,3.2484,3.2318,3.2137,3.1955,3.1773,3.1773,3.1733,3.1585,3.1437,3.1357,3.09,3.0011,2.914,2.9379,2.9029,2.8473,2.7812,2.6706,2.5761,2.5548,2.5052,2.4838,2.4743,2.4743,2.4564,2.4432,2.454,2.4564,2.412,2.3658,2.3537,2.3016,2.2505,2.1901,2.1787,2.1558,2.1011,2.0421,2.0129,1.9668,1.9511,1.9058,1.8252,1.7641,1.6437,1.5157,1.4238,1.3691,1.2966,1.2328,1.22,1.1901,1.1606,1.1391,1.0859,1.0245,0.9726,0.8987,0.8511,0.7899,0.7027,0.6902,0.6419,0.6245,0.5669,0.5043,0.5048,0.4736,0.4065,0.3217,0.2012,0.1431,0.1117,0.0716,0.0896,0.1148,0.1305,0.1282,0.1258,0.0977,0.0836,0.0868,0.0824,0.0902,0.0627,0.0118,0.0431,0.1059,0.0981,0.0549,0.0628,0.0432,-0.0392,-0.1175,-0.1761,-0.2231,3.5941,3.5569,3.5765,3.5733,3.5504,3.5489,3.5198,3.4658,3.3939,3.363,3.3596,3.3283,3.3367,3.3561,3.3318,3.3283,3.3596,3.3213,3.3052,3.3052,3.3297,3.2897,3.2613,3.2541,3.2555,3.2541,3.2541,3.2459,3.2431,3.2176,3.1422,3.0842,3.1164,3.0879,3.0439,2.9953,2.9336,2.8106,2.7092,2.6201,2.5908,2.5804,2.5721,2.5721,2.5616,2.5604,2.5744,2.511,2.4826,2.4743,2.4228,2.3975,2.3452,2.3243,2.2872,2.2366,2.1783,2.1431,2.1096,2.1135,2.0643,2.0168,1.9866,1.8982,1.7632,1.6495,1.5715,1.4928,1.4357,1.3866,1.336,1.2893,1.2632,1.237,1.2077,1.1778,1.1391,1.1009,1.0139,0.9096,0.8444,0.7874,0.739,0.6861,0.6467,0.6375,0.611,0.5575,0.4776,0.3753,0.3439,0.3349,0.273,0.2331,0.2603,0.2735,0.247,0.225,0.1939,0.1902,0.2165,0.2042,0.1764,0.1727,0.169,0.1925,0.2079,0.1768,0.1454,0.161,0.1609,0.098,0.0274,-0.0353,-0.0745,3.6723,3.5733,3.6258,3.6196,3.5716,3.5733,3.5733,3.5604,3.4978,3.4499,3.4312,3.3734,3.3905,3.4312,3.4041,3.4109,3.4279,3.4075,3.3871,3.3422,3.3782,3.363,3.3374,3.3318,3.3353,3.3353,3.3353,3.3457,3.3402,3.3232,3.3018,3.2748,3.2768,3.2521,3.2058,3.1762,3.1284,3.082,2.9199,2.7925,2.7101,2.6717,2.653,2.6471,2.6252,2.6102,2.6458,2.6308,2.5881,2.5881,2.5742,2.5603,2.5169,2.4743,2.429,2.3954,2.3345,2.2802,2.2542,2.2467,2.228,2.2157,2.2242,2.1275,1.9906,1.8337,1.7374,1.6421,1.573,1.5523,1.5143,1.4531,1.4154,1.386,1.3522,1.3063,1.2553,1.2083,1.1348,1.0524,1.0265,0.9696,0.9396,0.8956,0.8519,0.8086,0.7738,0.7251,0.6505,0.562,0.5354,0.5354,0.4559,0.3978,0.4076,0.4049,0.3489,0.3152,0.3023,0.3081,0.345,0.3093,0.2508,0.2859,0.3249,0.2823,0.2704,0.2782,0.2859,0.2781,0.2701,0.2314,0.1765,0.1333,0.0784,3.7221,3.6966,3.7101,3.7071,3.6951,3.6936,3.6996,3.7071,3.6919,3.615,3.5332,3.5154,3.5157,3.5305,3.5204,3.5285,3.5367,3.5106,3.5204,3.4993,3.4942,3.4495,3.4211,3.4211,3.4245,3.4312,3.4394,3.4461,3.4442,3.438,3.4182,3.3647,3.3893,3.3955,3.3536,3.3205,3.2919,3.2964,3.1657,3.0183,2.9331,2.8259,2.7703,2.7716,2.7583,2.7583,2.7683,2.7136,2.682,2.6616,2.6055,2.5812,2.5742,2.5533,2.5415,2.531,2.5016,2.4434,2.4026,2.382,2.3638,2.2988,2.2776,2.2601,2.1742,2.0149,1.8894,1.7923,1.7253,1.7172,1.6887,1.6273,1.567,1.5338,1.5005,1.4336,1.3704,1.3105,1.2504,1.2163,1.1949,1.1649,1.1305,1.0961,1.0616,1.0274,0.9975,0.9492,0.8663,0.7822,0.7197,0.7021,0.6148,0.5695,0.5709,0.5336,0.4704,0.4684,0.4689,0.4753,0.4735,0.4334,0.3982,0.4562,0.4833,0.4256,0.4062,0.4642,0.4678,0.4176,0.3982,0.3711,0.3828,0.355,0.2776,3.7911,3.7413,3.7383,3.7429,3.7472,3.7472,3.756,3.7677,3.7677,3.7265,3.6538,3.6352,3.6368,3.6368,3.6258,3.629,3.6321,3.61,3.5831,3.5799,3.5864,3.5527,3.5285,3.519,3.5219,3.5252,3.5317,3.5365,3.5415,3.535,3.5091,3.4832,3.5257,3.5267,3.491,3.4641,3.4414,3.4525,3.3539,3.2695,3.1718,3.0638,2.9891,2.9817,2.9624,2.9527,2.932,2.8876,2.8607,2.8336,2.7952,2.7657,2.7472,2.7043,2.6752,2.6616,2.6377,2.6055,2.5578,2.5263,2.5016,2.4421,2.4253,2.4421,2.3379,2.1975,2.1559,2.0632,1.9307,1.8991,1.8514,1.7954,1.7253,1.6772,1.6568,1.6191,1.5413,1.4629,1.3909,1.3239,1.2978,1.2717,1.2376,1.1992,1.1729,1.1692,1.1531,1.1402,1.0659,0.9927,0.9344,0.8725,0.7939,0.716,0.6879,0.6443,0.5894,0.5978,0.6276,0.5747,0.5422,0.547,0.5529,0.5722,0.5722,0.5375,0.5452,0.5877,0.5684,0.5065,0.5063,0.5179,0.5372,0.5565,0.5021,3.865,3.7706,3.7706,3.7764,3.7851,3.7908,3.7994,3.8108,3.8092,3.8137,3.8007,3.7485,3.7544,3.7294,3.6936,3.689,3.6875,3.6845,3.6523,3.6399,3.6384,3.6368,3.6368,3.6274,3.6352,3.6384,3.6415,3.6321,3.6227,3.618,3.6212,3.6258,3.6274,3.6258,3.646,3.6445,3.6152,3.5813,3.5227,3.4781,3.3997,3.3062,3.2129,3.176,3.1714,3.1488,3.1271,3.1071,3.0754,3.0424,2.9927,2.9526,2.9129,2.862,2.8214,2.7986,2.769,2.7324,2.6968,2.6799,2.6539,2.6311,2.6358,2.5836,2.4743,2.4313,2.3904,2.315,2.1824,2.071,2.0236,1.9621,1.8921,1.8189,1.8029,1.7715,1.6862,1.6131,1.5379,1.4587,1.4287,1.407,1.3727,1.3298,1.3057,1.3014,1.2887,1.2802,1.2498,1.1815,1.116,1.0547,0.9851,0.9118,0.8476,0.8095,0.7746,0.7306,0.7454,0.6689,0.6237,0.662,0.67,0.6416,0.6339,0.6531,0.6454,0.665,0.63,0.622,0.6758,0.7103,0.6835,0.7026,0.7145,3.9245,3.9121,3.9222,3.9259,3.9286,3.9286,3.9382,3.9504,3.9444,3.9566,3.9375,3.8984,3.8585,3.7975,3.7978,3.7966,3.7851,3.7677,3.769,3.7674,3.7381,3.7427,3.7397,3.7249,3.7661,3.7677,3.7531,3.7517,3.7117,3.7042,3.6876,3.66,3.6538,3.6538,3.6554,3.6616,3.6662,3.6507,3.6477,3.6061,3.5367,3.42,3.2686,3.237,3.2341,3.2268,3.221,3.2152,3.2125,3.1917,3.1509,3.0951,3.0537,3.0161,2.9771,2.9406,2.9109,2.8627,2.8362,2.8072,2.7762,2.7271,2.7191,2.7043,2.6408,2.6317,2.5983,2.5671,2.4376,2.2892,2.2184,2.1418,2.069,1.9739,1.9237,1.8581,1.7787,1.7472,1.7058,1.6601,1.6314,1.6101,1.5895,1.535,1.4664,1.4538,1.4161,1.4028,1.3594,1.322,1.293,1.245,1.1835,1.1343,1.0794,1.0438,1.0047,0.9371,0.8877,0.864,0.8448,0.8206,0.8158,0.8109,0.8067,0.8223,0.8109,0.802,0.8071,0.8219,0.8874,0.9145,0.8723,0.8523,0.8708]}]]